[[{"header":{"parameterUnit":"m.s-1","parameterCategory":1,"la1":31.0,"la2":29.5877,"lo1":-88.7671,"lo2":-86.6584,"dy":0.0162,"dx":0.0185,"nx":115,"ny":88,"refTime":"2023-02-25T06:00:00:Z","depth":0,"parameterNumber":2,"parameterNumberName":"U-component_of_WINDS"},"data":[0.0,0.0,0.0,0.0,0.0,0.0,0.0,0.0,0.0,0.0,0.0,0.0,0.0,0.0,0.0,0.0,0.0,0.0,0.0,0.0,0.0,0.0,0.0,0.0,0.0,0.0,0.0,0.0,0.0,0.0,0.0,0.0,0.0,0.0,0.0,0.0,0.0,0.0,0.0,0.0,0.0,0.0,0.0,0.0,0.0,0.0,0.0,0.0,0.0,0.0,0.0,0.0,0.0,0.0,0.0,0.0,0.0,0.0,0.0,0.0,0.0,0.0,0.0,0.0,0.0,0.0,0.0,0.0,0.0,0.0,0.0,0.0,0.0,0.0,0.0,0.0,0.0,0.0,0.0,0.0,0.0,0.0,0.0,0.0,0.0,0.0,0.0,0.0,0.0,0.0,0.0,0.0,0.0,0.0,0.0,0.0,0.0,0.0,0.0,0.0,0.0,0.0,0.0,0.0,0.0,0.0,0.0,0.0,0.0,0.0,0.0,0.0,0.0,0.0,0.0,0.0,0.0,0.0,0.0,0.0,0.0,0.0,0.0,0.0,0.0,0.0,0.0,0.0,0.0,0.0,0.0,0.0,0.0,0.0,0.0,0.0,0.0,0.0,0.0,0.0,0.0,0.0,0.0,0.0,0.0,0.0,0.0,0.0,0.0,0.0,0.0,0.0,0.0,0.0,0.0,0.0,0.0,0.0,0.0,0.0,0.0,0.0,0.0,0.0,0.0,0.0,0.0,0.0,0.0,0.0,0.0,0.0,0.0,0.0,0.0,0.0,0.0,0.0,0.0,0.0,0.0,0.0,0.0,0.0,0.0,0.0,0.0,0.0,0.0,0.0,0.0,0.0,0.0,0.0,0.0,0.0,0.0,0.0,0.0,0.0,0.0,0.0,0.0,0.0,0.0,0.0,0.0,0.0,0.0,0.0,0.0,0.0,0.0,0.0,0.0,0.0,0.0,0.0,0.0,0.0,0.0,0.0,0.0,0.0,0.0,0.0,0.0,0.0,0.0,0.0,0.0,0.0,0.0,0.0,0.0,0.0,0.0,0.0,0.0,0.0,0.0,0.0,0.0,0.0,0.0,0.0,0.0,0.0,0.0,0.0,0.0,0.0,0.0,0.0,0.0,0.0,0.0,0.0,0.0,0.0,0.0,0.0,0.0,0.0,0.0,0.0,0.0,0.0,0.0,0.0,0.0,0.0,0.0,0.0,0.0,0.0,0.0,0.0,0.0,0.0,0.0,0.0,0.0,0.0,0.0,0.0,0.0,0.0,0.0,0.0,0.0,0.0,0.0,0.0,0.0,0.0,0.0,0.0,0.0,0.0,0.0,0.0,0.0,0.0,0.0,0.0,0.0,0.0,0.0,0.0,0.0,0.0,0.0,0.0,0.0,0.0,0.0,0.0,0.0,0.0,0.0,0.0,0.0,0.0,0.0,0.0,0.0,0.0,0.0,0.0,0.0,0.0,0.0,0.0,0.0,0.0,0.0,0.0,0.0,0.0,0.0,0.0,0.0,0.0,0.0,0.0,0.0,0.0,0.0,0.0,0.0,0.0,0.0,0.0,0.0,0.0,0.0,0.0,0.0,0.0,0.0,0.0,0.0,0.0,0.0,0.0,0.0,0.0,0.0,0.0,0.0,0.0,0.0,0.0,0.0,0.0,0.0,0.0,0.0,0.0,0.0,0.0,0.0,0.0,0.0,0.0,0.0,0.0,0.0,0.0,0.0,0.0,0.0,0.0,0.0,0.0,0.0,0.0,0.0,0.0,0.0,0.0,0.0,0.0,0.0,0.0,0.0,0.0,0.0,0.0,0.0,0.0,0.0,0.0,0.0,0.0,0.0,0.0,0.0,0.0,0.0,0.0,0.0,0.0,0.0,0.0,0.0,0.0,0.0,0.0,0.0,0.0,0.0,0.0,0.0,0.0,0.0,0.0,0.0,0.0,0.0,0.0,0.0,0.0,0.0,0.0,0.0,0.0,0.0,0.0,0.0,0.0,0.0,0.0,0.0,0.0,0.0,0.0,0.0,0.0,0.0,0.0,0.0,0.0,0.0,0.0,0.0,0.0,0.0,0.0,0.0,0.0,0.0,0.0,0.0,0.0,0.0,0.0,0.0,0.0,0.0,0.0,0.0,0.0,0.0,0.0,0.0,0.0,0.0,0.0,0.0,0.0,0.0,0.0,0.0,0.0,0.0,0.0,0.0,0.0,0.0,0.0,0.0,0.0,0.0,0.0,0.0,0.0,0.0,0.0,0.0,0.0,0.0,0.0,0.0,0.0,0.0,0.0,0.0,0.0,0.0,0.0,0.0,0.0,0.0,0.0,0.0,0.0,0.0,0.0,0.0,0.0,0.0,0.0,0.0,0.0,0.0,0.0,0.0,0.0,0.0,0.0,0.0,0.0,0.0,0.0,0.0,0.0,0.0,0.0,0.0,0.0,0.0,0.0,0.0,0.0,0.0,0.0,0.0,0.0,0.0,0.0,0.0,0.0,0.0,0.0,0.0,0.0,0.0,0.0,0.0,0.0,0.0,0.0,0.0,0.0,0.0,0.0,0.0,0.0,0.0,0.0,0.0,0.0,0.0,0.0,0.0,0.0,0.0,0.0,0.0,0.0,0.0,0.0,0.0,0.0,0.0,0.0,0.0,0.0,0.0,0.0,0.0,0.0,0.0,0.0,0.0,0.0,0.0,0.0,0.0,0.0,0.0,0.0,0.0,0.0,0.0,0.0,0.0,0.0,0.0,0.0,0.0,0.0,0.0,0.0,0.0,0.0,0.0,0.0,0.0,0.0,0.0,0.0,0.0,0.0,0.0,0.0,0.0,0.0,0.0,0.0,0.0,0.0,0.0,0.0,0.0,0.0,0.0,0.0,0.0,0.0,0.0,0.0,0.0,0.0,0.0,0.0,0.0,0.0,0.0,0.0,0.0,0.0,0.0,0.0,0.0,0.0,0.0,0.0,0.0,0.0,0.0,0.0,0.0,0.0,0.0,0.0,0.0,0.0,0.0,0.0,0.0,0.0,0.0,0.0,0.0,0.0,0.0,0.0,0.0,0.0,0.0,0.0,0.0,0.0,0.0,0.0,0.0,0.0,0.0,0.0,0.0,0.0,0.0,0.0,0.0,0.0,0.0,0.0,0.0,0.0,0.0,0.0,0.0,0.0,0.0,0.0,0.0,0.0,0.0,0.0,0.0,0.0,0.0,0.0,0.0,0.0,0.0,0.0,0.0,0.0,0.0,0.0,0.0,0.0,0.0,0.0,0.0,0.0,0.0,0.0,0.0,0.0,0.0,0.0,0.0,0.0,0.0,0.0,0.0,0.0,0.0,0.0,0.0,0.0,0.0,0.0,0.0,0.0,0.0,0.0,0.0,0.0,0.0,0.0,0.0,0.0,0.0,0.0,0.0,0.0,0.0,0.0,0.0,0.0,0.0,0.0,0.0,0.0,0.0,0.0,0.0,0.0,0.0,0.0,0.0,0.0,0.0,0.0,0.0,0.0,0.0,0.0,0.0,0.0,0.0,0.0,0.0,0.0,0.0,0.0,0.0,0.0,0.0,0.0,0.0,0.0,0.0,0.0,0.0,0.0,0.0,0.0,0.0,0.0,0.0,0.0,0.0,0.0,0.0,0.0,0.0,0.0,0.0,0.0,0.0,0.0,0.0,0.0,0.0,0.0,0.0,0.0,0.0,0.0,0.0,0.0,0.0,0.0,0.0,0.0,0.0,0.0,0.0,0.0,0.0,0.0,0.0,0.0,0.0,0.0,0.0,0.0,0.0,0.0,0.0,0.0,0.0,0.0,0.0,0.0,0.0,0.0,0.0,0.0,0.0,0.0,0.0,0.0,0.0,0.0,0.0,0.0,0.0,0.0,0.0,0.0,0.0,0.0,0.0,0.0,0.0,0.0,0.0,0.0,0.0,0.0,0.0,0.0,0.0,0.0,0.0,0.0,0.0,0.0,0.0,0.0,0.0,0.0,0.0,0.0,0.0,0.0,0.0,0.0,0.0,0.0,0.0,0.0,0.0,0.0,0.0,0.0,0.0,0.0,0.0,0.0,0.0,0.0,0.0,0.0,0.0,0.0,0.0,0.0,0.0,0.0,0.0,0.0,0.0,0.0,0.0,0.0,0.0,0.0,0.0,0.0,0.0,0.0,0.0,0.0,0.0,0.0,0.0,0.0,0.0,0.0,0.0,0.0,0.0,0.0,0.0,0.0,0.0,0.0,0.0,0.0,0.0,0.0,0.0,0.0,0.0,0.0,0.0,0.0,-3.55,0.0,0.0,0.0,0.0,0.0,0.0,0.0,0.0,0.0,0.0,0.0,0.0,0.0,0.0,0.0,0.0,0.0,0.0,0.0,0.0,0.0,0.0,0.0,0.0,0.0,0.0,0.0,0.0,0.0,0.0,0.0,0.0,0.0,0.0,0.0,0.0,0.0,0.0,0.0,0.0,0.0,0.0,0.0,0.0,0.0,0.0,0.0,0.0,0.0,0.0,0.0,0.0,0.0,0.0,0.0,0.0,0.0,0.0,0.0,0.0,0.0,0.0,0.0,0.0,0.0,0.0,0.0,0.0,0.0,0.0,0.0,0.0,0.0,0.0,0.0,0.0,0.0,0.0,0.0,0.0,0.0,0.0,0.0,0.0,0.0,0.0,0.0,0.0,0.0,0.0,0.0,0.0,0.0,0.0,0.0,0.0,0.0,0.0,0.0,0.0,0.0,0.0,0.0,0.0,0.0,0.0,0.0,0.0,0.0,0.0,-3.55,-3.55,-3.55,-3.55,-3.55,0.0,0.0,0.0,0.0,0.0,0.0,0.0,0.0,0.0,0.0,0.0,0.0,0.0,0.0,0.0,0.0,0.0,0.0,0.0,0.0,0.0,0.0,0.0,0.0,0.0,0.0,0.0,0.0,0.0,0.0,0.0,0.0,0.0,0.0,0.0,0.0,0.0,0.0,0.0,0.0,0.0,0.0,0.0,0.0,0.0,0.0,0.0,0.0,0.0,0.0,0.0,0.0,0.0,0.0,0.0,0.0,0.0,0.0,0.0,0.0,0.0,0.0,0.0,0.0,0.0,0.0,0.0,0.0,0.0,0.0,0.0,0.0,0.0,0.0,0.0,0.0,0.0,0.0,0.0,0.0,0.0,0.0,0.0,0.0,0.0,0.0,0.0,0.0,0.0,0.0,0.0,0.0,0.0,0.0,0.0,0.0,0.0,0.0,0.0,0.0,0.0,0.0,0.0,0.0,0.0,0.0,0.0,0.0,0.0,0.0,0.0,0.0,-3.55,-3.55,-3.55,0.0,0.0,0.0,0.0,0.0,0.0,0.0,0.0,0.0,0.0,0.0,0.0,0.0,0.0,0.0,0.0,0.0,0.0,0.0,0.0,0.0,0.0,0.0,0.0,0.0,0.0,0.0,0.0,0.0,0.0,0.0,0.0,0.0,0.0,0.0,0.0,0.0,0.0,0.0,0.0,0.0,0.0,0.0,0.0,0.0,0.0,0.0,0.0,0.0,0.0,0.0,0.0,0.0,0.0,0.0,0.0,0.0,0.0,0.0,0.0,0.0,0.0,0.0,0.0,0.0,0.0,0.0,0.0,0.0,0.0,0.0,0.0,0.0,0.0,0.0,0.0,0.0,0.0,0.0,0.0,0.0,0.0,0.0,0.0,0.0,0.0,0.0,0.0,0.0,0.0,0.0,0.0,0.0,0.0,0.0,0.0,0.0,0.0,0.0,0.0,0.0,0.0,0.0,0.0,0.0,0.0,0.0,0.0,0.0,0.0,-3.55,-3.55,-3.55,0.0,-3.55,0.0,0.0,0.0,0.0,0.0,0.0,0.0,0.0,0.0,0.0,0.0,0.0,0.0,0.0,0.0,0.0,0.0,0.0,0.0,0.0,0.0,0.0,0.0,0.0,0.0,0.0,0.0,0.0,0.0,0.0,0.0,0.0,0.0,0.0,0.0,0.0,0.0,0.0,0.0,0.0,0.0,0.0,0.0,0.0,0.0,0.0,0.0,0.0,0.0,0.0,0.0,0.0,0.0,0.0,0.0,0.0,0.0,0.0,0.0,0.0,0.0,0.0,0.0,0.0,0.0,0.0,0.0,0.0,0.0,0.0,0.0,0.0,0.0,0.0,0.0,0.0,0.0,0.0,0.0,0.0,0.0,0.0,0.0,0.0,0.0,0.0,0.0,0.0,0.0,0.0,0.0,0.0,0.0,0.0,0.0,0.0,0.0,0.0,0.0,0.0,0.0,0.0,0.0,0.0,0.0,0.0,0.0,0.0,0.0,0.0,-3.55,-3.55,-3.55,-3.55,0.0,0.0,0.0,0.0,0.0,0.0,0.0,0.0,0.0,0.0,0.0,0.0,0.0,0.0,0.0,0.0,0.0,0.0,0.0,0.0,0.0,0.0,0.0,0.0,0.0,0.0,0.0,0.0,0.0,0.0,0.0,0.0,0.0,0.0,0.0,0.0,0.0,0.0,0.0,0.0,0.0,0.0,0.0,0.0,0.0,0.0,0.0,0.0,0.0,0.0,0.0,0.0,0.0,0.0,0.0,0.0,0.0,0.0,0.0,0.0,0.0,0.0,0.0,0.0,0.0,0.0,0.0,0.0,0.0,0.0,0.0,0.0,0.0,0.0,0.0,0.0,0.0,0.0,0.0,0.0,0.0,0.0,0.0,0.0,0.0,0.0,0.0,0.0,0.0,0.0,0.0,0.0,0.0,0.0,0.0,0.0,0.0,0.0,0.0,0.0,0.0,0.0,0.0,0.0,0.0,0.0,0.0,0.0,0.0,0.0,-3.55,-3.55,-3.55,-3.55,-3.55,-3.55,0.0,0.0,0.0,0.0,0.0,0.0,0.0,0.0,0.0,0.0,0.0,0.0,0.0,0.0,0.0,0.0,0.0,0.0,0.0,0.0,0.0,0.0,0.0,0.0,0.0,0.0,0.0,0.0,0.0,0.0,0.0,0.0,0.0,0.0,0.0,0.0,0.0,0.0,0.0,0.0,0.0,0.0,0.0,0.0,0.0,0.0,0.0,0.0,0.0,0.0,0.0,0.0,0.0,0.0,0.0,0.0,0.0,0.0,0.0,0.0,0.0,0.0,0.0,0.0,0.0,0.0,0.0,0.0,0.0,0.0,0.0,0.0,0.0,0.0,0.0,0.0,0.0,0.0,0.0,0.0,0.0,0.0,0.0,0.0,0.0,0.0,0.0,0.0,0.0,0.0,0.0,0.0,0.0,0.0,0.0,0.0,0.0,0.0,0.0,0.0,0.0,0.0,0.0,0.0,0.0,0.0,0.0,0.0,-3.55,-3.55,-3.55,-3.55,-3.55,-3.55,0.0,0.0,0.0,0.0,0.0,0.0,0.0,0.0,0.0,0.0,0.0,0.0,0.0,0.0,0.0,0.0,0.0,0.0,0.0,0.0,0.0,0.0,0.0,0.0,0.0,0.0,0.0,0.0,0.0,0.0,0.0,0.0,0.0,0.0,0.0,0.0,0.0,0.0,0.0,0.0,0.0,0.0,0.0,0.0,0.0,0.0,0.0,0.0,0.0,0.0,0.0,0.0,0.0,0.0,0.0,0.0,0.0,0.0,0.0,0.0,0.0,0.0,0.0,0.0,0.0,0.0,0.0,0.0,0.0,0.0,0.0,0.0,0.0,0.0,0.0,0.0,0.0,0.0,0.0,0.0,0.0,0.0,0.0,0.0,0.0,0.0,0.0,0.0,0.0,0.0,0.0,0.0,0.0,0.0,0.0,0.0,0.0,0.0,0.0,0.0,0.0,0.0,0.0,0.0,0.0,0.0,0.0,0.0,0.0,-3.5493,-3.55,-3.55,-3.55,-3.55,-3.55,0.0,0.0,0.0,0.0,0.0,0.0,0.0,0.0,0.0,0.0,0.0,0.0,0.0,0.0,0.0,0.0,0.0,0.0,0.0,0.0,0.0,0.0,0.0,0.0,0.0,0.0,0.0,0.0,0.0,0.0,0.0,0.0,0.0,0.0,0.0,0.0,0.0,0.0,0.0,0.0,0.0,0.0,0.0,0.0,0.0,0.0,0.0,0.0,0.0,0.0,0.0,0.0,0.0,0.0,0.0,0.0,0.0,0.0,0.0,0.0,0.0,0.0,0.0,0.0,0.0,0.0,0.0,0.0,0.0,0.0,0.0,0.0,0.0,0.0,0.0,0.0,0.0,0.0,0.0,0.0,0.0,0.0,0.0,0.0,0.0,0.0,0.0,0.0,0.0,0.0,0.0,0.0,0.0,0.0,0.0,0.0,0.0,0.0,0.0,0.0,0.0,0.0,0.0,0.0,0.0,0.0,0.0,0.0,0.0,-3.5474,0.0,-3.55,-3.55,-3.55,-3.55,0.0,0.0,0.0,0.0,0.0,0.0,0.0,0.0,0.0,0.0,0.0,0.0,0.0,0.0,0.0,0.0,0.0,0.0,0.0,0.0,0.0,0.0,0.0,0.0,0.0,0.0,0.0,0.0,0.0,0.0,0.0,0.0,0.0,0.0,0.0,0.0,0.0,0.0,0.0,0.0,0.0,0.0,0.0,0.0,0.0,0.0,0.0,0.0,0.0,0.0,0.0,0.0,0.0,0.0,0.0,0.0,0.0,0.0,0.0,0.0,0.0,0.0,0.0,0.0,0.0,0.0,0.0,0.0,0.0,0.0,0.0,0.0,0.0,0.0,0.0,0.0,0.0,0.0,0.0,0.0,0.0,0.0,0.0,0.0,0.0,0.0,0.0,0.0,0.0,0.0,0.0,0.0,0.0,0.0,0.0,0.0,0.0,0.0,0.0,0.0,0.0,0.0,0.0,0.0,0.0,0.0,0.0,0.0,-3.5346,-3.5493,-3.55,-3.55,-3.55,-3.55,-3.55,0.0,0.0,0.0,0.0,0.0,0.0,0.0,0.0,0.0,0.0,0.0,0.0,0.0,0.0,0.0,0.0,0.0,0.0,0.0,0.0,0.0,0.0,0.0,0.0,0.0,0.0,0.0,0.0,0.0,0.0,0.0,0.0,0.0,0.0,0.0,0.0,0.0,0.0,0.0,0.0,0.0,0.0,0.0,0.0,0.0,0.0,0.0,0.0,0.0,0.0,0.0,0.0,0.0,0.0,0.0,0.0,0.0,0.0,0.0,0.0,0.0,0.0,0.0,0.0,0.0,0.0,0.0,0.0,0.0,0.0,0.0,0.0,0.0,0.0,0.0,0.0,0.0,0.0,0.0,0.0,0.0,0.0,0.0,0.0,0.0,0.0,0.0,0.0,0.0,0.0,0.0,0.0,0.0,0.0,0.0,0.0,0.0,0.0,0.0,0.0,0.0,0.0,0.0,0.0,0.0,0.0,0.0,0.0,0.0,-3.5493,-3.55,-3.55,-3.55,-3.55,-3.55,0.0,0.0,0.0,0.0,0.0,0.0,0.0,0.0,0.0,0.0,0.0,0.0,0.0,0.0,0.0,0.0,0.0,0.0,0.0,0.0,0.0,0.0,0.0,0.0,0.0,0.0,0.0,0.0,0.0,0.0,0.0,0.0,0.0,0.0,0.0,0.0,0.0,0.0,0.0,0.0,0.0,0.0,0.0,0.0,0.0,0.0,0.0,0.0,0.0,0.0,0.0,0.0,0.0,0.0,0.0,0.0,0.0,0.0,0.0,0.0,0.0,0.0,0.0,0.0,0.0,0.0,0.0,0.0,0.0,0.0,0.0,0.0,0.0,0.0,0.0,0.0,0.0,0.0,0.0,0.0,0.0,0.0,0.0,0.0,0.0,0.0,0.0,0.0,0.0,0.0,0.0,0.0,0.0,0.0,0.0,0.0,0.0,0.0,0.0,0.0,0.0,0.0,0.0,0.0,0.0,0.0,0.0,0.0,0.0,-3.541,-3.5417,-3.5458,-3.55,-3.55,-3.55,-3.55,0.0,0.0,0.0,0.0,0.0,0.0,0.0,0.0,0.0,0.0,0.0,0.0,0.0,0.0,0.0,0.0,0.0,0.0,0.0,0.0,0.0,0.0,0.0,0.0,0.0,0.0,0.0,0.0,0.0,0.0,0.0,0.0,0.0,0.0,0.0,0.0,0.0,0.0,0.0,0.0,0.0,0.0,0.0,0.0,0.0,0.0,0.0,0.0,0.0,0.0,0.0,0.0,0.0,0.0,0.0,0.0,0.0,0.0,0.0,0.0,0.0,0.0,0.0,0.0,0.0,0.0,0.0,0.0,0.0,0.0,0.0,0.0,0.0,0.0,0.0,0.0,0.0,0.0,0.0,0.0,0.0,0.0,0.0,0.0,0.0,0.0,0.0,0.0,0.0,0.0,0.0,0.0,0.0,0.0,0.0,0.0,0.0,0.0,0.0,0.0,0.0,0.0,0.0,0.0,0.0,0.0,0.0,0.0,-3.5304,-3.5277,-3.5331,-3.5486,-3.5467,-3.5493,0.0,0.0,0.0,0.0,0.0,0.0,0.0,0.0,0.0,0.0,0.0,0.0,0.0,0.0,0.0,0.0,0.0,0.0,0.0,0.0,0.0,0.0,0.0,0.0,0.0,0.0,0.0,0.0,0.0,0.0,0.0,0.0,0.0,0.0,0.0,0.0,0.0,0.0,0.0,0.0,0.0,0.0,0.0,0.0,0.0,0.0,0.0,0.0,0.0,0.0,0.0,0.0,0.0,0.0,0.0,0.0,0.0,0.0,0.0,0.0,0.0,0.0,0.0,0.0,0.0,0.0,0.0,0.0,0.0,0.0,0.0,0.0,0.0,0.0,0.0,0.0,0.0,0.0,0.0,0.0,0.0,0.0,0.0,0.0,0.0,0.0,0.0,0.0,0.0,0.0,0.0,0.0,0.0,0.0,0.0,0.0,0.0,0.0,0.0,0.0,0.0,0.0,0.0,0.0,0.0,0.0,0.0,0.0,0.0,-3.5209,-3.5088,-3.5122,-3.535,-3.5358,-3.5358,0.0,0.0,0.0,0.0,0.0,0.0,0.0,0.0,0.0,0.0,0.0,0.0,0.0,0.0,0.0,0.0,0.0,0.0,0.0,0.0,0.0,0.0,0.0,0.0,0.0,0.0,0.0,0.0,0.0,0.0,0.0,0.0,0.0,0.0,0.0,0.0,0.0,0.0,0.0,0.0,0.0,0.0,0.0,0.0,0.0,0.0,0.0,0.0,0.0,0.0,0.0,0.0,0.0,0.0,0.0,0.0,0.0,0.0,0.0,0.0,0.0,0.0,0.0,0.0,0.0,0.0,0.0,0.0,0.0,0.0,0.0,0.0,0.0,0.0,0.0,0.0,0.0,0.0,0.0,0.0,0.0,0.0,0.0,0.0,0.0,0.0,0.0,0.0,0.0,0.0,0.0,0.0,0.0,0.0,0.0,0.0,0.0,0.0,0.0,0.0,0.0,0.0,0.0,0.0,0.0,0.0,0.0,0.0,-3.4714,-3.4944,-3.4841,-3.4851,-3.4981,-3.525,-3.5377,0.0,0.0,0.0,0.0,0.0,0.0,0.0,0.0,0.0,0.0,0.0,0.0,0.0,0.0,0.0,0.0,0.0,0.0,0.0,0.0,0.0,0.0,0.0,0.0,0.0,0.0,0.0,0.0,0.0,0.0,0.0,0.0,0.0,0.0,0.0,0.0,0.0,0.0,0.0,0.0,0.0,0.0,0.0,0.0,0.0,0.0,0.0,0.0,0.0,0.0,0.0,0.0,0.0,0.0,0.0,0.0,0.0,0.0,0.0,0.0,0.0,0.0,0.0,0.0,0.0,0.0,0.0,0.0,0.0,0.0,0.0,0.0,0.0,0.0,0.0,0.0,0.0,0.0,0.0,0.0,0.0,0.0,0.0,0.0,0.0,0.0,0.0,0.0,0.0,0.0,0.0,0.0,0.0,0.0,0.0,0.0,0.0,0.0,0.0,0.0,0.0,0.0,0.0,0.0,0.0,0.0,0.0,0.0,-3.458,-3.4572,-3.462,-3.4601,-3.4622,-3.5122,-3.5354,0.0,0.0,0.0,0.0,0.0,0.0,0.0,0.0,0.0,0.0,0.0,0.0,0.0,0.0,0.0,0.0,0.0,0.0,0.0,0.0,0.0,0.0,0.0,0.0,0.0,0.0,0.0,0.0,0.0,0.0,0.0,0.0,0.0,0.0,0.0,0.0,0.0,0.0,0.0,0.0,0.0,0.0,0.0,0.0,0.0,0.0,0.0,0.0,0.0,0.0,0.0,0.0,0.0,0.0,0.0,0.0,0.0,0.0,0.0,0.0,0.0,0.0,0.0,0.0,0.0,0.0,0.0,0.0,0.0,0.0,0.0,0.0,0.0,0.0,0.0,0.0,0.0,0.0,0.0,0.0,0.0,0.0,0.0,0.0,0.0,0.0,0.0,0.0,0.0,0.0,0.0,0.0,0.0,0.0,0.0,0.0,0.0,0.0,0.0,0.0,0.0,0.0,0.0,0.0,0.0,0.0,0.0,0.0,-3.4356,-3.4509,-3.4583,-3.4604,-3.4604,-3.4714,-3.4803,0.0,0.0,0.0,0.0,0.0,0.0,0.0,0.0,0.0,0.0,0.0,0.0,0.0,0.0,0.0,0.0,0.0,0.0,0.0,0.0,0.0,0.0,0.0,0.0,0.0,0.0,0.0,0.0,0.0,0.0,0.0,0.0,0.0,0.0,0.0,0.0,0.0,0.0,0.0,0.0,0.0,0.0,0.0,0.0,0.0,0.0,0.0,0.0,-3.1408,0.0,0.0,0.0,0.0,0.0,0.0,0.0,0.0,0.0,0.0,0.0,0.0,0.0,0.0,0.0,0.0,0.0,0.0,0.0,0.0,0.0,0.0,0.0,0.0,0.0,0.0,0.0,0.0,0.0,0.0,0.0,0.0,0.0,0.0,0.0,0.0,0.0,0.0,0.0,0.0,0.0,0.0,0.0,0.0,0.0,0.0,0.0,0.0,0.0,0.0,0.0,0.0,0.0,0.0,0.0,0.0,0.0,0.0,0.0,-3.4161,-3.4269,-3.4293,-3.4347,-3.4351,-3.4367,-3.4461,0.0,0.0,0.0,0.0,0.0,0.0,0.0,0.0,0.0,0.0,0.0,0.0,0.0,0.0,0.0,0.0,0.0,0.0,0.0,0.0,0.0,0.0,0.0,0.0,0.0,0.0,0.0,0.0,0.0,0.0,0.0,0.0,0.0,0.0,0.0,0.0,0.0,0.0,0.0,0.0,0.0,0.0,0.0,0.0,0.0,0.0,0.0,0.0,0.0,0.0,0.0,0.0,0.0,0.0,0.0,0.0,0.0,0.0,0.0,0.0,0.0,0.0,0.0,0.0,0.0,0.0,0.0,0.0,0.0,0.0,0.0,0.0,0.0,0.0,0.0,0.0,0.0,0.0,0.0,0.0,0.0,0.0,0.0,0.0,0.0,0.0,0.0,0.0,0.0,0.0,0.0,0.0,0.0,0.0,0.0,0.0,0.0,0.0,0.0,0.0,0.0,0.0,0.0,0.0,0.0,0.0,0.0,-3.4023,-3.3998,-3.3985,-3.3998,-3.4036,-3.4086,-3.4086,-3.4208,-3.4526,0.0,0.0,0.0,0.0,0.0,0.0,0.0,0.0,0.0,0.0,0.0,0.0,0.0,0.0,0.0,0.0,0.0,0.0,0.0,0.0,0.0,0.0,0.0,0.0,0.0,0.0,0.0,0.0,0.0,0.0,0.0,0.0,0.0,0.0,0.0,0.0,0.0,0.0,-3.2781,-3.2682,0.0,0.0,0.0,0.0,0.0,0.0,0.0,0.0,-3.1389,0.0,0.0,0.0,0.0,0.0,0.0,0.0,0.0,0.0,0.0,0.0,0.0,0.0,0.0,0.0,0.0,0.0,0.0,0.0,0.0,0.0,0.0,0.0,0.0,0.0,0.0,0.0,0.0,0.0,0.0,0.0,0.0,0.0,0.0,0.0,0.0,0.0,0.0,0.0,0.0,0.0,0.0,0.0,0.0,0.0,0.0,0.0,0.0,0.0,0.0,0.0,0.0,0.0,0.0,0.0,0.0,-3.3934,-3.3972,-3.3972,-3.3921,-3.3972,-3.3998,-3.4023,-3.4011,-3.4074,-3.4197,0.0,0.0,0.0,0.0,0.0,0.0,0.0,0.0,0.0,0.0,0.0,0.0,0.0,0.0,0.0,0.0,0.0,0.0,0.0,0.0,0.0,0.0,0.0,0.0,0.0,0.0,0.0,0.0,0.0,0.0,0.0,0.0,0.0,0.0,0.0,0.0,0.0,0.0,0.0,-3.2092,-3.1823,0.0,0.0,0.0,0.0,0.0,0.0,0.0,0.0,-3.119,0.0,0.0,0.0,0.0,0.0,0.0,0.0,0.0,0.0,0.0,0.0,0.0,0.0,0.0,0.0,0.0,0.0,0.0,0.0,0.0,0.0,0.0,0.0,0.0,0.0,0.0,0.0,0.0,0.0,0.0,0.0,0.0,0.0,0.0,0.0,0.0,0.0,0.0,0.0,0.0,0.0,0.0,0.0,0.0,0.0,0.0,0.0,0.0,0.0,0.0,0.0,0.0,0.0,0.0,0.0,-3.3908,-3.3913,-3.3881,-3.386,-3.3868,-3.3908,-3.3928,-3.3947,-3.3972,0.0,0.0,0.0,0.0,0.0,0.0,0.0,0.0,0.0,0.0,0.0,0.0,0.0,0.0,0.0,0.0,0.0,0.0,0.0,0.0,0.0,0.0,0.0,0.0,0.0,0.0,0.0,0.0,0.0,0.0,0.0,0.0,0.0,0.0,0.0,0.0,0.0,0.0,0.0,0.0,-3.2003,-3.186,-3.1487,0.0,0.0,0.0,0.0,0.0,0.0,-3.119,-3.119,0.0,0.0,0.0,0.0,0.0,0.0,0.0,0.0,0.0,0.0,0.0,0.0,0.0,0.0,0.0,0.0,0.0,0.0,0.0,0.0,0.0,0.0,0.0,0.0,0.0,0.0,0.0,0.0,0.0,0.0,0.0,0.0,0.0,0.0,0.0,0.0,0.0,0.0,0.0,0.0,0.0,0.0,0.0,0.0,0.0,0.0,0.0,0.0,0.0,0.0,0.0,0.0,0.0,0.0,0.0,-3.3881,-3.3834,-3.3807,-3.3807,-3.3807,-3.3815,-3.3868,-3.3881,-3.3908,0.0,0.0,0.0,0.0,0.0,0.0,0.0,0.0,0.0,0.0,0.0,0.0,0.0,0.0,0.0,0.0,0.0,0.0,0.0,0.0,0.0,0.0,0.0,0.0,0.0,0.0,0.0,0.0,0.0,0.0,0.0,0.0,0.0,0.0,0.0,0.0,0.0,0.0,0.0,0.0,0.0,-3.1859,-3.1308,-3.1428,0.0,0.0,0.0,0.0,-3.119,-3.119,0.0,0.0,0.0,0.0,0.0,0.0,0.0,0.0,0.0,0.0,0.0,0.0,0.0,0.0,0.0,0.0,0.0,0.0,0.0,0.0,0.0,0.0,0.0,0.0,0.0,0.0,0.0,0.0,0.0,0.0,0.0,0.0,0.0,0.0,0.0,0.0,0.0,0.0,0.0,0.0,0.0,0.0,0.0,0.0,0.0,0.0,0.0,0.0,0.0,0.0,0.0,0.0,0.0,0.0,0.0,0.0,-3.3802,-3.3807,-3.3807,-3.3807,-3.3807,-3.3807,-3.382,-3.382,-3.3887,0.0,0.0,0.0,0.0,0.0,0.0,0.0,0.0,0.0,0.0,0.0,0.0,0.0,0.0,0.0,0.0,0.0,0.0,0.0,0.0,0.0,0.0,0.0,0.0,0.0,0.0,0.0,0.0,0.0,0.0,0.0,0.0,0.0,0.0,0.0,0.0,0.0,0.0,0.0,0.0,0.0,-3.1291,-3.121,-3.123,-3.1249,0.0,0.0,-3.119,-3.119,-3.119,0.0,0.0,0.0,0.0,0.0,0.0,0.0,0.0,0.0,0.0,0.0,0.0,0.0,0.0,0.0,0.0,0.0,0.0,0.0,0.0,0.0,0.0,0.0,0.0,0.0,0.0,0.0,0.0,0.0,0.0,0.0,0.0,0.0,0.0,0.0,0.0,0.0,0.0,0.0,0.0,0.0,0.0,0.0,0.0,0.0,0.0,0.0,0.0,0.0,0.0,0.0,0.0,0.0,0.0,0.0,-3.3887,-3.3807,-3.3807,-3.3807,-3.3807,-3.3807,-3.3807,-3.3807,-3.3807,-3.3842,0.0,0.0,0.0,0.0,0.0,0.0,0.0,0.0,0.0,0.0,0.0,0.0,0.0,0.0,0.0,0.0,0.0,0.0,0.0,0.0,0.0,0.0,0.0,0.0,0.0,0.0,0.0,0.0,0.0,0.0,0.0,0.0,0.0,0.0,0.0,0.0,0.0,0.0,0.0,0.0,0.0,0.0,-3.119,-3.119,0.0,0.0,0.0,-3.119,-3.119,0.0,0.0,0.0,0.0,0.0,0.0,0.0,0.0,0.0,0.0,0.0,0.0,0.0,0.0,0.0,0.0,0.0,0.0,0.0,0.0,0.0,0.0,0.0,0.0,0.0,0.0,0.0,0.0,0.0,0.0,0.0,0.0,0.0,0.0,0.0,0.0,0.0,0.0,0.0,0.0,0.0,0.0,0.0,0.0,0.0,0.0,0.0,0.0,0.0,0.0,0.0,0.0,0.0,0.0,0.0,0.0,0.0,-3.3807,-3.3807,-3.3807,-3.3807,-3.3807,-3.3807,-3.3807,-3.3807,0.0,0.0,0.0,0.0,0.0,0.0,0.0,0.0,0.0,0.0,0.0,0.0,0.0,0.0,0.0,0.0,0.0,0.0,0.0,0.0,0.0,0.0,0.0,0.0,0.0,0.0,0.0,-3.3753,0.0,0.0,0.0,0.0,0.0,0.0,0.0,0.0,0.0,0.0,0.0,0.0,0.0,0.0,-3.119,-3.119,-3.119,-3.119,0.0,0.0,-3.119,-3.119,-3.119,-3.119,0.0,0.0,0.0,0.0,0.0,0.0,0.0,0.0,0.0,0.0,0.0,0.0,0.0,0.0,0.0,0.0,0.0,0.0,0.0,0.0,0.0,0.0,0.0,0.0,0.0,0.0,0.0,0.0,0.0,0.0,0.0,0.0,0.0,0.0,0.0,0.0,0.0,0.0,0.0,0.0,0.0,0.0,0.0,0.0,0.0,0.0,0.0,0.0,0.0,0.0,0.0,0.0,0.0,0.0,0.0,-3.3807,-3.3807,-3.3807,-3.3807,-3.3807,-3.3807,-3.3807,-3.3807,-3.3847,0.0,0.0,0.0,0.0,0.0,0.0,0.0,0.0,0.0,0.0,0.0,0.0,0.0,0.0,0.0,0.0,0.0,0.0,0.0,0.0,0.0,0.0,0.0,0.0,0.0,0.0,0.0,0.0,0.0,0.0,0.0,0.0,0.0,0.0,0.0,0.0,0.0,0.0,0.0,0.0,0.0,-3.119,-3.119,-3.119,-3.119,0.0,0.0,-3.119,-3.119,-3.119,-3.119,-3.119,0.0,0.0,0.0,0.0,0.0,0.0,0.0,0.0,0.0,0.0,0.0,0.0,0.0,0.0,0.0,0.0,0.0,0.0,0.0,0.0,0.0,0.0,0.0,0.0,0.0,0.0,0.0,0.0,0.0,0.0,0.0,0.0,0.0,0.0,0.0,0.0,0.0,0.0,0.0,0.0,0.0,0.0,0.0,0.0,0.0,0.0,0.0,0.0,0.0,0.0,0.0,0.0,0.0,-3.3807,-3.3807,-3.3807,-3.3807,-3.3807,-3.3807,-3.3807,-3.3807,-3.3807,-3.3829,0.0,0.0,0.0,0.0,0.0,0.0,0.0,0.0,0.0,0.0,0.0,0.0,0.0,0.0,0.0,0.0,0.0,0.0,0.0,0.0,0.0,0.0,0.0,0.0,0.0,0.0,0.0,0.0,-3.3605,-3.352,-3.3322,0.0,0.0,0.0,0.0,0.0,0.0,0.0,0.0,0.0,0.0,-3.119,-3.119,-3.119,0.0,0.0,-3.119,-3.119,-3.119,-3.119,-3.119,-3.119,-3.119,0.0,0.0,0.0,0.0,0.0,0.0,0.0,0.0,0.0,0.0,0.0,0.0,0.0,0.0,0.0,0.0,0.0,0.0,0.0,0.0,0.0,0.0,0.0,0.0,0.0,0.0,0.0,0.0,0.0,0.0,0.0,0.0,0.0,0.0,0.0,0.0,0.0,0.0,0.0,0.0,0.0,0.0,0.0,0.0,0.0,0.0,0.0,0.0,0.0,0.0,0.0,0.0,-3.3807,-3.3807,-3.3807,-3.3807,-3.3807,-3.3807,-3.3807,-3.3807,-3.3807,-3.3815,0.0,0.0,0.0,0.0,0.0,0.0,0.0,0.0,0.0,0.0,0.0,0.0,0.0,0.0,0.0,0.0,0.0,0.0,0.0,0.0,0.0,0.0,0.0,0.0,0.0,0.0,0.0,0.0,-3.352,-3.3386,-3.3244,0.0,0.0,0.0,0.0,0.0,0.0,0.0,0.0,0.0,0.0,-3.119,-3.119,-3.119,-3.119,-3.119,-3.119,-3.119,-3.119,-3.119,-3.119,-3.119,0.0,0.0,0.0,0.0,0.0,0.0,0.0,0.0,0.0,0.0,0.0,0.0,0.0,0.0,0.0,0.0,0.0,0.0,0.0,0.0,0.0,0.0,0.0,0.0,0.0,0.0,0.0,0.0,0.0,0.0,-3.55,0.0,0.0,0.0,0.0,0.0,0.0,0.0,0.0,0.0,0.0,0.0,0.0,0.0,0.0,0.0,0.0,0.0,0.0,0.0,0.0,0.0,0.0,-3.3807,-3.3807,-3.3807,-3.3807,-3.3807,-3.3807,-3.3807,-3.3807,-3.3807,-3.3807,-3.3807,0.0,0.0,0.0,0.0,0.0,0.0,0.0,0.0,0.0,0.0,0.0,0.0,0.0,0.0,0.0,0.0,0.0,0.0,0.0,0.0,0.0,0.0,0.0,0.0,0.0,0.0,-3.3601,-3.3331,-3.3117,0.0,0.0,0.0,0.0,0.0,0.0,0.0,0.0,0.0,0.0,-3.119,-3.119,-3.119,-3.119,-3.119,-3.119,-3.119,-3.119,-3.119,-3.119,-3.119,0.0,0.0,0.0,0.0,0.0,0.0,0.0,0.0,0.0,0.0,0.0,0.0,0.0,0.0,0.0,0.0,0.0,0.0,0.0,0.0,0.0,0.0,0.0,0.0,0.0,0.0,0.0,-3.5174,-3.5281,0.0,0.0,0.0,0.0,0.0,0.0,0.0,0.0,0.0,0.0,0.0,-3.3934,-3.3908,0.0,0.0,0.0,0.0,0.0,0.0,0.0,0.0,0.0,0.0,0.0,0.0,-3.3807,-3.3807,-3.3807,-3.3807,-3.3807,-3.3807,-3.3807,-3.3807,-3.3807,-3.3807,-3.3807,0.0,0.0,0.0,0.0,0.0,0.0,0.0,0.0,0.0,0.0,0.0,0.0,0.0,0.0,0.0,0.0,0.0,0.0,0.0,0.0,0.0,0.0,0.0,0.0,0.0,-3.3753,0.0,0.0,0.0,0.0,0.0,0.0,0.0,0.0,0.0,0.0,0.0,-3.119,-3.119,-3.119,-3.119,-3.119,-3.119,-3.119,0.0,0.0,0.0,0.0,0.0,0.0,0.0,0.0,0.0,0.0,0.0,0.0,0.0,0.0,-3.0161,-2.9179,-2.8993,-2.8993,-2.8993,0.0,0.0,0.0,0.0,0.0,0.0,0.0,0.0,0.0,0.0,0.0,0.0,0.0,0.0,0.0,0.0,-3.5079,0.0,0.0,0.0,0.0,0.0,0.0,0.0,0.0,-3.4166,-3.3972,-3.3887,-3.3868,-3.3842,0.0,-3.3807,-3.3807,0.0,0.0,0.0,0.0,0.0,0.0,0.0,0.0,-3.3807,-3.3807,-3.3807,-3.3807,-3.3807,-3.3807,-3.3807,-3.3807,-3.3807,-3.3807,-3.3807,-3.3807,-3.3807,0.0,0.0,0.0,0.0,0.0,0.0,0.0,0.0,0.0,0.0,0.0,0.0,0.0,0.0,0.0,0.0,0.0,0.0,0.0,0.0,0.0,0.0,0.0,-3.3698,0.0,0.0,0.0,0.0,0.0,0.0,0.0,0.0,0.0,-3.1445,-3.1291,-3.119,-3.119,-3.119,-3.119,-3.119,0.0,0.0,0.0,0.0,0.0,0.0,0.0,-3.119,-3.119,-3.119,-3.119,-3.119,-3.119,-3.119,-3.119,0.0,0.0,-2.9941,-2.9753,-2.9771,-2.9771,-2.9754,-2.9734,-2.9661,-2.9974,-3.0253,0.0,0.0,0.0,0.0,0.0,0.0,0.0,0.0,-3.4582,-3.4653,0.0,-3.4898,0.0,0.0,0.0,0.0,0.0,0.0,0.0,0.0,-3.3934,-3.3873,-3.3807,-3.3807,-3.3807,-3.3807,-3.3807,-3.3807,-3.3807,-3.3788,0.0,0.0,0.0,0.0,0.0,0.0,-3.3807,-3.3807,-3.3807,-3.3807,-3.3807,-3.3807,-3.3807,-3.3807,-3.3807,-3.3807,-3.3807,-3.3807,-3.3807,-3.3807,-3.382,0.0,0.0,0.0,0.0,0.0,0.0,0.0,0.0,0.0,0.0,0.0,0.0,0.0,0.0,0.0,0.0,0.0,0.0,0.0,0.0,-3.3671,0.0,0.0,0.0,0.0,0.0,0.0,0.0,0.0,0.0,0.0,-3.123,-3.121,-3.119,-3.119,0.0,0.0,0.0,0.0,-3.119,-3.119,-3.119,-3.119,-3.119,-3.119,-3.119,-3.119,0.0,0.0,-3.119,-3.119,-3.119,-3.119,-3.119,-3.119,-3.1157,-3.1089,-3.1123,-3.1123,-3.1089,-3.1157,-3.1173,-3.0977,-3.0925,-3.512,0.0,0.0,0.0,0.0,-3.512,-3.5029,-3.4927,-3.4793,-3.4783,-3.4841,-3.4811,0.0,0.0,0.0,0.0,0.0,0.0,-3.4293,-3.4117,-3.3972,-3.3873,-3.3807,-3.3807,-3.3807,-3.3807,-3.3807,-3.3807,-3.3807,-3.3807,-3.3697,-3.3445,0.0,0.0,0.0,0.0,-3.3807,-3.3807,-3.3807,-3.3807,-3.3807,-3.3807,-3.3807,-3.3807,-3.3807,-3.3807,-3.3807,-3.3807,-3.3807,-3.3807,-3.3807,0.0,0.0,0.0,0.0,0.0,0.0,0.0,0.0,0.0,0.0,0.0,0.0,0.0,0.0,0.0,0.0,0.0,0.0,0.0,-3.3807,-3.3671,-3.3605,0.0,0.0,0.0,0.0,0.0,0.0,0.0,0.0,0.0,-3.1483,-3.131,-3.119,0.0,0.0,-3.119,-3.119,-3.119,-3.119,-3.119,0.0,0.0,0.0,-3.119,-3.119,-3.119,-3.119,-3.119,-3.119,-3.119,-3.119,-3.119,-3.119,-3.119,-3.119,-3.119,-3.119,-3.119,-3.119,-3.119,-3.119,-3.1171,-3.1095,-3.6027,-3.6043,-3.5413,-3.5111,-3.5001,-3.502,-3.4974,-3.484,-3.468,-3.4649,-3.4701,-3.4615,-3.4564,-3.4567,-3.4534,0.0,0.0,0.0,-3.4197,-3.4092,-3.3934,-3.3847,-3.3807,-3.3807,-3.3807,-3.3807,-3.3807,-3.3807,-3.3807,-3.3807,-3.3807,-3.3807,0.0,0.0,-3.3807,-3.3807,-3.3807,-3.3807,-3.3807,-3.3807,-3.3807,-3.3807,-3.3807,-3.3807,-3.3868,-3.3921,-3.3921,-3.3926,-3.3921,-3.3939,-3.3847,-3.3807,0.0,0.0,0.0,0.0,0.0,0.0,0.0,0.0,0.0,0.0,0.0,-3.3807,-3.3807,0.0,0.0,0.0,-3.3807,-3.3775,-3.3748,-3.3657,0.0,0.0,0.0,0.0,0.0,0.0,0.0,-3.2369,-3.1985,-3.1711,-3.1617,-3.1447,-3.1327,-3.121,-3.119,-3.119,-3.119,0.0,-3.119,-3.119,-3.119,-3.119,-3.119,-3.119,-3.119,-3.119,-3.119,-3.119,-3.119,-3.119,-3.119,-3.119,-3.119,-3.119,-3.119,-3.119,-3.119,-3.119,-3.119,-3.119,-3.119,-3.119,-3.1151,-3.744,-3.7356,-3.5921,-3.5154,-3.4932,-3.4981,-3.4898,-3.4712,-3.4568,-3.4533,-3.4561,-3.4603,-3.4556,-3.4462,-3.4389,0.0,-3.4297,-3.4188,-3.4129,-3.4084,-3.4049,-3.4009,-3.399,-3.4009,-3.4009,-3.4009,-3.399,-3.399,-3.4027,-3.4009,-3.4009,-3.4009,-3.4004,-3.3949,-3.3807,-3.3807,-3.3807,-3.3807,-3.3807,-3.3807,-3.3807,-3.3807,-3.382,-3.3834,-3.3985,-3.4086,-3.4124,-3.4111,-3.4099,-3.4086,-3.3921,-3.3802,-3.3807,0.0,0.0,0.0,0.0,0.0,0.0,0.0,0.0,0.0,0.0,0.0,0.0,0.0,0.0,0.0,-3.3807,0.0,-3.3712,-3.3629,0.0,0.0,0.0,-3.299,-3.275,-3.2588,-3.2421,-3.2109,0.0,0.0,-3.1673,0.0,-3.1483,-3.123,-3.119,-3.119,-3.119,-3.119,-3.119,-3.119,-3.119,-3.119,-3.119,-3.119,-3.119,-3.119,-3.119,-3.119,-3.119,-3.119,-3.119,-3.119,-3.119,-3.119,-3.119,-3.119,-3.119,-3.119,-3.119,-3.119,-3.119,-3.119,-3.1171,-3.742,-3.7383,-3.7053,-3.6891,-3.6832,-3.669,-3.6572,-3.6453,-3.6278,-3.6155,-3.6093,-3.6313,-3.6453,-3.655,-3.6502,-3.6344,-3.6168,-3.6079,-3.5927,-3.574,-3.5711,-3.5697,-3.5697,-3.5697,-3.5716,-3.5716,-3.5697,-3.5697,-3.5697,-3.5716,-3.5697,-3.5711,-3.5859,-3.5214,-3.3875,-3.3807,-3.3807,-3.3807,-3.3807,-3.3807,-3.3807,-3.3807,-3.3868,-3.4023,-3.3921,-3.4011,-3.4305,-3.4185,-3.4099,-3.4099,-3.4043,-3.3978,-3.382,-3.3807,0.0,0.0,0.0,0.0,0.0,0.0,0.0,0.0,0.0,-3.3807,-3.3807,0.0,-3.3807,0.0,-3.3807,-3.378,-3.368,-3.3629,0.0,0.0,-3.3226,-3.3055,-3.2948,-3.2852,-3.277,-3.2687,-3.23,-3.1967,-3.1914,-3.156,-3.1269,-3.119,-3.119,-3.119,-3.119,-3.119,-3.119,-3.119,-3.119,-3.119,-3.119,-3.119,-3.119,-3.119,-3.119,-3.119,-3.119,-3.119,-3.119,-3.119,-3.119,-3.119,-3.119,-3.119,-3.119,-3.119,-3.119,-3.119,-3.119,-3.119,-3.119,-3.9648,-3.9669,-3.972,-3.9732,-3.9677,-3.8095,-3.7399,-3.7339,-3.7159,-3.7039,-3.7005,-3.7088,-3.7145,-3.7249,-3.7068,-3.6962,-3.6882,-3.6634,-3.6491,-3.644,-3.636,-3.6342,-3.644,-3.644,-3.6459,-3.6567,-3.6567,-3.6567,-3.6567,-3.6549,-3.6549,-3.6581,-3.6668,-3.6216,-3.5223,-3.5173,-3.5121,-3.5053,-3.5053,-3.4887,-3.4518,-3.4393,-3.4209,-3.3978,-3.3947,-3.4036,-3.4257,-3.4245,-3.4233,-3.4233,-3.4148,-3.4049,-3.3934,-3.3842,-3.3807,0.0,0.0,0.0,0.0,0.0,0.0,0.0,0.0,0.0,0.0,0.0,-3.3807,-3.3807,-3.3807,-3.3766,-3.3657,-3.3633,-3.3534,-3.3382,-3.3196,-3.3088,-3.2995,-3.2948,-3.2852,-3.2739,-3.2521,-3.23,-3.2039,-3.1876,-3.1671,-3.1406,-3.1368,-3.1329,-3.121,-3.119,-3.119,-3.119,-3.119,-3.119,-3.119,-3.119,-3.119,-3.119,-3.119,-3.119,-3.119,-3.119,-3.119,-3.119,-3.119,-3.119,-3.119,-3.119,-3.119,-3.119,-3.119,-3.119,-3.119,-3.119,-3.119,-4.2416,-4.2473,-4.2514,-4.2547,-4.2373,-3.9538,-3.8336,-3.8271,-3.7943,-3.7799,-3.7754,-3.7594,-3.7528,-3.7558,-3.7261,-3.7212,-3.7314,-3.6922,-3.6805,-3.6917,-3.6763,-3.6791,-3.6949,-3.6949,-3.7048,-3.7187,-3.7187,-3.7199,-3.7218,-3.7218,-3.7206,-3.7218,-3.7212,-3.7242,-3.7218,-3.7267,-3.7075,-3.6647,-3.6647,-3.6294,-3.5615,-3.5375,-3.4912,-3.4289,-3.4277,-3.4309,-3.4333,-3.4372,-3.4393,-3.437,-3.4216,-3.4086,-3.4061,-3.3913,-3.3807,0.0,-3.3807,0.0,0.0,0.0,0.0,0.0,0.0,0.0,0.0,-3.3807,-3.3807,-3.3807,-3.3807,-3.3739,-3.3601,-3.3605,-3.3538,-3.3307,-3.3183,-3.3055,-3.2995,-3.2932,-3.282,-3.2591,-3.2705,-3.2639,-3.2179,-3.2301,-3.2214,-3.1691,-3.156,-3.1483,-3.1249,-3.119,-3.119,-3.119,-3.119,-3.119,-3.119,-3.119,-3.119,-3.119,-3.119,-3.119,-3.119,-3.119,-3.119,-3.119,-3.119,-3.119,-3.119,-3.119,-3.119,-3.119,-3.119,-3.119,-3.119,-3.119,-3.119,-4.2412,-4.2416,-4.2536,-4.2591,-4.2555,-4.2057,-4.167,-4.1359,-4.0426,-3.9724,-3.9297,-3.9233,-3.9361,-3.954,-3.9426,-3.9309,-3.9176,-3.9032,-3.8895,-3.8779,-3.8739,-3.8758,-3.8798,-3.8779,-3.8805,-3.8844,-3.8844,-3.8844,-3.8844,-3.8844,-3.8844,-3.8844,-3.9008,-3.9027,-3.887,0.0,0.0,0.0,-3.6839,-3.6783,-3.6627,-3.6559,-3.6552,-3.6527,-3.5747,0.0,-3.551,-3.4809,-3.4316,-3.4161,-3.4124,0.0,0.0,0.0,0.0,0.0,0.0,0.0,0.0,0.0,0.0,0.0,-3.3807,-3.3807,-3.3807,-3.3807,-3.3807,-3.3807,-3.3807,-3.3753,-3.3619,-3.3605,-3.3473,-3.3162,-3.3117,-3.3039,-3.2932,-3.2916,-3.2886,-3.2836,-3.2673,-3.254,-3.2421,-3.2231,-3.1985,-3.1674,-3.1598,-3.1502,-3.1249,-3.121,-3.119,-3.119,-3.121,-3.119,-3.119,-3.119,-3.119,-3.119,-3.119,-3.119,-3.119,-3.119,-3.119,-3.119,-3.119,-3.119,-3.119,-3.119,-3.119,-3.119,-3.119,-3.119,-3.119,-3.119,-3.119,-4.3637,0.0,-4.376,-4.3816,0.0,-4.3954,-4.3904,-4.368,-4.2284,-4.1503,-4.1168,-4.1113,-4.0937,-4.0693,-4.0514,-4.0201,-3.9792,-3.9563,-3.9452,-3.9439,-3.935,-3.9331,-3.9452,-3.9452,-3.9502,-3.9587,-3.9606,-3.9606,-3.9599,-3.9587,-3.9606,-3.9587,-3.9682,-3.9701,-3.9599,-3.9811,-3.9388,-3.8399,-3.8286,-3.8044,-3.765,-3.7535,-3.7336,-3.7068,0.0,0.0,0.0,0.0,0.0,0.0,0.0,0.0,0.0,0.0,0.0,-3.3807,-3.3807,-3.3807,-3.3807,-3.3807,-3.3807,-3.3807,-3.3807,-3.3807,-3.3807,-3.3807,-3.3807,-3.3807,-3.3807,-3.3766,-3.3657,-3.3633,-3.3491,-3.3226,-3.315,-3.3057,-3.2932,-3.29,-3.29,-3.29,-3.2787,-3.2706,-3.269,-3.2573,-3.2266,-3.1895,-3.1948,-3.1875,-3.1502,-3.1387,-3.1387,-3.1387,-3.1269,-3.119,-3.119,-3.119,-3.1207,-3.119,-3.119,-3.119,-3.119,-3.119,-3.119,-3.119,-3.119,-3.119,-3.119,-3.119,-3.119,-3.119,-3.119,-3.119,-3.119,-3.119,-3.119,-4.4843,-4.477,-4.4782,-4.4745,-4.4731,-4.4895,-4.5099,-4.5161,0.0,0.0,0.0,-4.2525,-4.2036,-4.1274,-4.1054,-4.0559,-3.9897,-3.957,-3.9489,-3.9635,-3.9477,-3.9489,-3.9665,-3.9665,-3.9728,-3.9889,-3.99,-3.99,-3.99,-3.99,-3.99,-3.99,-3.99,-3.99,-3.99,-3.99,-3.99,-3.9889,-3.9735,-3.9338,-3.8671,-3.85,-3.8096,-3.7446,-3.7277,-3.7209,-3.7154,-3.6337,-3.5864,-3.581,-3.4853,-3.4334,-3.4321,-3.4,-3.3807,-3.3807,-3.3807,-3.3807,-3.3807,-3.3807,-3.3807,-3.3807,-3.3807,-3.3807,-3.3807,-3.3807,-3.3807,-3.3807,-3.3807,-3.378,-3.3712,-3.3647,-3.3538,-3.3337,-3.3214,-3.3088,-3.2948,-3.2916,-3.2916,-3.29,-3.29,-3.29,-3.29,-3.2866,-3.2721,-3.2266,-3.2301,-3.2423,-3.2014,-3.1776,-3.1627,-3.1705,-3.1616,-3.1461,-3.1579,-3.1664,-3.1596,-3.1698,-3.1664,-3.1579,-3.1579,-3.1596,-3.1546,-3.1444,-3.1396,-3.1362,-3.1224,-3.119,-3.119,-3.119,-3.119,-3.119,-3.119,-3.119,-3.119,-4.4516,-4.3895,-4.3942,-4.354,-4.2935,-4.3751,-4.4478,-4.503,-4.4146,-4.3243,-4.2447,-4.2424,-4.1969,-4.1211,-4.1166,-4.0711,-3.9919,-3.9845,-3.9826,0.0,-3.9815,-3.9815,-3.9867,-3.9867,-3.9878,-3.99,-3.99,-3.99,-3.99,-3.99,-3.99,-3.99,-3.99,-3.99,-3.99,-3.99,-3.99,-3.99,-3.9859,-3.981,-3.9697,-3.9675,-3.9607,-3.9455,-3.8785,-3.8372,-3.8199,-3.7416,-3.6904,-3.6706,-3.5752,-3.523,-3.518,-3.4326,-3.3807,-3.3807,-3.3807,-3.3807,-3.3825,-3.3807,-3.3807,-3.3807,-3.3807,-3.3807,-3.3807,-3.3807,-3.3807,-3.3807,-3.3807,-3.3762,-3.3712,-3.3629,-3.3549,-3.3444,-3.334,-3.3201,-3.3082,-3.3086,-3.3071,-3.3041,-3.29,-3.2971,-3.3059,-3.3007,-3.293,-3.2576,-3.2702,-3.2737,-3.3002,-3.2311,-3.1848,-3.2091,-3.2181,-3.2429,-3.2822,-3.3068,-3.2966,-3.3085,-3.2983,-3.2916,-3.2899,-3.2899,-3.2713,-3.2242,-3.2158,-3.1938,-3.1427,-3.119,-3.1258,-3.1275,-3.1258,-3.119,-3.119,-3.119,-3.119,-4.477,-4.4367,-4.3973,-4.3586,-4.3198,-4.3197,-4.3379,-4.3707,-4.3802,-4.3844,-4.3786,-4.3334,-4.2647,-4.1832,-4.1397,-4.0715,-3.99,-3.99,-3.99,-3.99,-3.99,-3.99,-3.99,-3.99,-3.99,-3.99,-3.99,-3.99,-3.99,-3.99,-3.99,-3.99,-3.99,-3.99,-3.99,-3.99,-3.99,-3.99,-3.99,-3.99,-3.99,-3.99,-3.99,-3.99,-3.9532,-3.931,-3.9214,-3.8343,-3.7811,-3.7711,-3.664,-3.6051,-3.6033,-3.5487,-3.5147,-3.5147,-3.5147,-3.5165,-3.5147,-3.5147,-3.5165,-3.5147,-3.5147,-3.5147,-3.5165,-3.4321,-3.3807,-3.3807,-3.3807,-3.3775,-3.3748,-3.3698,-3.3783,-3.4138,-3.4075,-3.4138,-3.4405,-3.4397,-3.4347,-3.4315,-3.4284,-3.4251,-3.4269,-3.4184,-3.405,-3.3793,-3.3741,-3.39,-3.4217,-3.3774,-3.3396,-3.3576,-3.3392,-3.3328,-3.3646,-3.3511,-3.341,-3.3389,-3.3389,-3.3389,-3.3389,-3.3406,-3.3271,-3.2983,-3.2899,-3.2763,-3.2391,-3.2036,-3.187,-3.1769,-3.1427,-3.1241,-3.119,-3.119,-3.119,-4.4851,-4.4387,-4.3988,-4.3817,-4.3734,-4.274,-4.2493,-4.2829,-4.3323,-4.3882,-4.4296,-4.3895,-4.3133,-4.2098,-4.1473,-4.0715,-3.9976,-3.99,-3.99,-3.99,-3.99,-3.99,-3.99,-3.99,-3.99,-3.99,-3.99,-3.99,-3.99,-3.99,-3.99,-3.99,-3.99,-3.99,-3.99,-3.99,-3.99,-3.99,-3.99,-3.99,-3.99,-3.99,-3.99,-3.99,-3.99,-3.99,-3.9851,-3.9146,-3.8731,-3.869,-3.7592,-3.6933,-3.692,-3.6533,-3.6285,-3.6285,-3.6285,-3.6285,-3.6285,-3.6285,-3.6285,-3.6285,-3.6285,-3.6285,-3.6193,-3.5128,-3.4357,-3.4357,-3.4431,-3.4412,-3.4435,-3.4344,-3.4475,-3.5002,-3.4993,-3.5108,-3.5625,-3.5638,-3.5553,-3.5539,-3.5476,-3.5358,-3.5376,-3.5273,-3.5064,-3.4854,-3.5031,-3.5155,-3.5172,-3.5278,-3.542,-3.5258,-3.4739,-3.4283,-3.4332,-3.418,-3.4003,-3.3914,-3.3943,-3.4032,-3.4015,-3.3947,-3.3795,-3.3744,-3.3643,-3.3508,-3.3389,-3.2949,-3.2594,-3.251,-3.2188,-3.1799,-3.1833,-3.1833,-3.1546,-4.4227,-4.3047,-4.3637,-4.3885,-4.3675,-4.2142,-4.2294,-4.3455,-4.3006,-4.2718,-4.2807,-4.3402,-4.2773,-4.1446,-4.1207,-4.0696,-3.9919,-3.99,-3.99,-3.99,-3.99,-3.99,-3.99,-3.99,-3.99,-3.99,-3.99,-3.99,-3.99,-3.99,-3.99,-3.99,-3.99,-3.99,-3.99,-3.99,-3.99,-3.99,-3.99,-3.99,-3.99,-3.99,-3.99,-3.99,-3.99,-3.99,-3.99,-3.9832,-3.9746,-3.9686,-3.8588,-3.7947,-3.7865,-3.6925,-3.6321,-3.634,-3.6321,-3.6285,-3.6321,-3.6285,-3.6358,-3.6285,-3.6376,-3.6376,-3.6376,-3.6193,-3.6064,-3.6046,-3.6046,-3.5936,-3.6046,-3.5897,-3.5802,-3.5948,-3.5914,-3.5876,-3.5981,-3.5812,-3.5734,-3.5688,-3.5723,-3.5429,-3.559,-3.5487,-3.5311,-3.5402,-3.5865,-3.6203,-3.6257,-3.6684,-3.7058,-3.6912,-3.599,-3.5308,-3.5582,-3.5606,-3.526,-3.5267,-3.5351,-3.5233,-3.5165,-3.516,-3.5194,-3.4489,-3.4387,-3.4201,-3.3761,-3.3305,-3.3339,-3.3271,-3.3152,-3.3102,-3.3148,-3.3068,-3.2628,-4.4843,-4.413,-4.3958,-4.3586,-4.3039,-4.2343,-4.2457,-4.3039,-4.2743,-4.2332,-4.1912,-4.2164,-4.1862,-4.1181,-4.0658,-4.0222,-3.9919,-3.99,-3.99,-3.99,-3.99,-3.99,-3.99,-3.99,-3.99,-3.99,-3.99,-3.99,-3.99,-3.99,-3.99,-3.99,-3.99,-3.99,-3.99,-3.99,-3.99,-3.99,-3.99,-3.99,-3.99,-3.99,-3.99,-3.99,-3.99,-3.99,-3.99,-3.99,-3.99,-3.9859,-3.9176,-3.8825,-3.8812,-3.8108,-3.7716,-3.7716,-3.7716,-3.7716,-3.7716,-3.7716,-3.7716,-3.7734,-3.7716,-3.7716,-3.7716,-3.7716,-3.7734,-3.7624,-3.6853,-3.6285,-3.6321,-3.6256,-3.6388,-3.6791,-3.6845,-3.693,-3.7393,-3.7339,-3.7261,-3.7229,-3.703,-3.6841,-3.6859,-3.6737,-3.6631,-3.6631,-3.6934,-3.7059,-3.7131,-3.7416,-3.7559,-3.7504,-3.6789,-3.6324,-3.6361,-3.6097,-3.5854,-3.5694,-3.5783,-3.5854,-3.5644,-3.5616,-3.5447,-3.5165,-3.5115,-3.503,-3.4861,-3.4286,-3.4049,-3.3998,-3.3592,-3.3389,-3.3389,-3.3389,-3.3051,-4.555,-4.5182,-4.435,-4.3738,-4.3325,-4.2609,-4.2465,-4.255,-4.2188,-4.1758,-4.1385,-4.1108,-4.1102,-4.1122,-4.0342,-3.9941,-3.9922,-3.9911,-3.99,-3.99,-3.99,-3.99,-3.99,-3.99,-3.99,-3.99,-3.99,-3.99,-3.99,-3.99,-3.99,-3.99,-3.99,-3.99,-3.99,-3.99,-3.99,-3.99,-3.99,-3.99,-3.99,-3.99,-3.99,-3.99,-3.99,-3.99,-3.99,-3.99,-3.99,-3.9889,-3.9514,-3.9311,-3.9285,-3.8921,-3.8707,-3.8707,-3.8707,-3.8707,-3.8707,-3.8707,-3.8707,-3.8707,-3.8707,-3.8707,-3.8707,-3.8707,-3.8707,-3.8579,-3.7643,-3.7,-3.6945,-3.6945,-3.7221,-3.7753,-3.7729,-3.7973,-3.8431,-3.8435,-3.8267,-3.8305,-3.791,-3.7882,-3.7811,-3.7632,-3.7488,-3.7506,-3.7541,-3.7595,-3.7595,-3.7595,-3.7595,-3.7577,-3.7299,-3.7013,-3.6756,-3.6451,-3.6135,-3.5898,-3.5963,-3.5941,-3.5689,-3.5622,-3.5616,-3.5397,-3.5549,-3.5549,-3.5312,-3.4979,-3.4759,-3.4692,-3.437,-3.3998,-3.4197,-3.4049,-3.3931,-4.6196,-4.54,-4.4537,-4.4605,-4.5084,-4.287,-4.223,-4.2948,-4.1284,-4.0874,-4.1388,-4.0653,-4.07,-4.1258,-4.0389,-3.9996,-3.9986,-3.9922,-3.99,-3.99,-3.99,-3.99,-3.99,-3.99,-3.99,-3.99,-3.99,-3.99,-3.99,-3.99,-3.99,-3.99,-3.99,-3.99,-3.99,-3.99,-3.99,-3.99,-3.99,-3.99,-3.99,-3.99,-3.99,-3.99,-3.99,-3.99,-3.99,-3.99,-3.9889,-3.9889,-3.9514,-3.9298,-3.924,-3.8906,-3.8707,-3.8707,-3.8707,-3.8707,-3.8707,-3.8707,-3.8707,-3.8707,-3.8707,-3.8707,-3.8707,-3.8707,-3.8707,-3.8689,-3.8524,-3.8414,-3.8414,-3.8303,-3.8414,-3.8524,-3.8582,-3.86,-3.8655,-3.8515,-3.8399,-3.8334,-3.8105,-3.7846,-3.7667,-3.7595,-3.7595,-3.7595,-3.7595,-3.7595,-3.7595,-3.7595,-3.7595,-3.754,-3.7354,-3.7091,-3.7032,-3.6796,-3.6454,-3.6241,-3.6135,-3.6071,-3.5805,-3.5616,-3.5622,-3.5622,-3.5622,-3.5622,-3.5583,-3.5549,-3.5447,-3.538,-3.5346,-3.5177,-3.4957,-3.5346,-3.516,-4.5736,-4.541,-4.5103,-4.5141,-4.5295,-4.4422,-4.4547,-4.5103,-4.3513,-4.2938,-4.29,-4.1705,-4.096,-4.0683,-4.0291,-4.0087,-3.9996,-3.9933,-3.99,-3.99,-3.99,-3.99,-3.99,-3.99,-3.99,-3.99,-3.99,-3.99,-3.99,-3.99,-3.99,-3.99,-3.99,-3.99,-3.99,-3.99,-3.99,-3.99,-3.99,-3.99,-3.99,-3.99,-3.99,-3.99,-3.99,-3.99,-3.99,-3.99,-3.9826,-3.9712,-3.9439,-3.9245,-3.9101,-3.8851,-3.8707,-3.8707,-3.8707,-3.8707,-3.8707,-3.8707,-3.8707,-3.8707,-3.8707,-3.8707,-3.8707,-3.8707,-3.8707,-3.8707,-3.8707,-3.8707,-3.8707,-3.8707,-3.8707,-3.8707,-3.8707,-3.8707,-3.8658,-3.8512,-3.8399,-3.8334,-3.8122,-3.781,-3.7667,-3.7595,-3.7595,-3.7595,-3.7595,-3.7595,-3.7595,-3.7595,-3.7595,-3.7577,-3.7503,-3.7429,-3.7429,-3.7147,-3.6836,-3.6655,-3.6512,-3.6512,-3.6346,-3.6006,-3.5963,-3.5898,-3.5827,-3.5644,-3.5627,-3.56,-3.5616,-3.5616,-3.5616,-3.5616,-3.56,-3.5616,-3.5498,-4.5926,-4.5879,-4.5889,-4.5706,-4.5428,-4.5169,-4.5361,-4.5726,-4.4431,-4.3942,-4.3866,-4.265,-4.1827,-4.1503,-4.118,-4.0987,-4.08,-4.0271,-3.9962,-3.9933,-3.9933,-3.9922,-3.99,-3.99,-3.99,-3.99,-3.99,-3.99,-3.99,-3.99,-3.99,-3.99,-3.99,-3.99,-3.99,-3.99,-3.99,-3.99,-3.99,-3.99,-3.99,-3.99,-3.99,-3.99,-3.99,-3.99,-3.99,-3.99,-3.9837,-3.9689,-3.9433,-3.9197,-3.8935,-3.8762,-3.8707,-3.8707,-3.8707,-3.8707,-3.8707,-3.8707,-3.8707,-3.8707,-3.8707,-3.8707,-3.8707,-3.8707,-3.8707,-3.8707,-3.8707,-3.8707,-3.8707,-3.8707,-3.8707,-3.8707,-3.8707,-3.8707,-3.8692,-3.853,-3.8366,-3.8236,-3.8054,-3.7828,-3.7685,-3.7613,-3.7595,-3.7595,-3.7595,-3.7595,-3.7595,-3.7595,-3.7595,-3.7595,-3.7595,-3.7558,-3.754,-3.7373,-3.7127,-3.6935,-3.6836,-3.6856,-3.6756,-3.6433,-3.6245,-3.6182,-3.6028,-3.5783,-3.5667,-3.5622,-3.5616,-3.5616,-3.5616,-3.5616,-3.5616,-3.5616,-3.5515,-4.6827,-4.6741,-4.6865,-4.6269,-4.5519,-4.4827,-4.4406,-4.4543,-4.3679,-4.3768,-4.423,-4.33,-4.3177,-4.3541,-4.2805,-4.2631,-4.2227,-4.1004,-4.0352,-4.0262,-4.0224,-4.0173,-4.0149,-4.0081,-3.9957,-3.99,-3.99,-3.99,-3.99,-3.99,-3.99,-3.99,-3.99,-3.99,-3.99,-3.99,-3.99,-3.99,-3.99,-3.99,-3.99,-3.99,-3.99,-3.99,-3.99,-3.99,-3.99,-3.99,-3.9889,-3.9815,-3.9502,-3.9115,-3.8795,-3.8689,-3.8707,-3.8707,-3.8707,-3.8707,-3.8707,-3.8707,-3.8707,-3.8707,-3.8707,-3.8707,-3.8707,-3.8707,-3.8707,-3.8707,-3.8707,-3.8707,-3.8707,-3.8707,-3.8707,-3.8707,-3.8707,-3.8707,-3.8658,-3.8512,-3.8302,-3.8086,-3.7951,-3.7864,-3.7739,-3.7649,-3.7595,-3.7595,-3.7595,-3.7595,-3.7595,-3.7595,-3.7595,-3.7595,-3.7595,-3.7595,-3.7595,-3.7577,-3.7374,-3.7204,-3.7147,-3.7091,-3.6952,-3.6716,-3.6635,-3.6553,-3.6182,-3.5941,-3.5744,-3.5717,-3.5622,-3.5616,-3.5616,-3.5616,-3.5616,-3.5616,-3.5616,-4.6009,-4.6009,-4.599,-4.5864,-4.5575,-4.5306,-4.5519,-4.5972,-4.5164,-4.4944,-4.4965,-4.4246,-4.3701,-4.3357,-4.2994,-4.2843,-4.2718,-4.2173,-4.1894,-4.181,-4.18,-4.1721,-4.1605,-4.1125,-4.0512,-3.9976,-3.99,-3.99,-3.9919,-3.99,-3.99,-3.99,-3.99,-3.99,-3.99,-3.99,-3.99,-3.99,-3.99,-3.99,-3.99,-3.99,-3.99,-3.99,-3.99,-3.99,-3.99,-3.99,-3.9826,-3.9693,-3.9439,-3.9115,-3.8795,-3.8707,-3.8707,-3.8707,-3.8707,-3.8707,-3.8707,-3.8707,-3.8707,-3.8707,-3.8707,-3.8707,-3.8707,-3.8707,-3.8707,-3.8707,-3.8707,-3.8707,-3.8707,-3.8707,-3.8707,-3.8707,-3.8707,-3.8707,-3.8658,-3.8512,-3.83,-3.8085,-3.795,-3.7846,-3.7721,-3.7649,-3.7595,-3.7595,-3.7595,-3.7595,-3.7595,-3.7595,-3.7595,-3.7595,-3.7595,-3.7595,-3.7595,-3.7595,-3.7503,-3.7393,-3.7355,-3.7318,-3.7166,-3.705,-3.6992,-3.6776,-3.6451,-3.6156,-3.5963,-3.5788,-3.5717,-3.5622,-3.5616,-3.5616,-3.5616,-3.5616,-3.5616,-4.5594,-4.5594,-4.5594,-4.5594,-4.5594,-4.5594,-4.5893,-4.6297,-4.5845,-4.5594,-4.547,-4.504,-4.4475,-4.4006,-4.3893,-4.3837,-4.3771,-4.3762,-4.3732,-4.3479,-4.2845,-4.2642,-4.2563,-4.2083,-4.1518,-4.0943,-4.0599,-4.0426,-4.0417,-4.0063,-3.99,-3.99,-3.99,-3.99,-3.99,-3.99,-3.99,-3.99,-3.99,-3.99,-3.99,-3.99,-3.99,-3.99,-3.99,-3.99,-3.99,-3.99,-3.9837,-3.9689,-3.9452,-3.9115,-3.875,-3.8707,-3.8707,-3.8707,-3.8707,-3.8707,-3.8707,-3.8707,-3.8707,-3.8707,-3.8707,-3.8707,-3.8707,-3.8707,-3.8707,-3.8707,-3.8707,-3.8707,-3.8707,-3.8707,-3.8707,-3.8707,-3.8707,-3.8673,-3.8609,-3.8496,-3.8334,-3.817,-3.802,-3.7881,-3.7793,-3.7649,-3.7595,-3.7595,-3.7595,-3.7595,-3.7595,-3.7595,-3.7595,-3.7595,-3.7595,-3.7595,-3.7595,-3.7595,-3.7595,-3.7558,-3.754,-3.7522,-3.7448,-3.7373,-3.7298,-3.705,-3.6756,-3.6409,-3.6182,-3.5968,-3.5832,-3.5739,-3.5644,-3.5616,-3.5616,-3.5616,-3.5616,-4.5594,-4.5594,-4.5594,-4.5594,-4.5594,-4.5594,-4.5633,-4.5633,-4.5614,-4.5594,-4.5575,-4.5509,-4.5472,-4.5436,-4.5216,-4.5188,-4.5362,-4.5199,-4.5113,-4.4738,-4.3827,-4.3058,-4.2824,-4.2707,-4.2533,-4.2275,-4.1681,-4.1317,-4.1127,-4.0485,-3.9949,-3.9941,-3.9922,-3.9911,-3.9911,-3.99,-3.99,-3.99,-3.99,-3.99,-3.99,-3.99,-3.99,-3.99,-3.99,-3.99,-3.99,-3.99,-3.9889,-3.9804,-3.9464,-3.9129,-3.8795,-3.8707,-3.8707,-3.8707,-3.8707,-3.8707,-3.8707,-3.8707,-3.8707,-3.8707,-3.8707,-3.8707,-3.8707,-3.8707,-3.8707,-3.8707,-3.8707,-3.8707,-3.8707,-3.8707,-3.8707,-3.8707,-3.8707,-3.8658,-3.8544,-3.8446,-3.8368,-3.8272,-3.8089,-3.7917,-3.7881,-3.7721,-3.7631,-3.7595,-3.7595,-3.7595,-3.7595,-3.7595,-3.7595,-3.7595,-3.7595,-3.7595,-3.7595,-3.7595,-3.7595,-3.7595,-3.7595,-3.7595,-3.7595,-3.754,-3.7503,-3.728,-3.705,-3.6716,-3.6454,-3.6266,-3.6011,-3.5832,-3.5739,-3.5644,-3.56,-3.56,-3.5622,-4.5594,-4.5594,-4.5594,-4.5594,-4.5594,-4.5594,-4.5594,-4.5594,-4.5594,-4.5594,-4.5594,-4.5594,-4.5586,-4.5558,-4.5568,-4.5531,-4.5475,-4.5466,-4.5438,-4.5343,-4.5007,-4.4268,-4.3757,-4.3562,-4.3234,-4.2726,-4.2438,-4.1971,-4.14,-4.1094,-4.0665,-4.0065,-4.0005,-3.9994,-3.9965,-3.9922,-3.99,-3.99,-3.99,-3.99,-3.99,-3.99,-3.99,-3.99,-3.99,-3.99,-3.99,-3.99,-3.9747,-3.9477,-3.9357,-3.9129,-3.8765,-3.8723,-3.8723,-3.8707,-3.8707,-3.8707,-3.8707,-3.8707,-3.8707,-3.8707,-3.8707,-3.8707,-3.8707,-3.8707,-3.8707,-3.8707,-3.8707,-3.8707,-3.8707,-3.8707,-3.8707,-3.8707,-3.8707,-3.8692,-3.8609,-3.8496,-3.8401,-3.8352,-3.8119,-3.7985,-3.7899,-3.7775,-3.7667,-3.7613,-3.7595,-3.7595,-3.7595,-3.7595,-3.7595,-3.7595,-3.7595,-3.7595,-3.7595,-3.7595,-3.7595,-3.7595,-3.7595,-3.7595,-3.7595,-3.7577,-3.7558,-3.7485,-3.7261,-3.6954,-3.6816,-3.6676,-3.635,-3.6011,-3.5985,-3.5958,-3.5711,-3.5622,-3.5622,-4.5817,-4.6105,-4.5768,-4.5594,-4.5594,-4.5594,-4.5594,-4.5594,-4.5594,-4.5594,-4.5594,-4.5594,-4.5594,-4.5594,-4.5594,-4.5558,-4.555,-4.5531,-4.5724,-4.6119,-4.6388,-4.5812,-4.4881,-4.4535,-4.4246,-4.3774,-4.3353,-4.294,-4.2385,-4.1785,-4.1136,-4.0658,-4.0238,-4.0046,-4.0046,-3.9975,-3.9962,-3.9933,-3.9911,-3.99,-3.99,-3.99,-3.99,-3.99,-3.99,-3.99,-3.99,-3.99,-3.9747,-3.9502,-3.9395,-3.9245,-3.8862,-3.8822,-3.8795,-3.8704,-3.8707,-3.8707,-3.8707,-3.8707,-3.8707,-3.8707,-3.8707,-3.8707,-3.8707,-3.8707,-3.8707,-3.8707,-3.8707,-3.8707,-3.8707,-3.8707,-3.8707,-3.8707,-3.8707,-3.8707,-3.8707,-3.8544,-3.843,-3.835,-3.8203,-3.8018,-3.7951,-3.781,-3.7721,-3.7667,-3.7613,-3.7613,-3.7595,-3.7595,-3.7595,-3.7595,-3.7595,-3.7595,-3.7595,-3.7595,-3.7595,-3.7595,-3.7595,-3.7595,-3.7595,-3.7595,-3.7595,-3.754,-3.7393,-3.7261,-3.7091,-3.6935,-3.6716,-3.6454,-3.6371,-3.6199,-3.5941,-3.5739,-3.5717,-4.6067,-4.6682,-4.5932,-4.5594,-4.5594,-4.5594,-4.5594,-4.5594,-4.5594,-4.5594,-4.5594,-4.5594,-4.5594,-4.5594,-4.5594,-4.5643,-4.5778,-4.5855,-4.6346,-4.6962,-4.7444,-4.7108,-4.5937,-4.5572,-4.5466,-4.5245,-4.4573,-4.418,-4.368,-4.2503,-4.1653,-4.1253,-4.0623,-4.0222,-4.0125,-4.0027,-4.0015,-3.9975,-3.9922,-3.99,-3.99,-3.99,-3.99,-3.99,-3.99,-3.99,-3.99,-3.987,-3.9804,-3.9654,-3.963,-3.9376,-3.9041,-3.8989,-3.891,-3.8735,-3.8707,-3.8707,-3.8707,-3.8707,-3.8707,-3.8707,-3.8707,-3.8707,-3.8707,-3.8707,-3.8707,-3.8707,-3.8707,-3.8707,-3.8707,-3.8707,-3.8707,-3.8707,-3.8707,-3.8707,-3.8692,-3.8593,-3.8478,-3.8415,-3.8218,-3.8119,-3.8001,-3.7862,-3.7721,-3.7667,-3.7649,-3.7631,-3.7613,-3.7595,-3.7595,-3.7595,-3.7595,-3.7595,-3.7595,-3.7595,-3.7595,-3.7595,-3.7595,-3.7595,-3.7595,-3.7595,-3.7595,-3.754,-3.7485,-3.7374,-3.7261,-3.7091,-3.6954,-3.6816,-3.6696,-3.6471,-3.6262,-3.6049,-3.5941,-4.571,-4.5855,-4.5691,-4.5594,-4.5594,-4.5594,-4.5614,-4.5633,-4.5614,-4.5671,-4.5614,-4.5614,-4.5652,-4.5671,-4.5787,-4.5932,-4.6605,-4.6701,-4.7077,-4.7798,-4.7981,-4.7971,-4.7319,-4.681,-4.6474,-4.6243,-4.5534,-4.517,-4.4873,-4.4077,-4.2862,-4.1695,-4.1323,-4.0835,-4.0233,-4.0067,-4.0015,-4.0005,-3.9933,-3.99,-3.99,-3.99,-3.99,-3.99,-3.99,-3.99,-3.99,-3.99,-3.9878,-3.9804,-3.9658,-3.9421,-3.911,-3.9017,-3.8921,-3.875,-3.8707,-3.8707,-3.8707,-3.8707,-3.8707,-3.8707,-3.8707,-3.8707,-3.8707,-3.8707,-3.8707,-3.8707,-3.8707,-3.8707,-3.8707,-3.8707,-3.8707,-3.8707,-3.8707,-3.8707,-3.8673,-3.8575,-3.851,-3.8446,-3.8334,-3.8204,-3.8085,-3.8001,-3.788,-3.7739,-3.7685,-3.7667,-3.7631,-3.7613,-3.7595,-3.7613,-3.7595,-3.7595,-3.7595,-3.7595,-3.7595,-3.7595,-3.7595,-3.7595,-3.7595,-3.7595,-3.7595,-3.7595,-3.7577,-3.7485,-3.7374,-3.7393,-3.7299,-3.7147,-3.6992,-3.6796,-3.6594,-3.6371,-3.6161,-4.6432,-4.6663,-4.5941,-4.5845,-4.6163,-4.622,-4.622,-4.6201,-4.6201,-4.622,-4.622,-4.6201,-4.6413,-4.6759,-4.6778,-4.7086,-4.749,-4.7913,-4.8048,-4.8375,-4.8779,-4.8894,-4.8231,-4.802,-4.7809,-4.7376,-4.6935,-4.6695,-4.6369,-4.541,-4.4097,-4.2794,-4.2039,-4.1065,-4.0368,-4.0137,-4.0076,-4.0036,-3.9943,-3.99,-3.99,-3.99,-3.99,-3.99,-3.99,-3.99,-3.99,-3.99,-3.99,-3.9878,-3.9781,-3.9551,-3.9219,-3.9124,-3.9007,-3.8765,-3.8707,-3.8707,-3.8707,-3.8707,-3.8707,-3.8707,-3.8707,-3.8707,-3.8707,-3.8707,-3.8707,-3.8707,-3.8707,-3.8707,-3.8707,-3.8707,-3.8707,-3.8707,-3.8707,-3.8707,-3.8673,-3.8624,-3.8559,-3.8528,-3.843,-3.8336,-3.8238,-3.8119,-3.8018,-3.7862,-3.781,-3.7775,-3.7667,-3.7649,-3.7631,-3.7613,-3.7595,-3.7595,-3.7595,-3.7595,-3.7595,-3.7595,-3.7595,-3.7595,-3.7595,-3.7595,-3.7595,-3.7595,-3.7595,-3.7595,-3.7522,-3.7577,-3.7577,-3.7448,-3.7261,-3.7127,-3.6954,-3.6759,-3.6557,-4.7105,-4.7625,-4.6191,-4.6037,-4.6644,-4.6663,-4.6605,-4.6644,-4.6701,-4.6605,-4.6827,-4.6797,-4.6855,-4.7663,-4.774,-4.7952,-4.849,-4.9106,-4.924,-4.899,-4.9904,-4.9721,-4.9067,-4.9154,-4.9173,-4.851,-4.803,-4.7943,-4.7674,-4.6676,-4.5438,-4.4317,-4.3072,-4.2039,-4.1036,-4.0415,-4.0402,-4.042,-4.0089,-3.9911,-3.99,-3.99,-3.99,-3.99,-3.99,-3.99,-3.99,-3.99,-3.99,-3.99,-3.99,-3.9682,-3.9464,-3.9324,-3.9151,-3.8795,-3.878,-3.875,-3.8707,-3.8707,-3.8707,-3.8707,-3.8707,-3.8707,-3.8707,-3.8707,-3.8707,-3.8707,-3.8707,-3.8707,-3.8707,-3.8707,-3.8707,-3.8707,-3.8707,-3.8707,-3.8707,-3.8707,-3.8643,-3.8575,-3.8494,-3.8399,-3.832,-3.8238,-3.8119,-3.8018,-3.7968,-3.7863,-3.7757,-3.7685,-3.7649,-3.7631,-3.7595,-3.7595,-3.7595,-3.7595,-3.7595,-3.7684,-3.7666,-3.7702,-3.7684,-3.7595,-3.7595,-3.7595,-3.7595,-3.7595,-3.7595,-3.7595,-3.7595,-3.7595,-3.754,-3.7355,-3.7242,-3.7129,-3.6935,-4.5902,-4.5998,-4.571,-4.571,-4.5817,-4.5836,-4.5979,-4.5817,-4.6056,-4.6259,-4.6846,-4.624,-4.6567,-4.7124,-4.7154,-4.7855,-4.9183,-4.9933,-5.026,-5.0067,-5.0596,-5.026,-5.0183,-5.0125,-5.026,-4.9894,-4.9096,-4.8635,-4.8827,-4.8135,-4.6742,-4.5524,-4.4825,-4.3877,-4.2365,-4.1657,-4.1185,-4.1087,-4.0596,-4.0239,-4.0176,-4.0071,-3.9957,-3.9938,-3.99,-3.99,-3.99,-3.99,-3.99,-3.99,-3.99,-3.977,-3.9618,-3.9551,-3.935,-3.9059,-3.895,-3.8892,-3.8765,-3.8723,-3.8707,-3.8707,-3.8707,-3.8707,-3.8707,-3.8707,-3.8707,-3.8707,-3.8707,-3.8707,-3.8707,-3.8707,-3.8707,-3.8707,-3.8707,-3.8707,-3.8707,-3.8692,-3.8692,-3.8658,-3.8559,-3.8476,-3.8399,-3.8336,-3.8219,-3.8136,-3.8053,-3.7933,-3.7792,-3.7739,-3.7667,-3.7649,-3.7595,-3.7595,-3.7595,-3.7595,-3.7613,-3.7791,-3.7845,-3.7934,-3.7863,-3.7666,-3.7613,-3.7827,-3.7738,-3.7595,-3.7595,-3.7595,-3.7595,-3.7595,-3.7577,-3.7558,-3.743,-3.7318,-3.7186,-4.7048,-4.6297,-4.6259,-4.6259,-4.6355,-4.6721,-4.6894,-4.6951,-4.7375,-4.7798,-4.799,-4.7798,-4.8029,-4.8682,-4.8856,-4.9394,-4.999,-5.0433,-5.0683,-5.0683,-5.0683,-5.0683,-5.0683,-5.0683,-5.0683,-5.0471,-4.9856,-4.9567,-4.9952,-4.9183,-4.7875,-4.6483,-4.5793,-4.4605,-4.3159,-4.2335,-4.2073,-4.1897,-4.1529,-4.1217,-4.1105,-4.0828,-4.0412,-4.0014,-3.99,-3.99,-3.99,-3.99,-3.99,-3.99,-3.99,-3.9837,-3.9781,-3.9712,-3.9594,-3.9259,-3.9151,-3.9073,-3.8892,-3.8851,-3.884,-3.8723,-3.8707,-3.8707,-3.8707,-3.8707,-3.8707,-3.8707,-3.8707,-3.8707,-3.8707,-3.8707,-3.8707,-3.8707,-3.8707,-3.8707,-3.8707,-3.8707,-3.8707,-3.8707,-3.8658,-3.8559,-3.8476,-3.8415,-3.8318,-3.8236,-3.8171,-3.8018,-3.7862,-3.7792,-3.7757,-3.7775,-3.7756,-3.7791,-3.7809,-3.7845,-3.8023,-3.8148,-3.8094,-3.8183,-3.8308,-3.8219,-3.8219,-3.8326,-3.8112,-3.7773,-3.7595,-3.7595,-3.7595,-3.7595,-3.7595,-3.7577,-3.7558,-3.7485,-3.7355,-4.8355,-4.7154,-4.7154,-4.7135,-4.724,-4.7798,-4.8058,-4.8259,-4.8721,-4.9067,-4.9375,-4.9163,-4.9433,-5.0164,-5.0337,-5.0442,-5.0644,-5.0683,-5.0683,-5.0683,-5.0683,-5.0683,-5.0683,-5.0683,-5.0683,-5.0664,-5.0567,-5.0683,-5.05,-4.9971,-4.8836,-4.7655,-4.6503,-4.5276,-4.4097,-4.3349,-4.3096,-4.283,-4.2596,-4.2473,-4.2234,-4.1624,-4.0904,-4.0203,-3.9995,-3.99,-3.99,-3.99,-3.99,-3.99,-3.99,-3.9889,-3.99,-3.99,-3.9728,-3.9489,-3.9389,-3.9259,-3.911,-3.9059,-3.8993,-3.884,-3.8762,-3.875,-3.8707,-3.8707,-3.8707,-3.8707,-3.8707,-3.8707,-3.8707,-3.8707,-3.8707,-3.8707,-3.8707,-3.8707,-3.8707,-3.8707,-3.8707,-3.8707,-3.8707,-3.8713,-3.8669,-3.8476,-3.8396,-3.8334,-3.8271,-3.8154,-3.8001,-3.7933,-3.7917,-3.7954,-3.7953,-3.8005,-3.8058,-3.8165,-3.8504,-3.895,-3.8719,-3.8611,-3.8808,-3.8949,-3.8878,-3.8736,-3.8415,-3.8076,-3.7863,-3.7631,-3.7595,-3.7595,-3.7595,-3.7595,-3.7577,-3.7558,-3.7503,-4.8144,-4.7971,-4.7962,-4.7971,-4.7952,-4.8086,-4.8135,-4.8182,-4.8375,-4.8702,-4.9471,-4.8759,-4.8952,-4.9567,-4.9721,-5.0067,-5.0491,-5.0683,-5.0683,-5.0683,-5.0683,-5.0683,-5.0683,-5.0683,-5.0683,-5.0683,-5.0683,-5.0683,-5.0654,-5.0519,-5.0,-4.8904,-4.801,-4.7156,-4.5755,-4.4652,-4.3901,-4.3632,-4.3028,-4.2601,-4.2367,-4.1749,-4.1332,-4.0923,-4.0412,-4.0014,-4.0033,-3.9995,-3.99,-3.99,-3.99,-3.99,-3.99,-3.99,-3.9889,-3.9792,-3.9677,-3.9477,-3.9311,-3.9259,-3.9178,-3.9003,-3.8946,-3.8881,-3.8765,-3.8707,-3.8707,-3.8707,-3.8707,-3.8707,-3.8707,-3.8707,-3.8707,-3.8762,-3.8817,-3.8817,-3.8836,-3.9368,-3.9294,-3.9203,-3.9368,-3.9129,-3.897,-3.8687,-3.8476,-3.843,-3.8368,-3.8309,-3.8373,-3.8469,-3.8474,-3.8599,-3.8598,-3.8614,-3.8665,-3.8736,-3.9129,-3.9682,-3.9521,-3.9254,-3.9629,-3.9807,-3.92,-3.9004,-3.8736,-3.8504,-3.8272,-3.8023,-3.7738,-3.7595,-3.7595,-3.7595,-3.7595,-3.7595,-3.7595,-4.899,-4.8163,-4.8625,-4.8529,-4.8182,-4.8606,-4.8836,-4.8933,-4.9375,-4.9779,-5.0029,-4.9779,-4.9827,-5.0058,-5.0144,-5.0346,-5.0654,-5.0683,-5.0683,-5.0683,-5.0683,-5.0683,-5.0683,-5.0683,-5.0683,-5.0683,-5.0683,-5.0683,-5.0683,-5.0606,-5.026,-4.949,-4.8923,-4.7962,-4.6934,-4.5954,-4.525,-4.4723,-4.4178,-4.3703,-4.3229,-4.2796,-4.2356,-4.1851,-4.1056,-4.0677,-4.0468,-4.0089,-3.9919,-3.99,-3.99,-3.99,-3.99,-3.99,-3.9889,-3.9889,-3.9834,-3.9677,-3.9514,-3.9477,-3.9344,-3.9173,-3.9055,-3.8906,-3.875,-3.8707,-3.8707,-3.8707,-3.8707,-3.8726,-3.8762,-3.8707,-3.8707,-3.8799,-3.9203,-3.9331,-3.9515,-3.9958,-4.0215,-4.0102,-3.9992,-3.9811,-3.9554,-3.919,-3.909,-3.9207,-3.9124,-3.9008,-3.9292,-3.9697,-3.9626,-3.9532,-3.9458,-3.9384,-3.9416,-3.9504,-3.9896,-4.036,-4.0521,-4.0414,-4.0753,-4.0699,-4.0057,-3.9718,-3.9682,-3.9343,-3.8861,-3.8255,-3.7809,-3.7684,-3.7595,-3.7595,-3.7595,-3.7595,-3.7577,-4.9942,-4.8836,-4.9452,-4.9356,-4.8817,-4.9471,-4.9721,-4.9817,-5.0356,-5.0673,-5.0683,-5.0635,-5.0635,-5.0683,-5.0654,-5.0635,-5.0683,-5.0683,-5.0683,-5.0683,-5.0683,-5.0683,-5.0683,-5.0683,-5.0683,-5.0683,-5.0683,-5.0683,-5.0683,-5.0625,-5.0356,-4.9702,-4.9385,-4.851,-4.7395,-4.6606,-4.6027,-4.5135,-4.495,-4.4589,-4.4167,-4.3798,-4.3168,-4.2435,-4.1692,-4.1094,-4.079,-4.0298,-3.9919,-3.99,-3.99,-3.99,-3.99,-3.99,-3.99,-3.99,-3.9867,-3.9815,-3.9724,-3.9665,-3.9551,-3.937,-3.9192,-3.9017,-3.8837,-3.8762,-3.8903,-3.9071,-3.8781,-3.8927,-3.9166,-3.9239,-3.9294,-3.9588,-3.9918,-4.0065,-4.0267,-4.0671,-4.082,-4.0655,-4.06,-4.0783,-4.0435,-3.9863,-3.974,-3.9932,-3.9902,-3.9781,-4.0085,-4.0564,-4.06,-4.0398,-4.0089,-4.0158,-4.0618,-4.0703,-4.0989,-4.0967,-4.1127,-4.1163,-4.1252,-4.1217,-4.0806,-4.0628,-4.0538,-4.0307,-3.9896,-3.8843,-3.788,-3.7969,-3.7988,-3.7684,-3.7595,-3.7648,-3.763,-5.0635,-5.0519,-5.0548,-5.0519,-5.0442,-5.0567,-5.0577,-5.0491,-5.0625,-5.0683,-5.0683,-5.0683,-5.0683,-5.0683,-5.0683,-5.0683,-5.0683,-5.0683,-5.0683,-5.0683,-5.0683,-5.0683,-5.0683,-5.0683,-5.0683,-5.0683,-5.0683,-5.0683,-5.0683,-5.0683,-5.0654,-5.0539,-4.9885,-4.8952,-4.7962,-4.7106,-4.6211,-4.5407,-4.5148,-4.5114,-4.473,-4.4266,-4.351,-4.269,-4.1745,-4.0858,-4.0108,-4.0071,-3.9938,-3.9938,-3.99,-3.99,-3.99,-3.99,-3.99,-3.99,-4.0089,-4.0011,-3.9902,-3.9804,-3.9758,-3.9575,-3.957,-3.9503,-3.9239,-3.91,-3.9276,-3.9734,-3.9399,-3.9598,-4.006,-4.0377,-3.9955,-4.0377,-4.0671,-4.0928,-4.1093,-4.1258,-4.137,-4.1187,-4.1297,-4.1609,-4.1664,-4.1185,-4.0781,-4.0952,-4.1179,-4.1075,-4.0772,-4.107,-4.127,-4.116,-4.0724,-4.0972,-4.1914,-4.2018,-4.1656,-4.1506,-4.1594,-4.1431,-4.1306,-4.1234,-4.1377,-4.1288,-4.1145,-4.1056,-4.0842,-3.986,-3.9058,-3.8647,-3.8362,-3.8148,-3.813,-3.8255,-3.8059,-5.073,-5.0693,-5.0683,-5.0683,-5.0683,-5.0683,-5.0683,-5.0683,-5.0683,-5.0683,-5.0683,-5.0683,-5.0683,-5.0683,-5.0683,-5.0683,-5.0683,-5.0683,-5.0683,-5.0683,-5.0683,-5.0683,-5.0683,-5.0683,-5.0683,-5.0683,-5.0683,-5.0683,-5.0683,-5.0683,-5.0683,-5.0529,-5.026,-4.9673,-4.875,-4.7462,-4.6328,-4.5606,-4.5284,-4.5222,-4.509,-4.4874,-4.441,-4.4041,-4.3251,-4.2371,-4.1579,-4.0961,-4.0468,-4.0089,-3.9995,-3.9995,-3.9976,-3.9976,-3.9938,-3.9995,-4.0298,-4.0374,-4.0033,-3.9927,-3.9804,-3.9917,-4.0353,-4.0682,-4.0052,-4.0356,-4.0719,-4.0736,-4.0185,-4.0295,-4.0889,-4.0525,-4.012,-4.091,-4.146,-4.1754,-4.1937,-4.2084,-4.2213,-4.2158,-4.2433,-4.2763,-4.2727,-4.2616,-4.2231,-4.1976,-4.2201,-4.2298,-4.1919,-4.1704,-4.1942,-4.205,-4.1667,-4.1537,-4.2411,-4.235,-4.2109,-4.2067,-4.2024,-4.1843,-4.1665,-4.1841,-4.193,-4.1841,-4.177,-4.1698,-4.1395,-4.0806,-4.011,-3.9343,-3.895,-3.8719,-3.8754,-3.8843,-3.8647,-5.0763,-5.073,-5.0721,-5.0683,-5.0683,-5.0683,-5.0683,-5.0683,-5.0683,-5.0683,-5.0683,-5.0683,-5.0683,-5.0683,-5.0683,-5.0683,-5.0683,-5.0683,-5.0683,-5.0683,-5.0683,-5.0683,-5.0683,-5.0683,-5.0683,-5.0683,-5.0683,-5.0683,-5.0683,-5.0683,-5.0683,-5.0683,-5.0625,-5.0086,-4.9154,-4.7923,-4.6666,-4.5983,-4.5712,-4.547,-4.5341,-4.5132,-4.4782,-4.4566,-4.3897,-4.3225,-4.2401,-4.1783,-4.1362,-4.0991,-4.0753,-4.0563,-4.0412,-4.0241,-4.0127,-4.0279,-4.0563,-4.0847,-4.0506,-4.0287,-4.0223,-4.0377,-4.1297,-4.1387,-4.1184,-4.1451,-4.171,-4.1992,-4.1305,-4.1055,-4.1846,-4.1554,-4.1358,-4.2132,-4.2413,-4.2671,-4.2745,-4.2873,-4.3075,-4.3185,-4.3351,-4.3313,-4.324,-4.3094,-4.2947,-4.269,-4.282,-4.2898,-4.2719,-4.263,-4.2777,-4.2832,-4.2685,-4.2644,-4.2728,-4.256,-4.241,-4.2286,-4.2282,-4.2277,-4.2221,-4.2308,-4.2308,-4.2147,-4.2129,-4.2272,-4.1877,-4.1234,-4.0538,-3.9807,-3.9539,-3.9307,-3.9325,-3.9397,-3.9397,-5.0803,-5.0778,-5.073,-5.0693,-5.0693,-5.0683,-5.0683,-5.0683,-5.0683,-5.0683,-5.0683,-5.0683,-5.0683,-5.0683,-5.0683,-5.0683,-5.0683,-5.0683,-5.0683,-5.0683,-5.0683,-5.0683,-5.0683,-5.0683,-5.0683,-5.0683,-5.0683,-5.0683,-5.0683,-5.0683,-5.0683,-5.0683,-5.0625,-5.026,-4.9385,-4.8539,-4.7597,-4.6809,-4.6635,-4.6231,-4.5807,-4.5562,-4.5061,-4.4647,-4.423,-4.3691,-4.2924,-4.2614,-4.2249,-4.1942,-4.1882,-4.1643,-4.1207,-4.1169,-4.0866,-4.0336,-4.0999,-4.1302,-4.1264,-4.1226,-4.1215,-4.1287,-4.2191,-4.2283,-4.1531,-4.1763,-4.2572,-4.3042,-4.2319,-4.2476,-4.2905,-4.3063,-4.2897,-4.2988,-4.3232,-4.3275,-4.3347,-4.3349,-4.3424,-4.3479,-4.3479,-4.3461,-4.3461,-4.3442,-4.3424,-4.3369,-4.3424,-4.3408,-4.3265,-4.3248,-4.3286,-4.3233,-4.3142,-4.303,-4.2918,-4.2841,-4.2707,-4.2586,-4.2465,-4.2425,-4.2384,-4.2325,-4.2308,-4.2308,-4.2308,-4.2308,-4.2002,-4.1627,-4.1145,-4.0699,-4.0199,-3.9968,-3.9948,-4.0055,-4.0182,-5.0956,-5.0795,-5.0791,-5.0739,-5.0702,-5.0683,-5.0683,-5.0683,-5.0683,-5.0683,-5.0683,-5.0683,-5.0683,-5.0683,-5.0683,-5.0683,-5.0683,-5.0683,-5.0683,-5.0683,-5.0683,-5.0683,-5.0683,-5.0683,-5.0683,-5.0683,-5.0683,-5.0683,-5.0683,-5.0683,-5.0683,-5.0683,-5.0625,-5.0221,-4.9586,-4.8971,-4.852,-4.778,-4.7577,-4.7423,-4.7057,-4.6479,-4.5938,-4.5534,-4.5031,-4.4328,-4.3531,-4.3403,-4.3149,-4.2754,-4.2644,-4.2393,-4.2052,-4.2003,-4.1832,-4.17,-4.2337,-4.3133,-4.3284,-4.3265,-4.2552,-4.2659,-4.3045,-4.3438,-4.2961,-4.351,-4.4002,-4.3963,-4.3318,-4.3548,-4.3943,-4.3341,-4.3137,-4.3495,-4.3675,-4.3577,-4.3545,-4.3477,-4.3479,-4.3479,-4.3479,-4.3479,-4.3479,-4.3479,-4.3479,-4.3479,-4.3479,-4.3479,-4.3389,-4.339,-4.341,-4.3376,-4.3305,-4.3196,-4.3104,-4.2974,-4.286,-4.2725,-4.2586,-4.2483,-4.2425,-4.2366,-4.2308,-4.2308,-4.2308,-4.229,-4.2091,-4.1948,-4.1966,-4.1663,-4.1074,-4.0931,-4.1127,-4.1234,-4.1306,-5.1101,-5.0928,-5.0835,-5.0805,-5.0784,-5.0731,-5.0683,-5.0683,-5.0683,-5.0683,-5.0683,-5.0683,-5.0683,-5.0683,-5.0683,-5.0683,-5.0683,-5.0683,-5.0683,-5.0683,-5.0683,-5.0683,-5.0683,-5.0683,-5.0683,-5.0683,-5.0683,-5.0683,-5.0683,-5.0683,-5.0683,-5.0683,-5.0683,-5.0423,-4.999,-4.9779,-4.9442,-4.8769,-4.85,-4.826,-4.7855,-4.7393,-4.6882,-4.6449,-4.5918,-4.5273,-4.4636,-4.4238,-4.4011,-4.3483,-4.3266,-4.3106,-4.2962,-4.2848,-4.2716,-4.2773,-4.3208,-4.4004,-4.4364,-4.4402,-4.3758,-4.35,-4.4421,-4.4421,-4.4061,-4.4264,-4.4599,-4.4568,-4.4184,-4.4246,-4.4329,-4.3615,-4.3693,-4.4079,-4.3974,-4.386,-4.3795,-4.3747,-4.3632,-4.3615,-4.3496,-4.3496,-4.3496,-4.3479,-4.3479,-4.3479,-4.3479,-4.3479,-4.3479,-4.3497,-4.348,-4.3446,-4.3412,-4.3323,-4.3196,-4.3086,-4.2974,-4.2879,-4.2725,-4.2604,-4.2483,-4.2425,-4.2366,-4.229,-4.2308,-4.2308,-4.2308,-4.2254,-4.2162,-4.2073,-4.1805,-4.1877,-4.2272,-4.2162,-4.2002,-5.1214,-5.1167,-5.092,-5.0883,-5.0966,-5.0784,-5.0702,-5.0693,-5.0683,-5.0683,-5.0683,-5.0683,-5.0683,-5.0683,-5.0683,-5.0683,-5.0683,-5.0683,-5.0683,-5.0683,-5.0683,-5.0683,-5.0683,-5.0683,-5.0683,-5.0683,-5.0683,-5.0683,-5.0683,-5.0683,-5.0683,-5.0683,-5.0683,-5.0577,-5.0519,-5.0394,-5.0067,-4.9587,-4.9375,-4.9106,-4.8721,-4.8211,-4.7749,-4.7297,-4.6797,-4.6171,-4.5611,-4.5213,-4.5041,-4.484,-4.4801,-4.4367,-4.4028,-4.3758,-4.3208,-4.3038,-4.3493,-4.4194,-4.4706,-4.4743,-4.4743,-4.4421,-4.4706,-4.444,-4.4308,-4.4516,-4.4781,-4.4895,-4.4638,-4.4612,-4.4527,-4.4441,-4.4354,-4.436,-4.424,-4.4166,-4.4106,-4.4014,-4.391,-4.3781,-4.36,-4.3549,-4.3565,-4.3565,-4.3479,-4.3479,-4.3479,-4.3479,-4.3479,-4.3479,-4.3497,-4.3497,-4.3446,-4.3394,-4.3305,-4.3196,-4.3086,-4.2974,-4.2842,-4.2725,-4.2606,-4.2465,-4.2387,-4.2328,-4.2308,-4.2308,-4.2308,-4.2308,-4.229,-4.22,-4.2073,-4.2126,-4.2308,-4.2308,-4.2162,-5.1244,-5.1203,-5.1113,-5.1043,-5.0963,-5.0839,-5.0748,-5.0693,-5.0683,-5.0683,-5.0683,-5.0683,-5.0683,-5.0683,-5.0683,-5.0683,-5.0683,-5.0683,-5.0683,-5.0683,-5.0683,-5.0683,-5.0683,-5.0683,-5.0683,-5.0683,-5.0683,-5.0683,-5.0683,-5.0683,-5.0683,-5.0683,-5.0683,-5.0683,-5.0683,-5.0683,-5.0471,-5.0317,-5.0192,-4.9971,-4.9635,-4.9211,-4.8749,-4.8365,-4.7807,-4.7162,-4.6479,-4.609,-4.5816,-4.5292,-4.5095,-4.4751,-4.4702,-4.4578,-4.4326,-4.4289,-4.4497,-4.4706,-4.4857,-4.4895,-4.4895,-4.4895,-4.4895,-4.4857,-4.4687,-4.4706,-4.4895,-4.4895,-4.4895,-4.4808,-4.477,-4.4732,-4.4667,-4.4554,-4.4453,-4.4412,-4.4341,-4.4225,-4.4094,-4.391,-4.3716,-4.3651,-4.3666,-4.3548,-4.3479,-4.3479,-4.3479,-4.3479,-4.3479,-4.3479,-4.3479,-4.3497,-4.348,-4.3446,-4.3394,-4.3305,-4.3196,-4.3086,-4.2974,-4.2823,-4.2667,-4.2528,-4.2427,-4.2366,-4.2308,-4.2308,-4.2308,-4.2308,-4.2308,-4.2308,-4.2236,-4.2272,-4.2308,-4.2308,-4.2308,-5.1276,-5.1235,-5.1205,-5.1119,-5.1004,-5.0976,-5.0898,-5.0757,-5.0721,-5.0683,-5.0683,-5.0683,-5.0683,-5.0683,-5.0683,-5.0683,-5.0683,-5.0683,-5.0683,-5.0683,-5.0683,-5.0683,-5.0683,-5.0683,-5.0683,-5.0683,-5.0683,-5.0683,-5.0683,-5.0683,-5.0683,-5.0683,-5.0683,-5.0683,-5.0683,-5.0683,-5.0683,-5.0644,-5.0644,-5.0683,-5.0442,-5.0096,-4.9798,-4.9298,-4.872,-4.8085,-4.7259,-4.6929,-4.6243,-4.5663,-4.5418,-4.5014,-4.4972,-4.4912,-4.4876,-4.4781,-4.48,-4.4819,-4.4895,-4.4895,-4.4895,-4.4895,-4.4895,-4.4876,-4.4876,-4.4857,-4.4895,-4.4895,-4.4895,-4.4883,-4.4883,-4.4883,-4.4808,-4.4732,-4.4693,-4.4635,-4.4541,-4.4412,-4.4225,-4.4033,-4.3892,-4.3798,-4.3699,-4.3582,-4.3479,-4.3479,-4.3479,-4.3479,-4.3479,-4.3479,-4.3479,-4.3479,-4.3497,-4.348,-4.3428,-4.3411,-4.3287,-4.3178,-4.3068,-4.2918,-4.2745,-4.2588,-4.2488,-4.2389,-4.2308,-4.2308,-4.2308,-4.2308,-4.2308,-4.2308,-4.2308,-4.2308,-4.2308,-4.2308,-4.2308,-5.13,-5.1292,-5.123,-5.1147,-5.105,-5.113,-5.1037,-5.0811,-5.0739,-5.0683,-5.0693,-5.0683,-5.0683,-5.0683,-5.0683,-5.0683,-5.0683,-5.0683,-5.0683,-5.0683,-5.0683,-5.0683,-5.0683,-5.0683,-5.0683,-5.0683,-5.0683,-5.0683,-5.0683,-5.0683,-5.0683,-5.0683,-5.0683,-5.0683,-5.0683,-5.0683,-5.0683,-5.0683,-5.0683,-5.0683,-5.0683,-5.0548,-5.0346,-4.9692,-4.9375,-4.9028,-4.8192,-4.7442,-4.6679,-4.6271,-4.5821,-4.53,-4.501,-4.495,-4.4907,-4.4895,-4.4895,-4.4895,-4.4895,-4.4895,-4.4895,-4.4895,-4.4895,-4.4895,-4.4895,-4.4895,-4.4895,-4.4895,-4.4895,-4.4895,-4.4895,-4.4895,-4.4846,-4.4821,-4.4796,-4.4764,-4.4726,-4.4608,-4.4458,-4.4258,-4.4109,-4.4017,-4.402,-4.3892,-4.3667,-4.3583,-4.3496,-4.3496,-4.3479,-4.3479,-4.3479,-4.3479,-4.3479,-4.3497,-4.348,-4.3428,-4.3376,-4.3269,-4.316,-4.2994,-4.2823,-4.2668,-4.251,-4.2409,-4.2308,-4.2308,-4.2308,-4.2308,-4.2308,-4.2308,-4.2308,-4.2308,-4.2308,-4.2308,-4.2308,-5.13,-5.13,-5.1284,-5.1243,-5.1225,-5.121,-5.1126,-5.0954,-5.0811,-5.0738,-5.0702,-5.0693,-5.0683,-5.0683,-5.0683,-5.0683,-5.0683,-5.0683,-5.0683,-5.0683,-5.0683,-5.0683,-5.0683,-5.0683,-5.0683,-5.0683,-5.0683,-5.0683,-5.0683,-5.0683,-5.0683,-5.0683,-5.0683,-5.0683,-5.0683,-5.0683,-5.0683,-5.0683,-5.0683,-5.0683,-5.0683,-5.0683,-5.051,-5.0337,-5.0221,-4.9817,-4.9163,-4.8729,-4.7679,-4.6813,-4.6418,-4.5773,-4.5079,-4.4969,-4.4914,-4.4895,-4.4895,-4.4895,-4.4895,-4.4895,-4.4895,-4.4895,-4.4895,-4.4895,-4.4895,-4.4895,-4.4895,-4.4895,-4.4895,-4.4895,-4.4895,-4.4895,-4.4895,-4.4895,-4.4895,-4.4895,-4.4895,-4.4783,-4.4653,-4.45,-4.4312,-4.4273,-4.4277,-4.4113,-4.3897,-4.3718,-4.3566,-4.3515,-4.3496,-4.3479,-4.3479,-4.3479,-4.3479,-4.3479,-4.3497,-4.348,-4.3393,-4.3322,-4.3233,-4.3068,-4.29,-4.2707,-4.2528,-4.2389,-4.2308,-4.2308,-4.2308,-4.2308,-4.2308,-4.2308,-4.2308,-4.2308,-4.2308,-4.2308,-4.2308,-5.13,-5.13,-5.13,-5.13,-5.1292,-5.1258,-5.118,-5.1082,-5.0935,-5.083,-5.0748,-5.0721,-5.0693,-5.0693,-5.0683,-5.0683,-5.0683,-5.0683,-5.0683,-5.0683,-5.0683,-5.0683,-5.0683,-5.0683,-5.0683,-5.0683,-5.0683,-5.0683,-5.0683,-5.0683,-5.0683,-5.0683,-5.0683,-5.0683,-5.0683,-5.0683,-5.0683,-5.0683,-5.0683,-5.0683,-5.0683,-5.0683,-5.0683,-5.0683,-5.0567,-5.0279,-5.0009,-4.9575,-4.8718,-4.7629,-4.7002,-4.5944,-4.5231,-4.4931,-4.4895,-4.4895,-4.4895,-4.4895,-4.4895,-4.4895,-4.4895,-4.4895,-4.4895,-4.4895,-4.4895,-4.4895,-4.4895,-4.4895,-4.4895,-4.4895,-4.4895,-4.4895,-4.4895,-4.4895,-4.4895,-4.4895,-4.4895,-4.4833,-4.4783,-4.4726,-4.4581,-4.4449,-4.4364,-4.4131,-4.3913,-4.3835,-4.3667,-4.3532,-4.3515,-4.3479,-4.3479,-4.3479,-4.3479,-4.3479,-4.3479,-4.348,-4.3445,-4.3375,-4.3286,-4.3031,-4.2805,-4.2649,-4.2508,-4.2407,-4.2308,-4.2308,-4.2308,-4.2308,-4.2308,-4.2308,-4.2308,-4.2308,-4.2308,-4.2308,-4.2308,-5.13,-5.13,-5.13,-5.13,-5.13,-5.13,-5.1239,-5.1184,-5.1063,-5.0928,-5.0814,-5.0739,-5.0702,-5.0693,-5.0683,-5.0683,-5.0683,-5.0683,-5.0683,-5.0683,-5.0683,-5.0683,-5.0683,-5.0683,-5.0683,-5.0683,-5.0683,-5.0683,-5.0683,-5.0683,-5.0683,-5.0683,-5.0683,-5.0683,-5.0683,-5.0683,-5.0683,-5.0683,-5.0683,-5.0683,-5.0683,-5.0683,-5.0683,-5.0683,-5.0683,-5.0683,-5.0404,-5.0057,-4.9488,-4.8473,-4.7376,-4.6287,-4.5489,-4.5095,-4.4907,-4.4895,-4.4895,-4.4895,-4.4895,-4.4895,-4.4895,-4.4895,-4.4895,-4.4895,-4.4895,-4.4895,-4.4895,-4.4895,-4.4895,-4.4895,-4.4895,-4.4895,-4.4895,-4.4895,-4.4895,-4.4895,-4.4883,-4.4902,-4.4883,-4.4895,-4.4783,-4.4646,-4.4463,-4.4203,-4.4039,-4.3929,-4.3767,-4.3634,-4.3515,-4.3496,-4.3479,-4.3479,-4.3479,-4.3479,-4.3479,-4.3479,-4.348,-4.341,-4.3286,-4.2994,-4.2747,-4.2649,-4.2528,-4.2407,-4.2346,-4.2308,-4.2308,-4.2308,-4.2308,-4.2308,-4.2308,-4.2308,-4.2308,-4.2308,-4.2308,-5.13,-5.13,-5.13,-5.13,-5.13,-5.13,-5.1243,-5.1219,-5.1173,-5.103,-5.0844,-5.0786,-5.0756,-5.0683,-5.0683,-5.0683,-5.0683,-5.0683,-5.0683,-5.0683,-5.0683,-5.0683,-5.0683,-5.0683,-5.0683,-5.0683,-5.0683,-5.0683,-5.0683,-5.0683,-5.0683,-5.0683,-5.0683,-5.0683,-5.0683,-5.0683,-5.0683,-5.0683,-5.0683,-5.0683,-5.0683,-5.0683,-5.0683,-5.0683,-5.0683,-5.0683,-5.0596,-5.048,-4.991,-4.8905,-4.7624,-4.6641,-4.5912,-4.5404,-4.5097,-4.4895,-4.4895,-4.4895,-4.4895,-4.4895,-4.4895,-4.4895,-4.4895,-4.4895,-4.4895,-4.4895,-4.4895,-4.4895,-4.4895,-4.4895,-4.4895,-4.4895,-4.4895,-4.4895,-4.4895,-4.4895,-4.4895,-4.4895,-4.4895,-4.4895,-4.4858,-4.4796,-4.477,-4.4527,-4.4335,-4.4188,-4.3958,-4.3814,-4.36,-4.3549,-4.3513,-4.3479,-4.3479,-4.3479,-4.3479,-4.3479,-4.3462,-4.341,-4.3304,-4.305,-4.2824,-4.2688,-4.255,-4.2427,-4.2366,-4.2325,-4.2308,-4.2308,-4.2308,-4.2308,-4.2308,-4.2308,-4.2308,-4.2308,-4.2308]},{"header":{"parameterUnit":"m.s-1","parameterCategory":1,"la1":31.0,"la2":29.5877,"lo1":-88.7671,"lo2":-86.6584,"dy":0.0162,"dx":0.0185,"nx":115,"ny":88,"refTime":"2023-02-25T06:00:00:Z","depth":0,"parameterNumber":3,"parameterNumberName":"V-component_of_WINDS"},"data":[0.0,0.0,0.0,0.0,0.0,0.0,0.0,0.0,0.0,0.0,0.0,0.0,0.0,0.0,0.0,0.0,0.0,0.0,0.0,0.0,0.0,0.0,0.0,0.0,0.0,0.0,0.0,0.0,0.0,0.0,0.0,0.0,0.0,0.0,0.0,0.0,0.0,0.0,0.0,0.0,0.0,0.0,0.0,0.0,0.0,0.0,0.0,0.0,0.0,0.0,0.0,0.0,0.0,0.0,0.0,0.0,0.0,0.0,0.0,0.0,0.0,0.0,0.0,0.0,0.0,0.0,0.0,0.0,0.0,0.0,0.0,0.0,0.0,0.0,0.0,0.0,0.0,0.0,0.0,0.0,0.0,0.0,0.0,0.0,0.0,0.0,0.0,0.0,0.0,0.0,0.0,0.0,0.0,0.0,0.0,0.0,0.0,0.0,0.0,0.0,0.0,0.0,0.0,0.0,0.0,0.0,0.0,0.0,0.0,0.0,0.0,0.0,0.0,0.0,0.0,0.0,0.0,0.0,0.0,0.0,0.0,0.0,0.0,0.0,0.0,0.0,0.0,0.0,0.0,0.0,0.0,0.0,0.0,0.0,0.0,0.0,0.0,0.0,0.0,0.0,0.0,0.0,0.0,0.0,0.0,0.0,0.0,0.0,0.0,0.0,0.0,0.0,0.0,0.0,0.0,0.0,0.0,0.0,0.0,0.0,0.0,0.0,0.0,0.0,0.0,0.0,0.0,0.0,0.0,0.0,0.0,0.0,0.0,0.0,0.0,0.0,0.0,0.0,0.0,0.0,0.0,0.0,0.0,0.0,0.0,0.0,0.0,0.0,0.0,0.0,0.0,0.0,0.0,0.0,0.0,0.0,0.0,0.0,0.0,0.0,0.0,0.0,0.0,0.0,0.0,0.0,0.0,0.0,0.0,0.0,0.0,0.0,0.0,0.0,0.0,0.0,0.0,0.0,0.0,0.0,0.0,0.0,0.0,0.0,0.0,0.0,0.0,0.0,0.0,0.0,0.0,0.0,0.0,0.0,0.0,0.0,0.0,0.0,0.0,0.0,0.0,0.0,0.0,0.0,0.0,0.0,0.0,0.0,0.0,0.0,0.0,0.0,0.0,0.0,0.0,0.0,0.0,0.0,0.0,0.0,0.0,0.0,0.0,0.0,0.0,0.0,0.0,0.0,0.0,0.0,0.0,0.0,0.0,0.0,0.0,0.0,0.0,0.0,0.0,0.0,0.0,0.0,0.0,0.0,0.0,0.0,0.0,0.0,0.0,0.0,0.0,0.0,0.0,0.0,0.0,0.0,0.0,0.0,0.0,0.0,0.0,0.0,0.0,0.0,0.0,0.0,0.0,0.0,0.0,0.0,0.0,0.0,0.0,0.0,0.0,0.0,0.0,0.0,0.0,0.0,0.0,0.0,0.0,0.0,0.0,0.0,0.0,0.0,0.0,0.0,0.0,0.0,0.0,0.0,0.0,0.0,0.0,0.0,0.0,0.0,0.0,0.0,0.0,0.0,0.0,0.0,0.0,0.0,0.0,0.0,0.0,0.0,0.0,0.0,0.0,0.0,0.0,0.0,0.0,0.0,0.0,0.0,0.0,0.0,0.0,0.0,0.0,0.0,0.0,0.0,0.0,0.0,0.0,0.0,0.0,0.0,0.0,0.0,0.0,0.0,0.0,0.0,0.0,0.0,0.0,0.0,0.0,0.0,0.0,0.0,0.0,0.0,0.0,0.0,0.0,0.0,0.0,0.0,0.0,0.0,0.0,0.0,0.0,0.0,0.0,0.0,0.0,0.0,0.0,0.0,0.0,0.0,0.0,0.0,0.0,0.0,0.0,0.0,0.0,0.0,0.0,0.0,0.0,0.0,0.0,0.0,0.0,0.0,0.0,0.0,0.0,0.0,0.0,0.0,0.0,0.0,0.0,0.0,0.0,0.0,0.0,0.0,0.0,0.0,0.0,0.0,0.0,0.0,0.0,0.0,0.0,0.0,0.0,0.0,0.0,0.0,0.0,0.0,0.0,0.0,0.0,0.0,0.0,0.0,0.0,0.0,0.0,0.0,0.0,0.0,0.0,0.0,0.0,0.0,0.0,0.0,0.0,0.0,0.0,0.0,0.0,0.0,0.0,0.0,0.0,0.0,0.0,0.0,0.0,0.0,0.0,0.0,0.0,0.0,0.0,0.0,0.0,0.0,0.0,0.0,0.0,0.0,0.0,0.0,0.0,0.0,0.0,0.0,0.0,0.0,0.0,0.0,0.0,0.0,0.0,0.0,0.0,0.0,0.0,0.0,0.0,0.0,0.0,0.0,0.0,0.0,0.0,0.0,0.0,0.0,0.0,0.0,0.0,0.0,0.0,0.0,0.0,0.0,0.0,0.0,0.0,0.0,0.0,0.0,0.0,0.0,0.0,0.0,0.0,0.0,0.0,0.0,0.0,0.0,0.0,0.0,0.0,0.0,0.0,0.0,0.0,0.0,0.0,0.0,0.0,0.0,0.0,0.0,0.0,0.0,0.0,0.0,0.0,0.0,0.0,0.0,0.0,0.0,0.0,0.0,0.0,0.0,0.0,0.0,0.0,0.0,0.0,0.0,0.0,0.0,0.0,0.0,0.0,0.0,0.0,0.0,0.0,0.0,0.0,0.0,0.0,0.0,0.0,0.0,0.0,0.0,0.0,0.0,0.0,0.0,0.0,0.0,0.0,0.0,0.0,0.0,0.0,0.0,0.0,0.0,0.0,0.0,0.0,0.0,0.0,0.0,0.0,0.0,0.0,0.0,0.0,0.0,0.0,0.0,0.0,0.0,0.0,0.0,0.0,0.0,0.0,0.0,0.0,0.0,0.0,0.0,0.0,0.0,0.0,0.0,0.0,0.0,0.0,0.0,0.0,0.0,0.0,0.0,0.0,0.0,0.0,0.0,0.0,0.0,0.0,0.0,0.0,0.0,0.0,0.0,0.0,0.0,0.0,0.0,0.0,0.0,0.0,0.0,0.0,0.0,0.0,0.0,0.0,0.0,0.0,0.0,0.0,0.0,0.0,0.0,0.0,0.0,0.0,0.0,0.0,0.0,0.0,0.0,0.0,0.0,0.0,0.0,0.0,0.0,0.0,0.0,0.0,0.0,0.0,0.0,0.0,0.0,0.0,0.0,0.0,0.0,0.0,0.0,0.0,0.0,0.0,0.0,0.0,0.0,0.0,0.0,0.0,0.0,0.0,0.0,0.0,0.0,0.0,0.0,0.0,0.0,0.0,0.0,0.0,0.0,0.0,0.0,0.0,0.0,0.0,0.0,0.0,0.0,0.0,0.0,0.0,0.0,0.0,0.0,0.0,0.0,0.0,0.0,0.0,0.0,0.0,0.0,0.0,0.0,0.0,0.0,0.0,0.0,0.0,0.0,0.0,0.0,0.0,0.0,0.0,0.0,0.0,0.0,0.0,0.0,0.0,0.0,0.0,0.0,0.0,0.0,0.0,0.0,0.0,0.0,0.0,0.0,0.0,0.0,0.0,0.0,0.0,0.0,0.0,0.0,0.0,0.0,0.0,0.0,0.0,0.0,0.0,0.0,0.0,0.0,0.0,0.0,0.0,0.0,0.0,0.0,0.0,0.0,0.0,0.0,0.0,0.0,0.0,0.0,0.0,0.0,0.0,0.0,0.0,0.0,0.0,0.0,0.0,0.0,0.0,0.0,0.0,0.0,0.0,0.0,0.0,0.0,0.0,0.0,0.0,0.0,0.0,0.0,0.0,0.0,0.0,0.0,0.0,0.0,0.0,0.0,0.0,0.0,0.0,0.0,0.0,0.0,0.0,0.0,0.0,0.0,0.0,0.0,0.0,0.0,0.0,0.0,0.0,0.0,0.0,0.0,0.0,0.0,0.0,0.0,0.0,0.0,0.0,0.0,0.0,0.0,0.0,0.0,0.0,0.0,0.0,0.0,0.0,0.0,0.0,0.0,0.0,0.0,0.0,0.0,0.0,0.0,0.0,0.0,0.0,0.0,0.0,0.0,0.0,0.0,0.0,0.0,0.0,0.0,0.0,0.0,0.0,0.0,0.0,0.0,0.0,0.0,0.0,0.0,0.0,0.0,0.0,0.0,0.0,0.0,0.0,0.0,0.0,0.0,0.0,0.0,0.0,0.0,0.0,0.0,0.0,0.0,0.0,0.0,0.0,0.0,0.0,0.0,0.0,0.0,0.0,0.0,0.0,0.0,0.0,0.0,0.0,0.0,0.0,0.0,0.0,0.0,0.0,0.0,0.0,0.0,-0.63,0.0,0.0,0.0,0.0,0.0,0.0,0.0,0.0,0.0,0.0,0.0,0.0,0.0,0.0,0.0,0.0,0.0,0.0,0.0,0.0,0.0,0.0,0.0,0.0,0.0,0.0,0.0,0.0,0.0,0.0,0.0,0.0,0.0,0.0,0.0,0.0,0.0,0.0,0.0,0.0,0.0,0.0,0.0,0.0,0.0,0.0,0.0,0.0,0.0,0.0,0.0,0.0,0.0,0.0,0.0,0.0,0.0,0.0,0.0,0.0,0.0,0.0,0.0,0.0,0.0,0.0,0.0,0.0,0.0,0.0,0.0,0.0,0.0,0.0,0.0,0.0,0.0,0.0,0.0,0.0,0.0,0.0,0.0,0.0,0.0,0.0,0.0,0.0,0.0,0.0,0.0,0.0,0.0,0.0,0.0,0.0,0.0,0.0,0.0,0.0,0.0,0.0,0.0,0.0,0.0,0.0,0.0,0.0,0.0,0.0,-0.63,-0.63,-0.63,-0.63,-0.63,0.0,0.0,0.0,0.0,0.0,0.0,0.0,0.0,0.0,0.0,0.0,0.0,0.0,0.0,0.0,0.0,0.0,0.0,0.0,0.0,0.0,0.0,0.0,0.0,0.0,0.0,0.0,0.0,0.0,0.0,0.0,0.0,0.0,0.0,0.0,0.0,0.0,0.0,0.0,0.0,0.0,0.0,0.0,0.0,0.0,0.0,0.0,0.0,0.0,0.0,0.0,0.0,0.0,0.0,0.0,0.0,0.0,0.0,0.0,0.0,0.0,0.0,0.0,0.0,0.0,0.0,0.0,0.0,0.0,0.0,0.0,0.0,0.0,0.0,0.0,0.0,0.0,0.0,0.0,0.0,0.0,0.0,0.0,0.0,0.0,0.0,0.0,0.0,0.0,0.0,0.0,0.0,0.0,0.0,0.0,0.0,0.0,0.0,0.0,0.0,0.0,0.0,0.0,0.0,0.0,0.0,0.0,0.0,0.0,0.0,0.0,0.0,-0.63,-0.63,-0.63,0.0,0.0,0.0,0.0,0.0,0.0,0.0,0.0,0.0,0.0,0.0,0.0,0.0,0.0,0.0,0.0,0.0,0.0,0.0,0.0,0.0,0.0,0.0,0.0,0.0,0.0,0.0,0.0,0.0,0.0,0.0,0.0,0.0,0.0,0.0,0.0,0.0,0.0,0.0,0.0,0.0,0.0,0.0,0.0,0.0,0.0,0.0,0.0,0.0,0.0,0.0,0.0,0.0,0.0,0.0,0.0,0.0,0.0,0.0,0.0,0.0,0.0,0.0,0.0,0.0,0.0,0.0,0.0,0.0,0.0,0.0,0.0,0.0,0.0,0.0,0.0,0.0,0.0,0.0,0.0,0.0,0.0,0.0,0.0,0.0,0.0,0.0,0.0,0.0,0.0,0.0,0.0,0.0,0.0,0.0,0.0,0.0,0.0,0.0,0.0,0.0,0.0,0.0,0.0,0.0,0.0,0.0,0.0,0.0,0.0,-0.63,-0.63,-0.63,0.0,-0.63,0.0,0.0,0.0,0.0,0.0,0.0,0.0,0.0,0.0,0.0,0.0,0.0,0.0,0.0,0.0,0.0,0.0,0.0,0.0,0.0,0.0,0.0,0.0,0.0,0.0,0.0,0.0,0.0,0.0,0.0,0.0,0.0,0.0,0.0,0.0,0.0,0.0,0.0,0.0,0.0,0.0,0.0,0.0,0.0,0.0,0.0,0.0,0.0,0.0,0.0,0.0,0.0,0.0,0.0,0.0,0.0,0.0,0.0,0.0,0.0,0.0,0.0,0.0,0.0,0.0,0.0,0.0,0.0,0.0,0.0,0.0,0.0,0.0,0.0,0.0,0.0,0.0,0.0,0.0,0.0,0.0,0.0,0.0,0.0,0.0,0.0,0.0,0.0,0.0,0.0,0.0,0.0,0.0,0.0,0.0,0.0,0.0,0.0,0.0,0.0,0.0,0.0,0.0,0.0,0.0,0.0,0.0,0.0,0.0,0.0,-0.63,-0.63,-0.63,-0.63,0.0,0.0,0.0,0.0,0.0,0.0,0.0,0.0,0.0,0.0,0.0,0.0,0.0,0.0,0.0,0.0,0.0,0.0,0.0,0.0,0.0,0.0,0.0,0.0,0.0,0.0,0.0,0.0,0.0,0.0,0.0,0.0,0.0,0.0,0.0,0.0,0.0,0.0,0.0,0.0,0.0,0.0,0.0,0.0,0.0,0.0,0.0,0.0,0.0,0.0,0.0,0.0,0.0,0.0,0.0,0.0,0.0,0.0,0.0,0.0,0.0,0.0,0.0,0.0,0.0,0.0,0.0,0.0,0.0,0.0,0.0,0.0,0.0,0.0,0.0,0.0,0.0,0.0,0.0,0.0,0.0,0.0,0.0,0.0,0.0,0.0,0.0,0.0,0.0,0.0,0.0,0.0,0.0,0.0,0.0,0.0,0.0,0.0,0.0,0.0,0.0,0.0,0.0,0.0,0.0,0.0,0.0,0.0,0.0,0.0,-0.63,-0.63,-0.63,-0.63,-0.63,-0.63,0.0,0.0,0.0,0.0,0.0,0.0,0.0,0.0,0.0,0.0,0.0,0.0,0.0,0.0,0.0,0.0,0.0,0.0,0.0,0.0,0.0,0.0,0.0,0.0,0.0,0.0,0.0,0.0,0.0,0.0,0.0,0.0,0.0,0.0,0.0,0.0,0.0,0.0,0.0,0.0,0.0,0.0,0.0,0.0,0.0,0.0,0.0,0.0,0.0,0.0,0.0,0.0,0.0,0.0,0.0,0.0,0.0,0.0,0.0,0.0,0.0,0.0,0.0,0.0,0.0,0.0,0.0,0.0,0.0,0.0,0.0,0.0,0.0,0.0,0.0,0.0,0.0,0.0,0.0,0.0,0.0,0.0,0.0,0.0,0.0,0.0,0.0,0.0,0.0,0.0,0.0,0.0,0.0,0.0,0.0,0.0,0.0,0.0,0.0,0.0,0.0,0.0,0.0,0.0,0.0,0.0,0.0,0.0,-0.63,-0.63,-0.63,-0.63,-0.63,-0.63,0.0,0.0,0.0,0.0,0.0,0.0,0.0,0.0,0.0,0.0,0.0,0.0,0.0,0.0,0.0,0.0,0.0,0.0,0.0,0.0,0.0,0.0,0.0,0.0,0.0,0.0,0.0,0.0,0.0,0.0,0.0,0.0,0.0,0.0,0.0,0.0,0.0,0.0,0.0,0.0,0.0,0.0,0.0,0.0,0.0,0.0,0.0,0.0,0.0,0.0,0.0,0.0,0.0,0.0,0.0,0.0,0.0,0.0,0.0,0.0,0.0,0.0,0.0,0.0,0.0,0.0,0.0,0.0,0.0,0.0,0.0,0.0,0.0,0.0,0.0,0.0,0.0,0.0,0.0,0.0,0.0,0.0,0.0,0.0,0.0,0.0,0.0,0.0,0.0,0.0,0.0,0.0,0.0,0.0,0.0,0.0,0.0,0.0,0.0,0.0,0.0,0.0,0.0,0.0,0.0,0.0,0.0,0.0,0.0,-0.6338,-0.63,-0.63,-0.63,-0.63,-0.63,0.0,0.0,0.0,0.0,0.0,0.0,0.0,0.0,0.0,0.0,0.0,0.0,0.0,0.0,0.0,0.0,0.0,0.0,0.0,0.0,0.0,0.0,0.0,0.0,0.0,0.0,0.0,0.0,0.0,0.0,0.0,0.0,0.0,0.0,0.0,0.0,0.0,0.0,0.0,0.0,0.0,0.0,0.0,0.0,0.0,0.0,0.0,0.0,0.0,0.0,0.0,0.0,0.0,0.0,0.0,0.0,0.0,0.0,0.0,0.0,0.0,0.0,0.0,0.0,0.0,0.0,0.0,0.0,0.0,0.0,0.0,0.0,0.0,0.0,0.0,0.0,0.0,0.0,0.0,0.0,0.0,0.0,0.0,0.0,0.0,0.0,0.0,0.0,0.0,0.0,0.0,0.0,0.0,0.0,0.0,0.0,0.0,0.0,0.0,0.0,0.0,0.0,0.0,0.0,0.0,0.0,0.0,0.0,0.0,-0.6335,0.0,-0.63,-0.63,-0.63,-0.63,0.0,0.0,0.0,0.0,0.0,0.0,0.0,0.0,0.0,0.0,0.0,0.0,0.0,0.0,0.0,0.0,0.0,0.0,0.0,0.0,0.0,0.0,0.0,0.0,0.0,0.0,0.0,0.0,0.0,0.0,0.0,0.0,0.0,0.0,0.0,0.0,0.0,0.0,0.0,0.0,0.0,0.0,0.0,0.0,0.0,0.0,0.0,0.0,0.0,0.0,0.0,0.0,0.0,0.0,0.0,0.0,0.0,0.0,0.0,0.0,0.0,0.0,0.0,0.0,0.0,0.0,0.0,0.0,0.0,0.0,0.0,0.0,0.0,0.0,0.0,0.0,0.0,0.0,0.0,0.0,0.0,0.0,0.0,0.0,0.0,0.0,0.0,0.0,0.0,0.0,0.0,0.0,0.0,0.0,0.0,0.0,0.0,0.0,0.0,0.0,0.0,0.0,0.0,0.0,0.0,0.0,0.0,0.0,-0.6911,-0.6338,-0.63,-0.63,-0.63,-0.63,-0.63,0.0,0.0,0.0,0.0,0.0,0.0,0.0,0.0,0.0,0.0,0.0,0.0,0.0,0.0,0.0,0.0,0.0,0.0,0.0,0.0,0.0,0.0,0.0,0.0,0.0,0.0,0.0,0.0,0.0,0.0,0.0,0.0,0.0,0.0,0.0,0.0,0.0,0.0,0.0,0.0,0.0,0.0,0.0,0.0,0.0,0.0,0.0,0.0,0.0,0.0,0.0,0.0,0.0,0.0,0.0,0.0,0.0,0.0,0.0,0.0,0.0,0.0,0.0,0.0,0.0,0.0,0.0,0.0,0.0,0.0,0.0,0.0,0.0,0.0,0.0,0.0,0.0,0.0,0.0,0.0,0.0,0.0,0.0,0.0,0.0,0.0,0.0,0.0,0.0,0.0,0.0,0.0,0.0,0.0,0.0,0.0,0.0,0.0,0.0,0.0,0.0,0.0,0.0,0.0,0.0,0.0,0.0,0.0,0.0,-0.6338,-0.63,-0.63,-0.63,-0.63,-0.63,0.0,0.0,0.0,0.0,0.0,0.0,0.0,0.0,0.0,0.0,0.0,0.0,0.0,0.0,0.0,0.0,0.0,0.0,0.0,0.0,0.0,0.0,0.0,0.0,0.0,0.0,0.0,0.0,0.0,0.0,0.0,0.0,0.0,0.0,0.0,0.0,0.0,0.0,0.0,0.0,0.0,0.0,0.0,0.0,0.0,0.0,0.0,0.0,0.0,0.0,0.0,0.0,0.0,0.0,0.0,0.0,0.0,0.0,0.0,0.0,0.0,0.0,0.0,0.0,0.0,0.0,0.0,0.0,0.0,0.0,0.0,0.0,0.0,0.0,0.0,0.0,0.0,0.0,0.0,0.0,0.0,0.0,0.0,0.0,0.0,0.0,0.0,0.0,0.0,0.0,0.0,0.0,0.0,0.0,0.0,0.0,0.0,0.0,0.0,0.0,0.0,0.0,0.0,0.0,0.0,0.0,0.0,0.0,0.0,-0.6683,-0.6644,-0.6532,-0.63,-0.63,-0.63,-0.63,0.0,0.0,0.0,0.0,0.0,0.0,0.0,0.0,0.0,0.0,0.0,0.0,0.0,0.0,0.0,0.0,0.0,0.0,0.0,0.0,0.0,0.0,0.0,0.0,0.0,0.0,0.0,0.0,0.0,0.0,0.0,0.0,0.0,0.0,0.0,0.0,0.0,0.0,0.0,0.0,0.0,0.0,0.0,0.0,0.0,0.0,0.0,0.0,0.0,0.0,0.0,0.0,0.0,0.0,0.0,0.0,0.0,0.0,0.0,0.0,0.0,0.0,0.0,0.0,0.0,0.0,0.0,0.0,0.0,0.0,0.0,0.0,0.0,0.0,0.0,0.0,0.0,0.0,0.0,0.0,0.0,0.0,0.0,0.0,0.0,0.0,0.0,0.0,0.0,0.0,0.0,0.0,0.0,0.0,0.0,0.0,0.0,0.0,0.0,0.0,0.0,0.0,0.0,0.0,0.0,0.0,0.0,0.0,-0.7223,-0.7257,-0.6988,-0.6377,-0.6374,-0.6338,0.0,0.0,0.0,0.0,0.0,0.0,0.0,0.0,0.0,0.0,0.0,0.0,0.0,0.0,0.0,0.0,0.0,0.0,0.0,0.0,0.0,0.0,0.0,0.0,0.0,0.0,0.0,0.0,0.0,0.0,0.0,0.0,0.0,0.0,0.0,0.0,0.0,0.0,0.0,0.0,0.0,0.0,0.0,0.0,0.0,0.0,0.0,0.0,0.0,0.0,0.0,0.0,0.0,0.0,0.0,0.0,0.0,0.0,0.0,0.0,0.0,0.0,0.0,0.0,0.0,0.0,0.0,0.0,0.0,0.0,0.0,0.0,0.0,0.0,0.0,0.0,0.0,0.0,0.0,0.0,0.0,0.0,0.0,0.0,0.0,0.0,0.0,0.0,0.0,0.0,0.0,0.0,0.0,0.0,0.0,0.0,0.0,0.0,0.0,0.0,0.0,0.0,0.0,0.0,0.0,0.0,0.0,0.0,0.0,-0.7484,-0.7859,-0.7706,-0.6992,-0.6953,-0.6953,0.0,0.0,0.0,0.0,0.0,0.0,0.0,0.0,0.0,0.0,0.0,0.0,0.0,0.0,0.0,0.0,0.0,0.0,0.0,0.0,0.0,0.0,0.0,0.0,0.0,0.0,0.0,0.0,0.0,0.0,0.0,0.0,0.0,0.0,0.0,0.0,0.0,0.0,0.0,0.0,0.0,0.0,0.0,0.0,0.0,0.0,0.0,0.0,0.0,0.0,0.0,0.0,0.0,0.0,0.0,0.0,0.0,0.0,0.0,0.0,0.0,0.0,0.0,0.0,0.0,0.0,0.0,0.0,0.0,0.0,0.0,0.0,0.0,0.0,0.0,0.0,0.0,0.0,0.0,0.0,0.0,0.0,0.0,0.0,0.0,0.0,0.0,0.0,0.0,0.0,0.0,0.0,0.0,0.0,0.0,0.0,0.0,0.0,0.0,0.0,0.0,0.0,0.0,0.0,0.0,0.0,0.0,0.0,-0.9221,-0.8389,-0.8727,-0.8689,-0.8237,-0.7292,-0.6957,0.0,0.0,0.0,0.0,0.0,0.0,0.0,0.0,0.0,0.0,0.0,0.0,0.0,0.0,0.0,0.0,0.0,0.0,0.0,0.0,0.0,0.0,0.0,0.0,0.0,0.0,0.0,0.0,0.0,0.0,0.0,0.0,0.0,0.0,0.0,0.0,0.0,0.0,0.0,0.0,0.0,0.0,0.0,0.0,0.0,0.0,0.0,0.0,0.0,0.0,0.0,0.0,0.0,0.0,0.0,0.0,0.0,0.0,0.0,0.0,0.0,0.0,0.0,0.0,0.0,0.0,0.0,0.0,0.0,0.0,0.0,0.0,0.0,0.0,0.0,0.0,0.0,0.0,0.0,0.0,0.0,0.0,0.0,0.0,0.0,0.0,0.0,0.0,0.0,0.0,0.0,0.0,0.0,0.0,0.0,0.0,0.0,0.0,0.0,0.0,0.0,0.0,0.0,0.0,0.0,0.0,0.0,0.0,-0.9712,-0.9669,-0.9642,-0.9636,-0.9561,-0.7706,-0.6872,0.0,0.0,0.0,0.0,0.0,0.0,0.0,0.0,0.0,0.0,0.0,0.0,0.0,0.0,0.0,0.0,0.0,0.0,0.0,0.0,0.0,0.0,0.0,0.0,0.0,0.0,0.0,0.0,0.0,0.0,0.0,0.0,0.0,0.0,0.0,0.0,0.0,0.0,0.0,0.0,0.0,0.0,0.0,0.0,0.0,0.0,0.0,0.0,0.0,0.0,0.0,0.0,0.0,0.0,0.0,0.0,0.0,0.0,0.0,0.0,0.0,0.0,0.0,0.0,0.0,0.0,0.0,0.0,0.0,0.0,0.0,0.0,0.0,0.0,0.0,0.0,0.0,0.0,0.0,0.0,0.0,0.0,0.0,0.0,0.0,0.0,0.0,0.0,0.0,0.0,0.0,0.0,0.0,0.0,0.0,0.0,0.0,0.0,0.0,0.0,0.0,0.0,0.0,0.0,0.0,0.0,0.0,0.0,-1.0545,-1.0099,-0.9916,-0.9841,-0.9841,-0.9221,-0.8879,0.0,0.0,0.0,0.0,0.0,0.0,0.0,0.0,0.0,0.0,0.0,0.0,0.0,0.0,0.0,0.0,0.0,0.0,0.0,0.0,0.0,0.0,0.0,0.0,0.0,0.0,0.0,0.0,0.0,0.0,0.0,0.0,0.0,0.0,0.0,0.0,0.0,0.0,0.0,0.0,0.0,0.0,0.0,0.0,0.0,0.0,0.0,0.0,-1.7545,0.0,0.0,0.0,0.0,0.0,0.0,0.0,0.0,0.0,0.0,0.0,0.0,0.0,0.0,0.0,0.0,0.0,0.0,0.0,0.0,0.0,0.0,0.0,0.0,0.0,0.0,0.0,0.0,0.0,0.0,0.0,0.0,0.0,0.0,0.0,0.0,0.0,0.0,0.0,0.0,0.0,0.0,0.0,0.0,0.0,0.0,0.0,0.0,0.0,0.0,0.0,0.0,0.0,0.0,0.0,0.0,0.0,0.0,0.0,-1.1223,-1.0887,-1.0812,-1.0706,-1.0625,-1.0507,-1.0126,0.0,0.0,0.0,0.0,0.0,0.0,0.0,0.0,0.0,0.0,0.0,0.0,0.0,0.0,0.0,0.0,0.0,0.0,0.0,0.0,0.0,0.0,0.0,0.0,0.0,0.0,0.0,0.0,0.0,0.0,0.0,0.0,0.0,0.0,0.0,0.0,0.0,0.0,0.0,0.0,0.0,0.0,0.0,0.0,0.0,0.0,0.0,0.0,0.0,0.0,0.0,0.0,0.0,0.0,0.0,0.0,0.0,0.0,0.0,0.0,0.0,0.0,0.0,0.0,0.0,0.0,0.0,0.0,0.0,0.0,0.0,0.0,0.0,0.0,0.0,0.0,0.0,0.0,0.0,0.0,0.0,0.0,0.0,0.0,0.0,0.0,0.0,0.0,0.0,0.0,0.0,0.0,0.0,0.0,0.0,0.0,0.0,0.0,0.0,0.0,0.0,0.0,0.0,0.0,0.0,0.0,0.0,-1.1632,-1.1706,-1.1744,-1.1706,-1.1595,-1.1446,-1.1446,-1.095,-0.99,0.0,0.0,0.0,0.0,0.0,0.0,0.0,0.0,0.0,0.0,0.0,0.0,0.0,0.0,0.0,0.0,0.0,0.0,0.0,0.0,0.0,0.0,0.0,0.0,0.0,0.0,0.0,0.0,0.0,0.0,0.0,0.0,0.0,0.0,0.0,0.0,0.0,0.0,-1.4681,-1.4851,0.0,0.0,0.0,0.0,0.0,0.0,0.0,0.0,-1.7579,0.0,0.0,0.0,0.0,0.0,0.0,0.0,0.0,0.0,0.0,0.0,0.0,0.0,0.0,0.0,0.0,0.0,0.0,0.0,0.0,0.0,0.0,0.0,0.0,0.0,0.0,0.0,0.0,0.0,0.0,0.0,0.0,0.0,0.0,0.0,0.0,0.0,0.0,0.0,0.0,0.0,0.0,0.0,0.0,0.0,0.0,0.0,0.0,0.0,0.0,0.0,0.0,0.0,0.0,0.0,0.0,-1.1892,-1.1781,-1.1781,-1.1929,-1.1781,-1.1706,-1.1632,-1.1669,-1.1484,-1.1111,0.0,0.0,0.0,0.0,0.0,0.0,0.0,0.0,0.0,0.0,0.0,0.0,0.0,0.0,0.0,0.0,0.0,0.0,0.0,0.0,0.0,0.0,0.0,0.0,0.0,0.0,0.0,0.0,0.0,0.0,0.0,0.0,0.0,0.0,0.0,0.0,0.0,0.0,0.0,-1.6088,-1.6655,0.0,0.0,0.0,0.0,0.0,0.0,0.0,0.0,-1.8008,0.0,0.0,0.0,0.0,0.0,0.0,0.0,0.0,0.0,0.0,0.0,0.0,0.0,0.0,0.0,0.0,0.0,0.0,0.0,0.0,0.0,0.0,0.0,0.0,0.0,0.0,0.0,0.0,0.0,0.0,0.0,0.0,0.0,0.0,0.0,0.0,0.0,0.0,0.0,0.0,0.0,0.0,0.0,0.0,0.0,0.0,0.0,0.0,0.0,0.0,0.0,0.0,0.0,0.0,0.0,-1.1966,-1.2009,-1.204,-1.2157,-1.2077,-1.1966,-1.1848,-1.1855,-1.1781,0.0,0.0,0.0,0.0,0.0,0.0,0.0,0.0,0.0,0.0,0.0,0.0,0.0,0.0,0.0,0.0,0.0,0.0,0.0,0.0,0.0,0.0,0.0,0.0,0.0,0.0,0.0,0.0,0.0,0.0,0.0,0.0,0.0,0.0,0.0,0.0,0.0,0.0,0.0,0.0,-1.6306,-1.6585,-1.7364,0.0,0.0,0.0,0.0,0.0,0.0,-1.8008,-1.8008,0.0,0.0,0.0,0.0,0.0,0.0,0.0,0.0,0.0,0.0,0.0,0.0,0.0,0.0,0.0,0.0,0.0,0.0,0.0,0.0,0.0,0.0,0.0,0.0,0.0,0.0,0.0,0.0,0.0,0.0,0.0,0.0,0.0,0.0,0.0,0.0,0.0,0.0,0.0,0.0,0.0,0.0,0.0,0.0,0.0,0.0,0.0,0.0,0.0,0.0,0.0,0.0,0.0,0.0,0.0,-1.204,-1.2231,-1.2305,-1.2305,-1.2305,-1.2224,-1.2077,-1.204,-1.1966,0.0,0.0,0.0,0.0,0.0,0.0,0.0,0.0,0.0,0.0,0.0,0.0,0.0,0.0,0.0,0.0,0.0,0.0,0.0,0.0,0.0,0.0,0.0,0.0,0.0,0.0,0.0,0.0,0.0,0.0,0.0,0.0,0.0,0.0,0.0,0.0,0.0,0.0,0.0,0.0,0.0,-1.6629,-1.7803,-1.751,0.0,0.0,0.0,0.0,-1.8008,-1.8008,0.0,0.0,0.0,0.0,0.0,0.0,0.0,0.0,0.0,0.0,0.0,0.0,0.0,0.0,0.0,0.0,0.0,0.0,0.0,0.0,0.0,0.0,0.0,0.0,0.0,0.0,0.0,0.0,0.0,0.0,0.0,0.0,0.0,0.0,0.0,0.0,0.0,0.0,0.0,0.0,0.0,0.0,0.0,0.0,0.0,0.0,0.0,0.0,0.0,0.0,0.0,0.0,0.0,0.0,0.0,0.0,-1.2261,-1.2305,-1.2305,-1.2305,-1.2305,-1.2305,-1.2268,-1.2268,-1.2083,0.0,0.0,0.0,0.0,0.0,0.0,0.0,0.0,0.0,0.0,0.0,0.0,0.0,0.0,0.0,0.0,0.0,0.0,0.0,0.0,0.0,0.0,0.0,0.0,0.0,0.0,0.0,0.0,0.0,0.0,0.0,0.0,0.0,0.0,0.0,0.0,0.0,0.0,0.0,0.0,0.0,-1.7794,-1.7974,-1.794,-1.7906,0.0,0.0,-1.8008,-1.8008,-1.8008,0.0,0.0,0.0,0.0,0.0,0.0,0.0,0.0,0.0,0.0,0.0,0.0,0.0,0.0,0.0,0.0,0.0,0.0,0.0,0.0,0.0,0.0,0.0,0.0,0.0,0.0,0.0,0.0,0.0,0.0,0.0,0.0,0.0,0.0,0.0,0.0,0.0,0.0,0.0,0.0,0.0,0.0,0.0,0.0,0.0,0.0,0.0,0.0,0.0,0.0,0.0,0.0,0.0,0.0,0.0,-1.2083,-1.2305,-1.2305,-1.2305,-1.2305,-1.2305,-1.2305,-1.2305,-1.2305,-1.215,0.0,0.0,0.0,0.0,0.0,0.0,0.0,0.0,0.0,0.0,0.0,0.0,0.0,0.0,0.0,0.0,0.0,0.0,0.0,0.0,0.0,0.0,0.0,0.0,0.0,0.0,0.0,0.0,0.0,0.0,0.0,0.0,0.0,0.0,0.0,0.0,0.0,0.0,0.0,0.0,0.0,0.0,-1.8008,-1.8008,0.0,0.0,0.0,-1.8008,-1.8008,0.0,0.0,0.0,0.0,0.0,0.0,0.0,0.0,0.0,0.0,0.0,0.0,0.0,0.0,0.0,0.0,0.0,0.0,0.0,0.0,0.0,0.0,0.0,0.0,0.0,0.0,0.0,0.0,0.0,0.0,0.0,0.0,0.0,0.0,0.0,0.0,0.0,0.0,0.0,0.0,0.0,0.0,0.0,0.0,0.0,0.0,0.0,0.0,0.0,0.0,0.0,0.0,0.0,0.0,0.0,0.0,0.0,-1.2305,-1.2305,-1.2305,-1.2305,-1.2305,-1.2305,-1.2305,-1.2305,0.0,0.0,0.0,0.0,0.0,0.0,0.0,0.0,0.0,0.0,0.0,0.0,0.0,0.0,0.0,0.0,0.0,0.0,0.0,0.0,0.0,0.0,0.0,0.0,0.0,0.0,0.0,-1.2452,0.0,0.0,0.0,0.0,0.0,0.0,0.0,0.0,0.0,0.0,0.0,0.0,0.0,0.0,-1.8008,-1.8008,-1.8008,-1.8008,0.0,0.0,-1.8008,-1.8008,-1.8008,-1.8008,0.0,0.0,0.0,0.0,0.0,0.0,0.0,0.0,0.0,0.0,0.0,0.0,0.0,0.0,0.0,0.0,0.0,0.0,0.0,0.0,0.0,0.0,0.0,0.0,0.0,0.0,0.0,0.0,0.0,0.0,0.0,0.0,0.0,0.0,0.0,0.0,0.0,0.0,0.0,0.0,0.0,0.0,0.0,0.0,0.0,0.0,0.0,0.0,0.0,0.0,0.0,0.0,0.0,0.0,0.0,-1.2305,-1.2305,-1.2305,-1.2305,-1.2305,-1.2305,-1.2305,-1.2305,-1.2194,0.0,0.0,0.0,0.0,0.0,0.0,0.0,0.0,0.0,0.0,0.0,0.0,0.0,0.0,0.0,0.0,0.0,0.0,0.0,0.0,0.0,0.0,0.0,0.0,0.0,0.0,0.0,0.0,0.0,0.0,0.0,0.0,0.0,0.0,0.0,0.0,0.0,0.0,0.0,0.0,0.0,-1.8008,-1.8008,-1.8008,-1.8008,0.0,0.0,-1.8008,-1.8008,-1.8008,-1.8008,-1.8008,0.0,0.0,0.0,0.0,0.0,0.0,0.0,0.0,0.0,0.0,0.0,0.0,0.0,0.0,0.0,0.0,0.0,0.0,0.0,0.0,0.0,0.0,0.0,0.0,0.0,0.0,0.0,0.0,0.0,0.0,0.0,0.0,0.0,0.0,0.0,0.0,0.0,0.0,0.0,0.0,0.0,0.0,0.0,0.0,0.0,0.0,0.0,0.0,0.0,0.0,0.0,0.0,0.0,-1.2305,-1.2305,-1.2305,-1.2305,-1.2305,-1.2305,-1.2305,-1.2305,-1.2305,-1.2187,0.0,0.0,0.0,0.0,0.0,0.0,0.0,0.0,0.0,0.0,0.0,0.0,0.0,0.0,0.0,0.0,0.0,0.0,0.0,0.0,0.0,0.0,0.0,0.0,0.0,0.0,0.0,0.0,-1.29,-1.3119,-1.3717,0.0,0.0,0.0,0.0,0.0,0.0,0.0,0.0,0.0,0.0,-1.8008,-1.8008,-1.8008,0.0,0.0,-1.8008,-1.8008,-1.8008,-1.8008,-1.8008,-1.8008,-1.8008,0.0,0.0,0.0,0.0,0.0,0.0,0.0,0.0,0.0,0.0,0.0,0.0,0.0,0.0,0.0,0.0,0.0,0.0,0.0,0.0,0.0,0.0,0.0,0.0,0.0,0.0,0.0,0.0,0.0,0.0,0.0,0.0,0.0,0.0,0.0,0.0,0.0,0.0,0.0,0.0,0.0,0.0,0.0,0.0,0.0,0.0,0.0,0.0,0.0,0.0,0.0,0.0,-1.2305,-1.2305,-1.2305,-1.2305,-1.2305,-1.2305,-1.2305,-1.2305,-1.2305,-1.2224,0.0,0.0,0.0,0.0,0.0,0.0,0.0,0.0,0.0,0.0,0.0,0.0,0.0,0.0,0.0,0.0,0.0,0.0,0.0,0.0,0.0,0.0,0.0,0.0,0.0,0.0,0.0,0.0,-1.3119,-1.3404,-1.3855,0.0,0.0,0.0,0.0,0.0,0.0,0.0,0.0,0.0,0.0,-1.8008,-1.8008,-1.8008,-1.8008,-1.8008,-1.8008,-1.8008,-1.8008,-1.8008,-1.8008,-1.8008,0.0,0.0,0.0,0.0,0.0,0.0,0.0,0.0,0.0,0.0,0.0,0.0,0.0,0.0,0.0,0.0,0.0,0.0,0.0,0.0,0.0,0.0,0.0,0.0,0.0,0.0,0.0,0.0,0.0,0.0,-0.63,0.0,0.0,0.0,0.0,0.0,0.0,0.0,0.0,0.0,0.0,0.0,0.0,0.0,0.0,0.0,0.0,0.0,0.0,0.0,0.0,0.0,0.0,-1.2305,-1.2305,-1.2305,-1.2305,-1.2305,-1.2305,-1.2305,-1.2305,-1.2305,-1.2305,-1.2305,0.0,0.0,0.0,0.0,0.0,0.0,0.0,0.0,0.0,0.0,0.0,0.0,0.0,0.0,0.0,0.0,0.0,0.0,0.0,0.0,0.0,0.0,0.0,0.0,0.0,0.0,-1.2856,-1.3593,-1.4057,0.0,0.0,0.0,0.0,0.0,0.0,0.0,0.0,0.0,0.0,-1.8008,-1.8008,-1.8008,-1.8008,-1.8008,-1.8008,-1.8008,-1.8008,-1.8008,-1.8008,-1.8008,0.0,0.0,0.0,0.0,0.0,0.0,0.0,0.0,0.0,0.0,0.0,0.0,0.0,0.0,0.0,0.0,0.0,0.0,0.0,0.0,0.0,0.0,0.0,0.0,0.0,0.0,0.0,-0.7557,-0.7138,0.0,0.0,0.0,0.0,0.0,0.0,0.0,0.0,0.0,0.0,0.0,-1.1892,-1.1966,0.0,0.0,0.0,0.0,0.0,0.0,0.0,0.0,0.0,0.0,0.0,0.0,-1.2305,-1.2305,-1.2305,-1.2305,-1.2305,-1.2305,-1.2305,-1.2305,-1.2305,-1.2305,-1.2305,0.0,0.0,0.0,0.0,0.0,0.0,0.0,0.0,0.0,0.0,0.0,0.0,0.0,0.0,0.0,0.0,0.0,0.0,0.0,0.0,0.0,0.0,0.0,0.0,0.0,-1.2452,0.0,0.0,0.0,0.0,0.0,0.0,0.0,0.0,0.0,0.0,0.0,-1.8008,-1.8008,-1.8008,-1.8008,-1.8008,-1.8008,-1.8008,0.0,0.0,0.0,0.0,0.0,0.0,0.0,0.0,0.0,0.0,0.0,0.0,0.0,0.0,-1.7369,-1.6804,-1.6697,-1.6697,-1.6697,0.0,0.0,0.0,0.0,0.0,0.0,0.0,0.0,0.0,0.0,0.0,0.0,0.0,0.0,0.0,0.0,-0.7897,0.0,0.0,0.0,0.0,0.0,0.0,0.0,0.0,-1.1143,-1.1781,-1.2083,-1.2077,-1.215,0.0,-1.2305,-1.2305,0.0,0.0,0.0,0.0,0.0,0.0,0.0,0.0,-1.2305,-1.2305,-1.2305,-1.2305,-1.2305,-1.2305,-1.2305,-1.2305,-1.2305,-1.2305,-1.2305,-1.2305,-1.2305,0.0,0.0,0.0,0.0,0.0,0.0,0.0,0.0,0.0,0.0,0.0,0.0,0.0,0.0,0.0,0.0,0.0,0.0,0.0,0.0,0.0,0.0,0.0,-1.2599,0.0,0.0,0.0,0.0,0.0,0.0,0.0,0.0,0.0,-1.752,-1.7794,-1.8008,-1.8008,-1.8008,-1.8008,-1.8008,0.0,0.0,0.0,0.0,0.0,0.0,0.0,-1.8008,-1.8008,-1.8008,-1.8008,-1.8008,-1.8008,-1.8008,-1.8008,0.0,0.0,-1.7243,-1.7178,-1.7145,-1.7145,-1.7135,-1.721,-1.7298,-1.7612,-1.7909,0.0,0.0,0.0,0.0,0.0,0.0,0.0,0.0,-0.9631,-0.9448,0.0,-0.8499,0.0,0.0,0.0,0.0,0.0,0.0,0.0,0.0,-1.1892,-1.212,-1.2305,-1.2305,-1.2305,-1.2305,-1.2305,-1.2305,-1.2305,-1.2298,0.0,0.0,0.0,0.0,0.0,0.0,-1.2305,-1.2305,-1.2305,-1.2305,-1.2305,-1.2305,-1.2305,-1.2305,-1.2305,-1.2305,-1.2305,-1.2305,-1.2305,-1.2305,-1.2268,0.0,0.0,0.0,0.0,0.0,0.0,0.0,0.0,0.0,0.0,0.0,0.0,0.0,0.0,0.0,0.0,0.0,0.0,0.0,0.0,-1.2673,0.0,0.0,0.0,0.0,0.0,0.0,0.0,0.0,0.0,0.0,-1.794,-1.7974,-1.8008,-1.8008,0.0,0.0,0.0,0.0,-1.8008,-1.8008,-1.8008,-1.8008,-1.8008,-1.8008,-1.8008,-1.8008,0.0,0.0,-1.8008,-1.8008,-1.8008,-1.8008,-1.8008,-1.8008,-1.7988,-1.7949,-1.7969,-1.7969,-1.7949,-1.7988,-1.7998,-1.8065,-1.8307,-0.8068,0.0,0.0,0.0,0.0,-0.8068,-0.8289,-0.8627,-0.8998,-0.9036,-0.8889,-0.9084,0.0,0.0,0.0,0.0,0.0,0.0,-1.0812,-1.1292,-1.1781,-1.212,-1.2305,-1.2305,-1.2305,-1.2305,-1.2305,-1.2305,-1.2305,-1.2305,-1.2265,-1.2214,0.0,0.0,0.0,0.0,-1.2305,-1.2305,-1.2305,-1.2305,-1.2305,-1.2305,-1.2305,-1.2305,-1.2305,-1.2305,-1.2305,-1.2305,-1.2305,-1.2305,-1.2305,0.0,0.0,0.0,0.0,0.0,0.0,0.0,0.0,0.0,0.0,0.0,0.0,0.0,0.0,0.0,0.0,0.0,0.0,0.0,-1.2305,-1.2673,-1.29,0.0,0.0,0.0,0.0,0.0,0.0,0.0,0.0,0.0,-1.7451,-1.7759,-1.8008,0.0,0.0,-1.8008,-1.8008,-1.8008,-1.8008,-1.8008,0.0,0.0,0.0,-1.8008,-1.8008,-1.8008,-1.8008,-1.8008,-1.8008,-1.8008,-1.8008,-1.8008,-1.8008,-1.8008,-1.8008,-1.8008,-1.8008,-1.8008,-1.8008,-1.8008,-1.8008,-1.8042,-1.8134,-0.8566,-0.8238,-0.8013,-0.8106,-0.8403,-0.8327,-0.8518,-0.897,-0.9496,-0.9609,-0.942,-0.9803,-0.9911,-0.983,-0.9943,0.0,0.0,0.0,-1.1111,-1.149,-1.1892,-1.2194,-1.2305,-1.2305,-1.2305,-1.2305,-1.2305,-1.2305,-1.2305,-1.2305,-1.2305,-1.2305,0.0,0.0,-1.2305,-1.2305,-1.2305,-1.2305,-1.2305,-1.2305,-1.2305,-1.2305,-1.2305,-1.2305,-1.2077,-1.1929,-1.1929,-1.1972,-1.1929,-1.1935,-1.2194,-1.2305,0.0,0.0,0.0,0.0,0.0,0.0,0.0,0.0,0.0,0.0,0.0,-1.2305,-1.2305,0.0,0.0,0.0,-1.2305,-1.2335,-1.2409,-1.2709,0.0,0.0,0.0,0.0,0.0,0.0,0.0,-1.5613,-1.6341,-1.695,-1.7166,-1.7476,-1.7769,-1.7974,-1.8008,-1.8008,-1.8008,0.0,-1.8008,-1.8008,-1.8008,-1.8008,-1.8008,-1.8008,-1.8008,-1.8008,-1.8008,-1.8008,-1.8008,-1.8008,-1.8008,-1.8008,-1.8008,-1.8008,-1.8008,-1.8008,-1.8008,-1.8008,-1.8008,-1.8008,-1.8008,-1.8008,-1.8076,-0.9205,-0.8968,-0.8417,-0.8602,-0.9238,-0.9128,-0.9514,-1.0241,-1.0651,-1.0764,-1.0608,-1.0538,-1.0689,-1.099,-1.1215,0.0,-1.1434,-1.1814,-1.2044,-1.2112,-1.2267,-1.2378,-1.2371,-1.2378,-1.2378,-1.2378,-1.2371,-1.2371,-1.2385,-1.2378,-1.2378,-1.2378,-1.2334,-1.2314,-1.2305,-1.2305,-1.2305,-1.2305,-1.2305,-1.2305,-1.2305,-1.2305,-1.2268,-1.2231,-1.1744,-1.1446,-1.1335,-1.1372,-1.1409,-1.1446,-1.1929,-1.2261,-1.2305,0.0,0.0,0.0,0.0,0.0,0.0,0.0,0.0,0.0,0.0,0.0,0.0,0.0,0.0,0.0,-1.2305,0.0,-1.2562,-1.2783,0.0,0.0,0.0,-1.4302,-1.4796,-1.5196,-1.5594,-1.6097,0.0,0.0,-1.7063,0.0,-1.7451,-1.794,-1.8008,-1.8008,-1.8008,-1.8008,-1.8008,-1.8008,-1.8008,-1.8008,-1.8008,-1.8008,-1.8008,-1.8008,-1.8008,-1.8008,-1.8008,-1.8008,-1.8008,-1.8008,-1.8008,-1.8008,-1.8008,-1.8008,-1.8008,-1.8008,-1.8008,-1.8008,-1.8008,-1.8008,-1.8042,-0.9286,-0.9191,-0.8896,-0.8899,-0.9141,-0.9617,-1.0056,-1.041,-1.1005,-1.14,-1.1597,-1.0886,-1.041,-1.0136,-1.0381,-1.0852,-1.149,-1.1766,-1.2283,-1.2876,-1.2954,-1.2993,-1.2993,-1.2993,-1.2999,-1.2999,-1.2993,-1.2993,-1.2993,-1.2999,-1.2993,-1.2954,-1.2479,-1.2254,-1.2288,-1.2305,-1.2305,-1.2305,-1.2305,-1.2305,-1.2305,-1.2305,-1.2077,-1.1632,-1.1929,-1.1669,-1.0775,-1.1149,-1.1409,-1.1409,-1.1515,-1.1824,-1.2268,-1.2305,0.0,0.0,0.0,0.0,0.0,0.0,0.0,0.0,0.0,-1.2305,-1.2305,0.0,-1.2305,0.0,-1.2305,-1.2378,-1.2592,-1.2783,0.0,0.0,-1.3848,-1.4201,-1.4497,-1.4713,-1.4848,-1.4982,-1.5754,-1.6376,-1.6481,-1.727,-1.7872,-1.8008,-1.8008,-1.8008,-1.8008,-1.8008,-1.8008,-1.8008,-1.8008,-1.8008,-1.8008,-1.8008,-1.8008,-1.8008,-1.8008,-1.8008,-1.8008,-1.8008,-1.8008,-1.8008,-1.8008,-1.8008,-1.8008,-1.8008,-1.8008,-1.8008,-1.8008,-1.8008,-1.8008,-1.8008,-1.8008,-0.9794,-0.9707,-0.9582,-0.9447,-0.9343,-0.9322,-0.9368,-0.9526,-1.0131,-1.049,-1.0611,-1.046,-1.0258,-1.0024,-1.0673,-1.1036,-1.1232,-1.208,-1.2565,-1.277,-1.3055,-1.3048,-1.277,-1.277,-1.2598,-1.228,-1.228,-1.228,-1.228,-1.2273,-1.2273,-1.224,-1.1914,-1.1724,-1.1743,-1.1769,-1.1922,-1.2241,-1.2241,-1.2183,-1.2054,-1.2348,-1.2282,-1.1824,-1.1855,-1.1595,-1.0925,-1.0962,-1.0999,-1.0999,-1.126,-1.1558,-1.1892,-1.215,-1.2305,0.0,0.0,0.0,0.0,0.0,0.0,0.0,0.0,0.0,0.0,0.0,-1.2305,-1.2305,-1.2305,-1.2415,-1.2709,-1.2826,-1.3083,-1.3572,-1.392,-1.4173,-1.4389,-1.4497,-1.4713,-1.4963,-1.5338,-1.571,-1.6237,-1.6638,-1.7107,-1.7588,-1.7657,-1.7725,-1.7974,-1.8008,-1.8008,-1.8008,-1.8008,-1.8008,-1.8008,-1.8008,-1.8008,-1.8008,-1.8008,-1.8008,-1.8008,-1.8008,-1.8008,-1.8008,-1.8008,-1.8008,-1.8008,-1.8008,-1.8008,-1.8008,-1.8008,-1.8008,-1.8008,-1.8008,-1.8008,-1.0477,-1.0246,-1.0158,-1.0019,-0.9734,-0.8811,-0.8455,-0.866,-0.9285,-0.938,-0.9151,-0.9942,-1.0187,-1.0152,-1.1126,-1.1288,-1.0876,-1.2265,-1.2673,-1.2218,-1.2793,-1.2713,-1.2184,-1.2184,-1.1815,-1.1236,-1.1236,-1.1196,-1.1201,-1.1201,-1.1242,-1.1201,-1.1155,-1.112,-1.1201,-1.1039,-1.1335,-1.204,-1.204,-1.1924,-1.1615,-1.2267,-1.2406,-1.2058,-1.1552,-1.1272,-1.1197,-1.0755,-1.0556,-1.0631,-1.1117,-1.1446,-1.1521,-1.2009,-1.2305,0.0,-1.2305,0.0,0.0,0.0,0.0,0.0,0.0,0.0,0.0,-1.2305,-1.2305,-1.2305,-1.2305,-1.2489,-1.2856,-1.29,-1.3127,-1.3754,-1.4,-1.4201,-1.4389,-1.4533,-1.4784,-1.5328,-1.4991,-1.5133,-1.6,-1.5842,-1.6017,-1.7028,-1.727,-1.7451,-1.7906,-1.8008,-1.8008,-1.8008,-1.8008,-1.8008,-1.8008,-1.8008,-1.8008,-1.8008,-1.8008,-1.8008,-1.8008,-1.8008,-1.8008,-1.8008,-1.8008,-1.8008,-1.8008,-1.8008,-1.8008,-1.8008,-1.8008,-1.8008,-1.8008,-1.8008,-1.8008,-1.0575,-1.0477,-1.0065,-0.9833,-0.9727,-0.9179,-0.9477,-1.036,-1.1069,-1.097,-1.03,-1.0467,-1.0134,-0.9493,-0.9876,-1.0257,-1.068,-1.1192,-1.166,-1.2041,-1.2168,-1.2174,-1.2047,-1.2041,-1.1957,-1.1829,-1.1829,-1.1829,-1.1829,-1.1829,-1.1829,-1.1829,-1.1277,-1.1283,-1.1745,0.0,0.0,0.0,-1.1307,-1.129,-1.1198,-1.1352,-1.1175,-1.0647,-1.0801,0.0,-1.0224,-1.0394,-1.0738,-1.1223,-1.1335,0.0,0.0,0.0,0.0,0.0,0.0,0.0,0.0,0.0,0.0,0.0,-1.2305,-1.2305,-1.2305,-1.2305,-1.2305,-1.2305,-1.2305,-1.2452,-1.2863,-1.29,-1.3185,-1.3949,-1.4057,-1.4238,-1.4533,-1.4569,-1.4685,-1.4748,-1.5106,-1.539,-1.5594,-1.5939,-1.6385,-1.7019,-1.7201,-1.7417,-1.7906,-1.7974,-1.8008,-1.8008,-1.7974,-1.8008,-1.8008,-1.8008,-1.8008,-1.8008,-1.8008,-1.8008,-1.8008,-1.8008,-1.8008,-1.8008,-1.8008,-1.8008,-1.8008,-1.8008,-1.8008,-1.8008,-1.8008,-1.8008,-1.8008,-1.8008,-1.8008,-1.0829,0.0,-1.0405,-1.0166,0.0,-0.9644,-0.9783,-1.0235,-1.0445,-1.0348,-1.0074,-1.0298,-1.0112,-0.9629,-1.0195,-1.0397,-1.0337,-1.1111,-1.1499,-1.1542,-1.1843,-1.1837,-1.1499,-1.1499,-1.1327,-1.1025,-1.103,-1.103,-1.0982,-1.1025,-1.103,-1.1025,-1.0679,-1.0684,-1.0982,-1.0342,-1.0186,-1.0559,-1.0888,-1.0954,-1.084,-1.1163,-1.1148,-1.0673,0.0,0.0,0.0,0.0,0.0,0.0,0.0,0.0,0.0,0.0,0.0,-1.2305,-1.2305,-1.2305,-1.2305,-1.2305,-1.2305,-1.2305,-1.2305,-1.2305,-1.2305,-1.2305,-1.2305,-1.2305,-1.2305,-1.2415,-1.2709,-1.2826,-1.3193,-1.3848,-1.4029,-1.4245,-1.4533,-1.4605,-1.4605,-1.4605,-1.4856,-1.5034,-1.507,-1.5275,-1.5824,-1.6559,-1.6542,-1.6682,-1.7417,-1.7623,-1.7623,-1.7623,-1.7872,-1.8008,-1.8008,-1.8008,-1.8018,-1.8008,-1.8008,-1.8008,-1.8008,-1.8008,-1.8008,-1.8008,-1.8008,-1.8008,-1.8008,-1.8008,-1.8008,-1.8008,-1.8008,-1.8008,-1.8008,-1.8008,-1.8008,-1.1077,-1.08,-1.0751,-1.0485,-1.0019,-1.0004,-0.9895,-0.9702,0.0,0.0,0.0,-1.0111,-1.0141,-1.0052,-1.0761,-1.0726,-1.0086,-1.116,-1.137,-1.0852,-1.1413,-1.137,-1.0814,-1.0814,-1.0506,-1.0038,-0.9994,-0.9994,-0.9994,-0.9994,-0.9994,-0.9994,-0.9994,-0.9994,-0.9994,-0.9994,-0.9994,-1.0038,-1.0554,-1.0679,-1.0452,-1.0994,-1.1194,-1.0914,-1.0865,-1.0889,-1.1006,-1.0807,-1.0751,-1.0863,-1.1241,-1.1446,-1.1484,-1.1998,-1.2305,-1.2305,-1.2305,-1.2305,-1.2305,-1.2305,-1.2305,-1.2305,-1.2305,-1.2305,-1.2305,-1.2305,-1.2305,-1.2305,-1.2305,-1.2378,-1.2562,-1.279,-1.3127,-1.3681,-1.3928,-1.4173,-1.4497,-1.4569,-1.4569,-1.4605,-1.4605,-1.4605,-1.4605,-1.4633,-1.4955,-1.5824,-1.5842,-1.5814,-1.6754,-1.7119,-1.7351,-1.7574,-1.7933,-1.8164,-1.8232,-1.8281,-1.8242,-1.8301,-1.8281,-1.8232,-1.8232,-1.8242,-1.8213,-1.8154,-1.8081,-1.8061,-1.8027,-1.8008,-1.8008,-1.8008,-1.8008,-1.8008,-1.8008,-1.8008,-1.8008,-1.1099,-1.0843,-1.0651,-1.0403,-1.0159,-1.0101,-1.0166,-1.0293,-1.004,-1.0133,-1.0436,-1.0528,-1.0415,-1.0227,-1.0407,-1.0292,-0.9999,-1.0212,-1.0207,0.0,-1.025,-1.025,-1.0125,-1.0125,-1.0081,-0.9994,-0.9994,-0.9994,-0.9994,-0.9994,-0.9994,-0.9994,-0.9994,-0.9994,-0.9994,-0.9994,-0.9994,-0.9994,-1.0077,-1.0111,-1.0082,-1.0168,-1.0197,-1.0158,-0.994,-1.0058,-1.0549,-1.0376,-1.0538,-1.1004,-1.1444,-1.166,-1.1686,-1.2071,-1.2305,-1.2305,-1.2305,-1.2305,-1.2311,-1.2305,-1.2305,-1.2305,-1.2305,-1.2305,-1.2305,-1.2305,-1.2305,-1.2305,-1.2305,-1.2372,-1.2562,-1.2783,-1.3046,-1.347,-1.3725,-1.4008,-1.4385,-1.4472,-1.4508,-1.4624,-1.4605,-1.4637,-1.4632,-1.4653,-1.492,-1.5451,-1.5686,-1.5703,-1.623,-1.6775,-1.7518,-1.8203,-1.844,-1.8676,-1.8854,-1.9092,-1.9033,-1.9102,-1.9043,-1.9004,-1.8994,-1.8994,-1.8887,-1.8568,-1.852,-1.8393,-1.8144,-1.8008,-1.8047,-1.8057,-1.8047,-1.8008,-1.8008,-1.8008,-1.8008,-1.08,-1.0805,-1.0608,-1.0464,-1.0321,-1.0072,-1.0065,-1.0292,-1.0314,-1.0475,-1.0714,-1.0754,-1.0683,-1.0478,-1.0369,-1.0198,-0.9994,-0.9994,-0.9994,-0.9994,-0.9994,-0.9994,-0.9994,-0.9994,-0.9994,-0.9994,-0.9994,-0.9994,-0.9994,-0.9994,-0.9994,-0.9994,-0.9994,-0.9994,-0.9994,-0.9994,-0.9994,-0.9994,-0.9994,-0.9994,-0.9994,-0.9994,-0.9994,-0.9994,-0.9856,-0.9938,-1.0233,-1.0319,-1.0486,-1.0769,-1.1552,-1.1975,-1.1969,-1.2479,-1.2792,-1.2792,-1.2792,-1.2799,-1.2792,-1.2792,-1.2799,-1.2792,-1.2792,-1.2792,-1.2799,-1.2492,-1.2305,-1.2305,-1.2305,-1.2335,-1.2409,-1.2599,-1.2926,-1.3362,-1.3681,-1.4097,-1.4471,-1.4689,-1.4757,-1.4832,-1.4952,-1.5026,-1.5034,-1.513,-1.5383,-1.5938,-1.6048,-1.6124,-1.6229,-1.6564,-1.697,-1.7432,-1.7989,-1.8474,-1.8746,-1.9105,-1.9241,-1.9277,-1.9277,-1.9277,-1.9277,-1.9287,-1.9209,-1.9043,-1.8994,-1.8916,-1.8701,-1.8496,-1.8354,-1.8295,-1.8144,-1.8037,-1.8008,-1.8008,-1.8008,-1.0458,-1.0554,-1.0459,-1.0419,-1.0348,-0.9966,-0.9908,-1.0184,-1.0301,-1.0485,-1.0686,-1.0843,-1.0754,-1.0545,-1.0388,-1.0198,-1.0013,-0.9994,-0.9994,-0.9994,-0.9994,-0.9994,-0.9994,-0.9994,-0.9994,-0.9994,-0.9994,-0.9994,-0.9994,-0.9994,-0.9994,-0.9994,-0.9994,-0.9994,-0.9994,-0.9994,-0.9994,-0.9994,-0.9994,-0.9994,-0.9994,-0.9994,-0.9994,-0.9994,-0.9994,-0.9994,-1.0028,-1.0261,-1.0378,-1.0457,-1.1448,-1.2045,-1.2085,-1.2802,-1.3206,-1.3206,-1.3206,-1.3206,-1.3206,-1.3206,-1.3206,-1.3206,-1.3206,-1.3206,-1.3173,-1.2786,-1.2505,-1.2505,-1.2532,-1.2525,-1.2576,-1.2713,-1.2975,-1.3348,-1.3696,-1.4096,-1.4484,-1.4762,-1.4863,-1.4948,-1.5196,-1.542,-1.5428,-1.5566,-1.5795,-1.616,-1.6382,-1.644,-1.6448,-1.6497,-1.6564,-1.677,-1.7605,-1.8518,-1.8592,-1.9191,-1.9582,-1.958,-1.9646,-1.9648,-1.9639,-1.96,-1.9512,-1.9482,-1.9424,-1.9346,-1.9277,-1.9023,-1.8818,-1.8769,-1.8584,-1.8359,-1.8379,-1.8379,-1.8213,-1.0211,-0.9938,-1.0074,-1.0132,-1.0083,-0.9778,-0.9813,-1.0082,-1.0028,-1.0059,-1.0277,-1.0721,-1.0664,-1.0334,-1.0322,-1.0194,-0.9999,-0.9994,-0.9994,-0.9994,-0.9994,-0.9994,-0.9994,-0.9994,-0.9994,-0.9994,-0.9994,-0.9994,-0.9994,-0.9994,-0.9994,-0.9994,-0.9994,-0.9994,-0.9994,-0.9994,-0.9994,-0.9994,-0.9994,-0.9994,-0.9994,-0.9994,-0.9994,-0.9994,-0.9994,-0.9994,-0.9994,-1.0024,-1.0048,-1.0125,-1.1111,-1.1692,-1.1757,-1.2624,-1.322,-1.3227,-1.322,-1.3206,-1.322,-1.3206,-1.3233,-1.3206,-1.324,-1.324,-1.324,-1.3173,-1.3126,-1.312,-1.312,-1.308,-1.312,-1.3243,-1.3386,-1.3441,-1.3696,-1.3906,-1.4173,-1.4333,-1.4528,-1.4691,-1.5164,-1.5405,-1.5475,-1.5661,-1.5768,-1.5947,-1.6203,-1.6308,-1.6332,-1.6525,-1.6645,-1.6919,-1.7944,-1.8922,-1.9319,-2.0042,-2.0255,-2.0361,-2.041,-2.0342,-2.0303,-2.0351,-2.037,-1.9912,-1.9853,-1.9746,-1.9492,-1.9228,-1.9248,-1.9209,-1.9141,-1.9111,-1.9187,-1.9092,-1.8838,-0.9788,-0.9935,-0.9896,-0.9862,-0.9887,-0.9776,-0.9802,-0.9887,-0.9868,-0.9822,-0.9821,-1.0025,-1.0195,-1.0267,-1.0184,-1.0075,-0.9999,-0.9994,-0.9994,-0.9994,-0.9994,-0.9994,-0.9994,-0.9994,-0.9994,-0.9994,-0.9994,-0.9994,-0.9994,-0.9994,-0.9994,-0.9994,-0.9994,-0.9994,-0.9994,-0.9994,-0.9994,-0.9994,-0.9994,-0.9994,-0.9994,-0.9994,-0.9994,-0.9994,-0.9994,-0.9994,-0.9994,-0.9994,-0.9994,-1.0077,-1.1187,-1.1824,-1.1866,-1.3029,-1.3728,-1.3728,-1.3728,-1.3728,-1.3728,-1.3728,-1.3728,-1.3734,-1.3728,-1.3728,-1.3728,-1.3728,-1.3734,-1.3694,-1.3414,-1.3206,-1.322,-1.3286,-1.3379,-1.3527,-1.3776,-1.3992,-1.426,-1.4614,-1.4866,-1.4947,-1.5433,-1.5828,-1.5836,-1.6069,-1.6261,-1.6309,-1.6444,-1.6451,-1.6483,-1.661,-1.6673,-1.6796,-1.7597,-1.8408,-1.8979,-1.9599,-2.0079,-2.0401,-2.0245,-2.0079,-2.0527,-2.0615,-2.0517,-2.0303,-2.0273,-2.0225,-2.0127,-1.9795,-1.9658,-1.9629,-1.9394,-1.9277,-1.9277,-1.9277,-1.9082,-0.9371,-0.9604,-0.9477,-0.9446,-0.9506,-0.9397,-0.9414,-0.9482,-0.9401,-0.9353,-0.9412,-0.9396,-0.9678,-1.0015,-0.9918,-0.9912,-0.9907,-0.9951,-0.9994,-0.9994,-0.9994,-0.9994,-0.9994,-0.9994,-0.9994,-0.9994,-0.9994,-0.9994,-0.9994,-0.9994,-0.9994,-0.9994,-0.9994,-0.9994,-0.9994,-0.9994,-0.9994,-0.9994,-0.9994,-0.9994,-0.9994,-0.9994,-0.9994,-0.9994,-0.9994,-0.9994,-0.9994,-0.9994,-0.9994,-1.0038,-1.1284,-1.1972,-1.2057,-1.3307,-1.4088,-1.4088,-1.4088,-1.4088,-1.4088,-1.4088,-1.4088,-1.4088,-1.4088,-1.4088,-1.4088,-1.4088,-1.4088,-1.4041,-1.3701,-1.3467,-1.3447,-1.3447,-1.3547,-1.3741,-1.3919,-1.4103,-1.4273,-1.4706,-1.4977,-1.5041,-1.5606,-1.6177,-1.6294,-1.6509,-1.6642,-1.665,-1.6665,-1.6689,-1.6689,-1.6689,-1.6689,-1.673,-1.7294,-1.7853,-1.8376,-1.8975,-1.9569,-2.0001,-1.9883,-1.9923,-2.045,-2.0566,-2.0615,-2.0488,-2.0576,-2.0576,-2.0439,-2.0195,-2.0068,-2.0029,-1.9844,-1.9629,-1.9793,-1.9658,-1.959,-0.9032,-0.8825,-0.8657,-0.8721,-0.8814,-0.843,-0.8448,-0.8836,-0.8493,-0.8641,-0.9128,-0.9013,-0.9163,-0.9525,-0.9557,-0.9602,-0.9646,-0.9907,-0.9994,-0.9994,-0.9994,-0.9994,-0.9994,-0.9994,-0.9994,-0.9994,-0.9994,-0.9994,-0.9994,-0.9994,-0.9994,-0.9994,-0.9994,-0.9994,-0.9994,-0.9994,-0.9994,-0.9994,-0.9994,-0.9994,-0.9994,-0.9994,-0.9994,-0.9994,-0.9994,-0.9994,-0.9994,-0.9994,-1.0038,-1.0038,-1.1284,-1.2015,-1.2137,-1.3349,-1.4088,-1.4088,-1.4088,-1.4088,-1.4088,-1.4088,-1.4088,-1.4088,-1.4088,-1.4088,-1.4088,-1.4088,-1.4088,-1.4082,-1.4021,-1.3981,-1.3981,-1.3941,-1.3981,-1.4021,-1.409,-1.4097,-1.4117,-1.4496,-1.4692,-1.4859,-1.5541,-1.6211,-1.6574,-1.6689,-1.6689,-1.6689,-1.6689,-1.6689,-1.6689,-1.6689,-1.6689,-1.6812,-1.7221,-1.7691,-1.7813,-1.8296,-1.8926,-1.9371,-1.9569,-1.9687,-2.0206,-2.0615,-2.0566,-2.0566,-2.0566,-2.0566,-2.0595,-2.0576,-2.0517,-2.0478,-2.0458,-2.0361,-2.0233,-2.0458,-2.0351,-0.8735,-0.8775,-0.8716,-0.8723,-0.8753,-0.8635,-0.871,-0.892,-0.8606,-0.859,-0.8777,-0.8675,-0.8613,-0.8694,-0.9024,-0.9301,-0.9602,-0.9864,-0.9994,-0.9994,-0.9994,-0.9994,-0.9994,-0.9994,-0.9994,-0.9994,-0.9994,-0.9994,-0.9994,-0.9994,-0.9994,-0.9994,-0.9994,-0.9994,-0.9994,-0.9994,-0.9994,-0.9994,-0.9994,-0.9994,-0.9994,-0.9994,-0.9994,-0.9994,-0.9994,-0.9994,-0.9994,-0.9994,-1.0207,-1.0641,-1.1542,-1.2186,-1.2705,-1.3568,-1.4088,-1.4088,-1.4088,-1.4088,-1.4088,-1.4088,-1.4088,-1.4088,-1.4088,-1.4088,-1.4088,-1.4088,-1.4088,-1.4088,-1.4088,-1.4088,-1.4088,-1.4088,-1.4088,-1.4088,-1.4088,-1.4088,-1.4166,-1.4447,-1.4692,-1.4859,-1.5499,-1.6245,-1.6574,-1.6689,-1.6689,-1.6689,-1.6689,-1.6689,-1.6689,-1.6689,-1.6689,-1.673,-1.6894,-1.7057,-1.7057,-1.7619,-1.8215,-1.8576,-1.8856,-1.8856,-1.9173,-1.9805,-1.9883,-2.0001,-2.0167,-2.0527,-2.0518,-2.0605,-2.0615,-2.0615,-2.0615,-2.0615,-2.0605,-2.0615,-2.0546,-0.846,-0.8607,-0.866,-0.8574,-0.8574,-0.8474,-0.8612,-0.8785,-0.8486,-0.8442,-0.8527,-0.8435,-0.8367,-0.8491,-0.88,-0.9133,-0.9513,-0.9715,-0.9825,-0.9864,-0.9864,-0.9907,-0.9994,-0.9994,-0.9994,-0.9994,-0.9994,-0.9994,-0.9994,-0.9994,-0.9994,-0.9994,-0.9994,-0.9994,-0.9994,-0.9994,-0.9994,-0.9994,-0.9994,-0.9994,-0.9994,-0.9994,-0.9994,-0.9994,-0.9994,-0.9994,-0.9994,-0.9994,-1.0164,-1.0727,-1.1494,-1.2406,-1.3264,-1.3822,-1.4088,-1.4088,-1.4088,-1.4088,-1.4088,-1.4088,-1.4088,-1.4088,-1.4088,-1.4088,-1.4088,-1.4088,-1.4088,-1.4088,-1.4088,-1.4088,-1.4088,-1.4088,-1.4088,-1.4088,-1.4088,-1.4088,-1.413,-1.4454,-1.4776,-1.511,-1.5665,-1.6203,-1.6533,-1.6648,-1.6689,-1.6689,-1.6689,-1.6689,-1.6689,-1.6689,-1.6689,-1.6689,-1.6689,-1.6771,-1.6812,-1.718,-1.7659,-1.8014,-1.8215,-1.8175,-1.8376,-1.8966,-1.9323,-1.9441,-1.9766,-2.0245,-2.0489,-2.0566,-2.0615,-2.0615,-2.0615,-2.0615,-2.0615,-2.0615,-2.0556,-0.831,-0.8347,-0.8316,-0.8211,-0.8077,-0.7955,-0.798,-0.8205,-0.8046,-0.8211,-0.8497,-0.8368,-0.8491,-0.8859,-0.8855,-0.911,-0.9313,-0.9325,-0.9455,-0.9666,-0.9657,-0.9784,-0.9964,-0.9993,-1.0009,-0.9994,-0.9994,-0.9994,-0.9994,-0.9994,-0.9994,-0.9994,-0.9994,-0.9994,-0.9994,-0.9994,-0.9994,-0.9994,-0.9994,-0.9994,-0.9994,-0.9994,-0.9994,-0.9994,-0.9994,-0.9994,-0.9994,-0.9994,-1.0038,-1.025,-1.1327,-1.2662,-1.3786,-1.4082,-1.4088,-1.4088,-1.4088,-1.4088,-1.4088,-1.4088,-1.4088,-1.4088,-1.4088,-1.4088,-1.4088,-1.4088,-1.4088,-1.4088,-1.4088,-1.4088,-1.4088,-1.4088,-1.4088,-1.4088,-1.4088,-1.4088,-1.4166,-1.4447,-1.4943,-1.5484,-1.5914,-1.617,-1.636,-1.6566,-1.6689,-1.6689,-1.6689,-1.6689,-1.6689,-1.6689,-1.6689,-1.6689,-1.6689,-1.6689,-1.6689,-1.673,-1.7131,-1.7497,-1.7619,-1.7691,-1.8023,-1.8456,-1.8616,-1.8776,-1.9441,-1.9923,-2.0274,-2.0362,-2.0566,-2.0615,-2.0615,-2.0615,-2.0615,-2.0615,-2.0615,-0.8113,-0.8113,-0.8109,-0.8035,-0.7985,-0.7938,-0.8077,-0.821,-0.8065,-0.8077,-0.8182,-0.8201,-0.8248,-0.8281,-0.8406,-0.8668,-0.8885,-0.8916,-0.9192,-0.9653,-0.9698,-0.9776,-0.9845,-0.9921,-0.996,-1.0013,-0.9994,-0.9994,-0.9999,-0.9994,-0.9994,-0.9994,-0.9994,-0.9994,-0.9994,-0.9994,-0.9994,-0.9994,-0.9994,-0.9994,-0.9994,-0.9994,-0.9994,-0.9994,-0.9994,-0.9994,-0.9994,-0.9994,-1.0207,-1.0636,-1.1542,-1.2662,-1.3786,-1.4088,-1.4088,-1.4088,-1.4088,-1.4088,-1.4088,-1.4088,-1.4088,-1.4088,-1.4088,-1.4088,-1.4088,-1.4088,-1.4088,-1.4088,-1.4088,-1.4088,-1.4088,-1.4088,-1.4088,-1.4088,-1.4088,-1.4088,-1.4166,-1.4447,-1.4894,-1.5436,-1.5865,-1.6162,-1.6353,-1.6566,-1.6689,-1.6689,-1.6689,-1.6689,-1.6689,-1.6689,-1.6689,-1.6689,-1.6689,-1.6689,-1.6689,-1.6689,-1.6894,-1.709,-1.7172,-1.7253,-1.7578,-1.7821,-1.7942,-1.8336,-1.8975,-1.9529,-1.9883,-2.0196,-2.0362,-2.0566,-2.0615,-2.0615,-2.0615,-2.0615,-2.0615,-0.7988,-0.7988,-0.7988,-0.7988,-0.7988,-0.7988,-0.8092,-0.8163,-0.8032,-0.7988,-0.8018,-0.8094,-0.8143,-0.8106,-0.8284,-0.8471,-0.8707,-0.8754,-0.8997,-0.944,-0.9597,-0.9698,-0.9778,-0.9861,-0.9872,-0.9924,-0.9935,-0.9986,-0.9937,-0.9989,-0.9994,-0.9994,-0.9994,-0.9994,-0.9994,-0.9994,-0.9994,-0.9994,-0.9994,-0.9994,-0.9994,-0.9994,-0.9994,-0.9994,-0.9994,-0.9994,-0.9994,-0.9994,-1.0164,-1.0727,-1.1499,-1.2662,-1.3913,-1.4088,-1.4088,-1.4088,-1.4088,-1.4088,-1.4088,-1.4088,-1.4088,-1.4088,-1.4088,-1.4088,-1.4088,-1.4088,-1.4088,-1.4088,-1.4088,-1.4088,-1.4088,-1.4088,-1.4088,-1.4088,-1.4088,-1.4124,-1.4243,-1.4489,-1.4859,-1.5276,-1.5748,-1.6079,-1.6286,-1.6566,-1.6689,-1.6689,-1.6689,-1.6689,-1.6689,-1.6689,-1.6689,-1.6689,-1.6689,-1.6689,-1.6689,-1.6689,-1.6689,-1.6771,-1.6812,-1.6853,-1.7017,-1.718,-1.7343,-1.7821,-1.8376,-1.9054,-1.9441,-1.9835,-2.0118,-2.0323,-2.0527,-2.0615,-2.0615,-2.0615,-2.0615,-0.7988,-0.7988,-0.7988,-0.7988,-0.7988,-0.7988,-0.7995,-0.7995,-0.7992,-0.7988,-0.7985,-0.8024,-0.812,-0.8319,-0.8329,-0.8477,-0.8715,-0.8735,-0.8769,-0.895,-0.9216,-0.9447,-0.969,-0.9762,-0.982,-0.9809,-0.9863,-0.9872,-0.9826,-0.9907,-0.996,-0.9912,-0.9907,-0.9951,-0.9951,-0.9994,-0.9994,-0.9994,-0.9994,-0.9994,-0.9994,-0.9994,-0.9994,-0.9994,-0.9994,-0.9994,-0.9994,-0.9994,-1.0038,-1.0294,-1.1456,-1.2619,-1.3786,-1.4088,-1.4088,-1.4088,-1.4088,-1.4088,-1.4088,-1.4088,-1.4088,-1.4088,-1.4088,-1.4088,-1.4088,-1.4088,-1.4088,-1.4088,-1.4088,-1.4088,-1.4088,-1.4088,-1.4088,-1.4088,-1.4088,-1.4166,-1.4363,-1.4566,-1.4824,-1.5124,-1.5631,-1.6095,-1.6128,-1.6451,-1.6607,-1.6689,-1.6689,-1.6689,-1.6689,-1.6689,-1.6689,-1.6689,-1.6689,-1.6689,-1.6689,-1.6689,-1.6689,-1.6689,-1.6689,-1.6689,-1.6689,-1.6812,-1.6894,-1.7335,-1.7821,-1.8456,-1.8926,-1.9283,-1.9756,-2.0118,-2.0323,-2.0527,-2.0605,-2.0605,-2.0566,-0.7988,-0.7988,-0.7988,-0.7988,-0.7988,-0.7988,-0.7988,-0.7988,-0.7988,-0.7988,-0.7988,-0.7988,-0.8038,-0.8084,-0.8137,-0.8233,-0.8428,-0.8478,-0.8627,-0.8814,-0.8901,-0.9107,-0.9451,-0.9608,-0.9733,-0.9766,-0.9798,-0.9738,-0.9606,-0.9629,-0.9575,-0.948,-0.965,-0.9694,-0.9733,-0.9907,-0.9994,-0.9994,-0.9994,-0.9994,-0.9994,-0.9994,-0.9994,-0.9994,-0.9994,-0.9994,-0.9994,-0.9994,-1.0511,-1.1413,-1.1752,-1.2619,-1.387,-1.4046,-1.4046,-1.4088,-1.4088,-1.4088,-1.4088,-1.4088,-1.4088,-1.4088,-1.4088,-1.4088,-1.4088,-1.4088,-1.4088,-1.4088,-1.4088,-1.4088,-1.4088,-1.4088,-1.4088,-1.4088,-1.4088,-1.413,-1.4243,-1.4489,-1.4741,-1.4866,-1.5401,-1.5831,-1.6087,-1.6327,-1.6525,-1.6648,-1.6689,-1.6689,-1.6689,-1.6689,-1.6689,-1.6689,-1.6689,-1.6689,-1.6689,-1.6689,-1.6689,-1.6689,-1.6689,-1.6689,-1.6689,-1.673,-1.6771,-1.6935,-1.7375,-1.7974,-1.8256,-1.8536,-1.9125,-1.9756,-1.9844,-1.9932,-2.0411,-2.0566,-2.0566,-0.8079,-0.813,-0.8019,-0.7988,-0.7988,-0.7988,-0.7988,-0.7988,-0.7988,-0.7988,-0.7988,-0.7988,-0.7988,-0.7988,-0.7988,-0.8084,-0.8237,-0.8233,-0.8371,-0.86,-0.8755,-0.8957,-0.9131,-0.9263,-0.9405,-0.9554,-0.9561,-0.9618,-0.9591,-0.9503,-0.945,-0.9433,-0.9429,-0.9476,-0.9476,-0.9689,-0.9825,-0.9864,-0.9951,-0.9994,-0.9994,-0.9994,-0.9994,-0.9994,-0.9994,-0.9994,-0.9994,-0.9994,-1.0511,-1.1327,-1.1623,-1.2186,-1.3476,-1.3652,-1.3786,-1.4039,-1.4088,-1.4088,-1.4088,-1.4088,-1.4088,-1.4088,-1.4088,-1.4088,-1.4088,-1.4088,-1.4088,-1.4088,-1.4088,-1.4088,-1.4088,-1.4088,-1.4088,-1.4088,-1.4088,-1.4088,-1.4088,-1.4363,-1.4608,-1.4817,-1.5193,-1.565,-1.5914,-1.6196,-1.6402,-1.6525,-1.6648,-1.6648,-1.6689,-1.6689,-1.6689,-1.6689,-1.6689,-1.6689,-1.6689,-1.6689,-1.6689,-1.6689,-1.6689,-1.6689,-1.6689,-1.6689,-1.6689,-1.6812,-1.709,-1.7375,-1.7691,-1.8014,-1.8456,-1.8926,-1.9085,-1.945,-1.9923,-2.0323,-2.0362,-0.8123,-0.8231,-0.8099,-0.7988,-0.7988,-0.7988,-0.7988,-0.7988,-0.7988,-0.7988,-0.7988,-0.7988,-0.7988,-0.7988,-0.7988,-0.8048,-0.8072,-0.8085,-0.8224,-0.8439,-0.8633,-0.8837,-0.8825,-0.8962,-0.9095,-0.9205,-0.9271,-0.934,-0.9434,-0.9423,-0.9377,-0.9287,-0.9239,-0.924,-0.931,-0.9471,-0.9607,-0.9689,-0.9907,-0.9994,-0.9994,-0.9994,-0.9994,-0.9994,-0.9994,-0.9994,-0.9994,-1.0033,-1.0294,-1.0857,-1.0944,-1.1757,-1.2826,-1.3045,-1.3398,-1.3955,-1.4088,-1.4088,-1.4088,-1.4088,-1.4088,-1.4088,-1.4088,-1.4088,-1.4088,-1.4088,-1.4088,-1.4088,-1.4088,-1.4088,-1.4088,-1.4088,-1.4088,-1.4088,-1.4088,-1.4088,-1.413,-1.4286,-1.4482,-1.465,-1.5103,-1.5401,-1.5692,-1.6023,-1.6353,-1.6476,-1.6566,-1.6607,-1.6648,-1.6689,-1.6689,-1.6689,-1.6689,-1.6689,-1.6689,-1.6689,-1.6689,-1.6689,-1.6689,-1.6689,-1.6689,-1.6689,-1.6689,-1.6812,-1.6935,-1.7131,-1.7375,-1.7691,-1.7974,-1.8256,-1.8496,-1.8935,-1.9332,-1.9726,-1.9923,-0.8008,-0.8085,-0.8005,-0.7988,-0.7988,-0.7988,-0.7992,-0.7995,-0.7992,-0.8002,-0.7992,-0.7992,-0.7998,-0.8002,-0.8022,-0.8099,-0.8218,-0.8235,-0.8354,-0.8428,-0.8514,-0.8567,-0.8663,-0.8834,-0.9034,-0.9094,-0.8954,-0.8985,-0.8977,-0.8968,-0.8769,-0.872,-0.8878,-0.8913,-0.9012,-0.9388,-0.9607,-0.965,-0.9864,-0.9994,-0.9994,-0.9994,-0.9994,-0.9994,-0.9994,-0.9994,-0.9994,-0.9994,-1.0081,-1.0294,-1.0766,-1.1537,-1.2613,-1.296,-1.3307,-1.3913,-1.4088,-1.4088,-1.4088,-1.4088,-1.4088,-1.4088,-1.4088,-1.4088,-1.4088,-1.4088,-1.4088,-1.4088,-1.4088,-1.4088,-1.4088,-1.4088,-1.4088,-1.4088,-1.4088,-1.4088,-1.4124,-1.4279,-1.4398,-1.4566,-1.4859,-1.5242,-1.5436,-1.5692,-1.5982,-1.6312,-1.6484,-1.6525,-1.6607,-1.6648,-1.6689,-1.6648,-1.6689,-1.6689,-1.6689,-1.6689,-1.6689,-1.6689,-1.6689,-1.6689,-1.6689,-1.6689,-1.6689,-1.6689,-1.673,-1.6935,-1.7131,-1.709,-1.7294,-1.7619,-1.7942,-1.8296,-1.8696,-1.9085,-1.9481,-0.8187,-0.8228,-0.8049,-0.8032,-0.814,-0.815,-0.815,-0.8147,-0.8147,-0.815,-0.815,-0.8147,-0.8184,-0.8245,-0.8248,-0.8303,-0.8374,-0.8448,-0.8472,-0.853,-0.8601,-0.8621,-0.8559,-0.8738,-0.8915,-0.8995,-0.8911,-0.8918,-0.8961,-0.8775,-0.8671,-0.8512,-0.8601,-0.8588,-0.8673,-0.9174,-0.9437,-0.9519,-0.982,-0.9994,-0.9994,-0.9994,-0.9994,-0.9994,-0.9994,-0.9994,-0.9994,-0.9994,-0.9994,-1.0081,-1.0381,-1.1154,-1.2272,-1.2571,-1.3052,-1.387,-1.4088,-1.4088,-1.4088,-1.4088,-1.4088,-1.4088,-1.4088,-1.4088,-1.4088,-1.4088,-1.4088,-1.4088,-1.4088,-1.4088,-1.4088,-1.4088,-1.4088,-1.4088,-1.4088,-1.4088,-1.4124,-1.4201,-1.4321,-1.4405,-1.4608,-1.4908,-1.5159,-1.5401,-1.565,-1.5974,-1.6245,-1.6327,-1.6476,-1.6517,-1.6607,-1.6648,-1.6689,-1.6689,-1.6689,-1.6689,-1.6689,-1.6689,-1.6689,-1.6689,-1.6689,-1.6689,-1.6689,-1.6689,-1.6689,-1.6689,-1.6853,-1.673,-1.673,-1.7017,-1.7375,-1.7659,-1.7974,-1.8327,-1.8727,-0.8306,-0.8397,-0.8093,-0.8066,-0.8225,-0.8228,-0.8218,-0.8225,-0.8235,-0.8218,-0.831,-0.8252,-0.8262,-0.8404,-0.8418,-0.8455,-0.855,-0.8659,-0.8682,-0.8638,-0.8743,-0.8767,-0.8652,-0.8722,-0.8837,-0.8881,-0.8793,-0.894,-0.8997,-0.8914,-0.8627,-0.8564,-0.8519,-0.8505,-0.8535,-0.8914,-0.9328,-0.9425,-0.9717,-0.9951,-0.9994,-0.9994,-0.9994,-0.9994,-0.9994,-0.9994,-0.9994,-0.9994,-0.9994,-0.9994,-0.9994,-1.0679,-1.1456,-1.1929,-1.2485,-1.3786,-1.3828,-1.3913,-1.4088,-1.4088,-1.4088,-1.4088,-1.4088,-1.4088,-1.4088,-1.4088,-1.4088,-1.4088,-1.4088,-1.4088,-1.4088,-1.4088,-1.4088,-1.4088,-1.4088,-1.4088,-1.4088,-1.4088,-1.4208,-1.4279,-1.444,-1.4692,-1.495,-1.5159,-1.5401,-1.565,-1.5873,-1.6121,-1.627,-1.6435,-1.6517,-1.6607,-1.6689,-1.6689,-1.6689,-1.6689,-1.6689,-1.6729,-1.6721,-1.6737,-1.6729,-1.6689,-1.6689,-1.6689,-1.6689,-1.6689,-1.6689,-1.6689,-1.6689,-1.6689,-1.6812,-1.7172,-1.7416,-1.761,-1.8014,-0.8042,-0.8059,-0.8008,-0.8008,-0.8079,-0.8082,-0.8056,-0.8079,-0.8069,-0.8157,-0.8313,-0.8153,-0.8211,-0.8309,-0.8368,-0.8438,-0.8672,-0.8804,-0.8862,-0.8828,-0.8865,-0.8862,-0.8849,-0.8838,-0.8862,-0.8798,-0.8712,-0.874,-0.8774,-0.865,-0.8558,-0.8489,-0.8612,-0.8678,-0.8667,-0.8997,-0.9319,-0.9486,-0.9699,-0.9846,-1.0017,-1.0037,-1.0009,-1.0004,-0.9994,-0.9994,-0.9994,-0.9994,-0.9994,-0.9994,-0.9994,-1.0424,-1.0987,-1.1154,-1.1843,-1.2833,-1.3222,-1.3392,-1.387,-1.4046,-1.4088,-1.4088,-1.4088,-1.4088,-1.4088,-1.4088,-1.4088,-1.4088,-1.4088,-1.4088,-1.4088,-1.4088,-1.4088,-1.4088,-1.4088,-1.4088,-1.4088,-1.413,-1.413,-1.4166,-1.4321,-1.4433,-1.4692,-1.4908,-1.5151,-1.536,-1.5616,-1.5906,-1.6188,-1.6312,-1.6476,-1.6566,-1.6689,-1.6689,-1.6689,-1.6689,-1.6697,-1.6776,-1.68,-1.684,-1.6808,-1.6721,-1.6697,-1.6792,-1.6753,-1.6689,-1.6689,-1.6689,-1.6689,-1.6689,-1.673,-1.6771,-1.7009,-1.7253,-1.7489,-0.8296,-0.8163,-0.8157,-0.8157,-0.8174,-0.8238,-0.8269,-0.8279,-0.8353,-0.8428,-0.8462,-0.8428,-0.8469,-0.8584,-0.8615,-0.871,-0.8815,-0.8893,-0.8937,-0.8937,-0.8937,-0.8937,-0.8937,-0.8937,-0.8937,-0.8899,-0.8791,-0.874,-0.8808,-0.8672,-0.8549,-0.8458,-0.8642,-0.8721,-0.8683,-0.8999,-0.9376,-0.9625,-0.9827,-1.0038,-1.0249,-1.0227,-1.0123,-1.0023,-0.9994,-0.9994,-0.9994,-0.9994,-0.9994,-0.9994,-0.9994,-1.0164,-1.0381,-1.0641,-1.1073,-1.2143,-1.2485,-1.279,-1.3392,-1.3568,-1.3659,-1.4046,-1.4088,-1.4088,-1.4088,-1.4088,-1.4088,-1.4088,-1.4088,-1.4088,-1.4088,-1.4088,-1.4088,-1.4088,-1.4088,-1.4088,-1.4088,-1.4088,-1.4088,-1.4088,-1.4166,-1.4321,-1.4433,-1.465,-1.4901,-1.511,-1.5325,-1.565,-1.6023,-1.6188,-1.6319,-1.6572,-1.6711,-1.6776,-1.6784,-1.68,-1.6879,-1.6984,-1.6961,-1.7,-1.7056,-1.7016,-1.7016,-1.7064,-1.6969,-1.6768,-1.6689,-1.6689,-1.6689,-1.6689,-1.6689,-1.673,-1.6771,-1.6935,-1.7172,-0.8526,-0.8368,-0.8368,-0.8364,-0.833,-0.8428,-0.8528,-0.8509,-0.8591,-0.8652,-0.8706,-0.8669,-0.8716,-0.8845,-0.8876,-0.8838,-0.893,-0.8937,-0.8937,-0.8937,-0.8937,-0.8937,-0.8937,-0.8937,-0.8937,-0.8933,-0.8916,-0.8937,-0.8848,-0.8811,-0.8611,-0.8564,-0.8671,-0.8749,-0.8671,-0.9017,-0.9456,-0.9839,-0.9981,-1.0246,-1.0481,-1.0426,-1.0246,-1.007,-1.0018,-0.9994,-0.9994,-0.9994,-0.9994,-0.9994,-0.9994,-1.0038,-0.9994,-0.9994,-1.0506,-1.137,-1.1714,-1.2143,-1.2613,-1.2833,-1.3094,-1.3659,-1.3822,-1.3913,-1.4088,-1.4088,-1.4088,-1.4088,-1.4088,-1.4088,-1.4088,-1.4088,-1.4088,-1.4088,-1.4088,-1.4088,-1.4088,-1.4088,-1.4088,-1.4088,-1.4088,-1.4186,-1.4362,-1.4433,-1.4643,-1.4859,-1.5075,-1.5367,-1.5692,-1.5906,-1.6095,-1.6454,-1.67,-1.6871,-1.6945,-1.6992,-1.7143,-1.7342,-1.7239,-1.7191,-1.7278,-1.7392,-1.736,-1.7247,-1.7104,-1.6953,-1.6808,-1.6705,-1.6689,-1.6689,-1.6689,-1.6689,-1.673,-1.6771,-1.6894,-0.8489,-0.8459,-0.8511,-0.8459,-0.8455,-0.8479,-0.8542,-0.8496,-0.853,-0.8587,-0.8723,-0.8598,-0.8632,-0.874,-0.8767,-0.8828,-0.8903,-0.8937,-0.8937,-0.8937,-0.8937,-0.8937,-0.8937,-0.8937,-0.8937,-0.8937,-0.8937,-0.8937,-0.8875,-0.8851,-0.876,-0.8678,-0.879,-0.89,-0.8946,-0.9084,-0.9431,-0.9923,-0.9934,-1.0129,-1.0514,-1.0409,-1.0305,-1.0251,-1.0123,-1.0023,-1.0028,-1.0018,-0.9994,-0.9994,-0.9994,-0.9994,-0.9994,-0.9994,-1.0038,-1.0337,-1.0771,-1.1413,-1.1972,-1.2143,-1.24,-1.3003,-1.3173,-1.3483,-1.387,-1.4088,-1.4088,-1.4088,-1.4088,-1.4088,-1.4088,-1.4088,-1.4088,-1.4108,-1.4128,-1.4128,-1.4135,-1.4329,-1.4302,-1.4269,-1.4329,-1.4242,-1.428,-1.4368,-1.4433,-1.4608,-1.4824,-1.5138,-1.5504,-1.5836,-1.6232,-1.6683,-1.6883,-1.7041,-1.7215,-1.7247,-1.7421,-1.7668,-1.7596,-1.7477,-1.7644,-1.7723,-1.7453,-1.7366,-1.7247,-1.7143,-1.704,-1.6929,-1.6753,-1.6689,-1.6689,-1.6689,-1.6689,-1.6689,-1.6689,-0.8638,-0.8492,-0.8574,-0.8557,-0.8496,-0.857,-0.8611,-0.8628,-0.8706,-0.8777,-0.8821,-0.8777,-0.873,-0.877,-0.8842,-0.8821,-0.8875,-0.8937,-0.8937,-0.8937,-0.8937,-0.8937,-0.8937,-0.8937,-0.8937,-0.8937,-0.8937,-0.8937,-0.8937,-0.8923,-0.8862,-0.8726,-0.8902,-0.9052,-0.9123,-0.9245,-0.9567,-0.9966,-1.025,-1.0391,-1.0528,-1.0571,-1.056,-1.0483,-1.0284,-1.0189,-1.0137,-1.0042,-0.9999,-0.9994,-0.9994,-0.9994,-0.9994,-0.9994,-1.0038,-1.0038,-1.0255,-1.0771,-1.1284,-1.1413,-1.1794,-1.2351,-1.2784,-1.3349,-1.3913,-1.4088,-1.4088,-1.4088,-1.4088,-1.4095,-1.4108,-1.4088,-1.4088,-1.4122,-1.4269,-1.4315,-1.4382,-1.4593,-1.4687,-1.4596,-1.4556,-1.4539,-1.4445,-1.4361,-1.4518,-1.4708,-1.4872,-1.512,-1.5626,-1.619,-1.6616,-1.7086,-1.7208,-1.7278,-1.7497,-1.7588,-1.7763,-1.7969,-1.8041,-1.7993,-1.8144,-1.812,-1.7834,-1.7683,-1.7668,-1.7517,-1.7302,-1.7032,-1.6784,-1.6729,-1.6689,-1.6689,-1.6689,-1.6689,-1.673,-0.875,-0.8611,-0.872,-0.8703,-0.8608,-0.8723,-0.8767,-0.8784,-0.8879,-0.8878,-0.8937,-0.8871,-0.8871,-0.8937,-0.8875,-0.8871,-0.8937,-0.8937,-0.8937,-0.8937,-0.8937,-0.8937,-0.8937,-0.8937,-0.8937,-0.8937,-0.8937,-0.8937,-0.8937,-0.8927,-0.8879,-0.8764,-0.8875,-0.8991,-0.9105,-0.9271,-0.9574,-1.0006,-1.0378,-1.0551,-1.0553,-1.0667,-1.0613,-1.0482,-1.0395,-1.0293,-1.0217,-1.0094,-0.9999,-0.9994,-0.9994,-0.9994,-0.9994,-0.9994,-0.9994,-0.9994,-1.0125,-1.025,-1.0598,-1.0814,-1.1154,-1.1709,-1.2357,-1.296,-1.361,-1.3822,-1.4064,-1.4173,-1.4115,-1.4168,-1.4255,-1.4282,-1.4302,-1.4409,-1.4529,-1.4583,-1.4656,-1.4803,-1.4908,-1.4847,-1.4827,-1.4894,-1.4767,-1.4509,-1.4562,-1.4831,-1.4968,-1.5121,-1.5638,-1.6337,-1.6765,-1.7148,-1.7224,-1.7409,-1.782,-1.8016,-1.8142,-1.824,-1.8311,-1.8327,-1.8367,-1.8351,-1.8168,-1.8089,-1.8049,-1.7946,-1.7763,-1.7294,-1.6865,-1.6905,-1.6864,-1.6729,-1.6689,-1.6713,-1.6754,-0.8871,-0.8851,-0.8913,-0.8851,-0.8838,-0.8916,-0.8861,-0.8903,-0.8927,-0.8937,-0.8937,-0.8937,-0.8937,-0.8937,-0.8937,-0.8937,-0.8937,-0.8937,-0.8937,-0.8937,-0.8937,-0.8937,-0.8937,-0.8937,-0.8937,-0.8937,-0.8937,-0.8937,-0.8937,-0.8937,-0.8875,-0.8854,-0.8852,-0.8852,-0.8943,-0.9157,-0.9454,-0.9859,-1.0216,-1.0364,-1.0378,-1.0474,-1.0446,-1.0347,-1.0263,-1.0187,-1.0047,-1.0037,-1.0004,-1.0004,-0.9994,-0.9994,-0.9994,-0.9994,-0.9994,-0.9994,-1.0042,-1.0115,-1.0226,-1.0294,-1.0467,-1.1068,-1.1721,-1.2408,-1.3034,-1.3083,-1.3476,-1.4119,-1.3952,-1.4266,-1.4482,-1.4696,-1.4543,-1.4696,-1.4803,-1.4897,-1.4957,-1.5017,-1.5109,-1.5042,-1.5082,-1.5196,-1.5216,-1.499,-1.4843,-1.5057,-1.5345,-1.5511,-1.5702,-1.6282,-1.6674,-1.6996,-1.7077,-1.7444,-1.8171,-1.8324,-1.8275,-1.8371,-1.8464,-1.8446,-1.839,-1.8359,-1.8422,-1.8383,-1.8319,-1.8279,-1.8184,-1.7747,-1.739,-1.7207,-1.708,-1.6984,-1.6927,-1.6982,-1.6895,-0.8432,-0.8881,-0.8937,-0.8937,-0.8937,-0.8937,-0.8937,-0.8937,-0.8937,-0.8937,-0.8937,-0.8937,-0.8937,-0.8937,-0.8937,-0.8937,-0.8937,-0.8937,-0.8937,-0.8937,-0.8937,-0.8937,-0.8937,-0.8937,-0.8937,-0.8937,-0.8937,-0.8937,-0.8937,-0.8937,-0.8937,-0.891,-0.8862,-0.8926,-0.898,-0.9065,-0.9268,-0.9486,-0.978,-0.9974,-1.0203,-1.036,-1.0457,-1.0573,-1.0434,-1.0417,-1.0367,-1.026,-1.0137,-1.0042,-1.0018,-1.0018,-1.0013,-1.0013,-1.0004,-1.0018,-1.0094,-1.0113,-1.0028,-1.0047,-1.0294,-1.093,-1.1476,-1.1954,-1.2485,-1.2627,-1.2839,-1.3236,-1.3592,-1.3875,-1.4129,-1.44,-1.4603,-1.489,-1.509,-1.5197,-1.5264,-1.5317,-1.5364,-1.5344,-1.5444,-1.5565,-1.5551,-1.5511,-1.5371,-1.533,-1.5621,-1.5867,-1.6039,-1.6218,-1.6627,-1.6936,-1.7047,-1.7311,-1.8003,-1.8195,-1.831,-1.8455,-1.8601,-1.8575,-1.8496,-1.8629,-1.8669,-1.8629,-1.8597,-1.8565,-1.843,-1.8168,-1.7858,-1.7517,-1.7342,-1.7239,-1.7254,-1.7294,-1.7207,-0.7983,-0.8546,-0.883,-0.8937,-0.8937,-0.8937,-0.8937,-0.8937,-0.8937,-0.8937,-0.8937,-0.8937,-0.8937,-0.8937,-0.8937,-0.8937,-0.8937,-0.8937,-0.8937,-0.8937,-0.8937,-0.8937,-0.8937,-0.8937,-0.8937,-0.8937,-0.8937,-0.8937,-0.8937,-0.8937,-0.8937,-0.8937,-0.8927,-0.8944,-0.8944,-0.9044,-0.9071,-0.9199,-0.9456,-0.9561,-0.9793,-1.0109,-1.0236,-1.0391,-1.0336,-1.0377,-1.0376,-1.0273,-1.0265,-1.022,-1.0208,-1.0161,-1.0123,-1.008,-1.0051,-1.0089,-1.0161,-1.0232,-1.0146,-1.0138,-1.0309,-1.0725,-1.1066,-1.1478,-1.1907,-1.218,-1.2405,-1.2888,-1.3123,-1.3389,-1.3799,-1.4359,-1.4798,-1.5127,-1.5385,-1.5531,-1.5558,-1.5605,-1.5678,-1.5718,-1.5778,-1.5711,-1.5738,-1.5685,-1.5631,-1.5538,-1.5638,-1.5879,-1.6078,-1.6258,-1.6528,-1.6818,-1.703,-1.7392,-1.7753,-1.7902,-1.8056,-1.8442,-1.8549,-1.8657,-1.8688,-1.8781,-1.8781,-1.871,-1.8702,-1.8765,-1.8645,-1.8359,-1.8049,-1.7723,-1.7604,-1.7501,-1.7509,-1.754,-1.754,-0.7593,-0.7759,-0.8546,-0.8881,-0.8881,-0.8937,-0.8937,-0.8937,-0.8937,-0.8937,-0.8937,-0.8937,-0.8937,-0.8937,-0.8937,-0.8937,-0.8937,-0.8937,-0.8937,-0.8937,-0.8937,-0.8937,-0.8937,-0.8937,-0.8937,-0.8937,-0.8937,-0.8937,-0.8937,-0.8937,-0.8937,-0.8937,-0.8927,-0.8862,-0.8763,-0.8832,-0.8983,-0.9152,-0.9329,-0.9353,-0.9476,-0.9788,-0.9887,-0.9949,-1.011,-1.0187,-1.0206,-1.0329,-1.0338,-1.036,-1.0442,-1.0431,-1.0322,-1.0312,-1.0236,-1.0104,-1.027,-1.0346,-1.0336,-1.0327,-1.0372,-1.0486,-1.0813,-1.1083,-1.1323,-1.1582,-1.1956,-1.2444,-1.2686,-1.324,-1.3889,-1.4409,-1.4718,-1.517,-1.5416,-1.5644,-1.5617,-1.5724,-1.5805,-1.5825,-1.5825,-1.5818,-1.5818,-1.5812,-1.5805,-1.5785,-1.5805,-1.5906,-1.6069,-1.617,-1.6346,-1.6541,-1.6831,-1.7113,-1.7394,-1.7581,-1.7854,-1.8241,-1.852,-1.8612,-1.8705,-1.8789,-1.8781,-1.8781,-1.8781,-1.8781,-1.87,-1.8533,-1.8319,-1.812,-1.7898,-1.7795,-1.7838,-1.7886,-1.789,-0.6482,-0.7648,-0.7931,-0.8377,-0.8826,-0.8937,-0.8937,-0.8937,-0.8937,-0.8937,-0.8937,-0.8937,-0.8937,-0.8937,-0.8937,-0.8937,-0.8937,-0.8937,-0.8937,-0.8937,-0.8937,-0.8937,-0.8937,-0.8937,-0.8937,-0.8937,-0.8937,-0.8937,-0.8937,-0.8937,-0.8937,-0.8937,-0.8927,-0.8855,-0.8743,-0.8745,-0.8828,-0.8963,-0.9087,-0.9164,-0.9307,-0.9509,-0.9712,-0.9731,-0.9932,-1.0031,-1.01,-1.022,-1.0359,-1.0412,-1.0534,-1.057,-1.0485,-1.0521,-1.0478,-1.0445,-1.0556,-1.0754,-1.0792,-1.0787,-1.0659,-1.0636,-1.0782,-1.0981,-1.1111,-1.1252,-1.1533,-1.1831,-1.2115,-1.259,-1.2912,-1.3354,-1.3808,-1.4659,-1.5038,-1.5378,-1.5527,-1.5717,-1.5825,-1.5825,-1.5825,-1.5825,-1.5825,-1.5825,-1.5825,-1.5825,-1.5825,-1.5825,-1.59,-1.5954,-1.6069,-1.6218,-1.6461,-1.6744,-1.6979,-1.7254,-1.7535,-1.7861,-1.8241,-1.8527,-1.8612,-1.8697,-1.8781,-1.8781,-1.8781,-1.8773,-1.874,-1.8676,-1.8684,-1.8549,-1.8287,-1.8224,-1.8311,-1.8359,-1.839,-0.5596,-0.6705,-0.7371,-0.7706,-0.81,-0.866,-0.8937,-0.8937,-0.8937,-0.8937,-0.8937,-0.8937,-0.8937,-0.8937,-0.8937,-0.8937,-0.8937,-0.8937,-0.8937,-0.8937,-0.8937,-0.8937,-0.8937,-0.8937,-0.8937,-0.8937,-0.8937,-0.8937,-0.8937,-0.8937,-0.8937,-0.8937,-0.8937,-0.8834,-0.8815,-0.8777,-0.8774,-0.8874,-0.8934,-0.9053,-0.9194,-0.932,-0.9485,-0.9556,-0.9708,-0.983,-0.9998,-1.0162,-1.0363,-1.0389,-1.0537,-1.0698,-1.0712,-1.0683,-1.065,-1.0664,-1.0773,-1.0972,-1.1061,-1.1071,-1.091,-1.0896,-1.1075,-1.1075,-1.0986,-1.1139,-1.1171,-1.1371,-1.153,-1.1907,-1.2345,-1.2713,-1.3202,-1.4004,-1.4394,-1.4675,-1.4867,-1.501,-1.5397,-1.5445,-1.5778,-1.5778,-1.5778,-1.5825,-1.5825,-1.5825,-1.5825,-1.5825,-1.5825,-1.5832,-1.5879,-1.6028,-1.6177,-1.6414,-1.669,-1.6972,-1.7254,-1.7488,-1.7861,-1.8249,-1.8527,-1.8612,-1.8697,-1.8773,-1.8781,-1.8781,-1.8781,-1.8758,-1.8772,-1.8732,-1.8613,-1.8645,-1.8765,-1.8772,-1.87,-0.4875,-0.5152,-0.676,-0.7038,-0.671,-0.81,-0.8826,-0.8881,-0.8937,-0.8937,-0.8937,-0.8937,-0.8937,-0.8937,-0.8937,-0.8937,-0.8937,-0.8937,-0.8937,-0.8937,-0.8937,-0.8937,-0.8937,-0.8937,-0.8937,-0.8937,-0.8937,-0.8937,-0.8937,-0.8937,-0.8937,-0.8937,-0.8937,-0.8861,-0.8851,-0.8886,-0.8828,-0.8855,-0.8928,-0.899,-0.903,-0.9208,-0.9227,-0.9301,-0.9415,-0.9551,-0.9747,-0.992,-1.0243,-1.0507,-1.0756,-1.0805,-1.0875,-1.091,-1.0773,-1.0731,-1.0844,-1.1019,-1.1146,-1.1156,-1.1156,-1.1075,-1.1146,-1.108,-1.1047,-1.1099,-1.1165,-1.1194,-1.1336,-1.1745,-1.2139,-1.2377,-1.2614,-1.3087,-1.342,-1.3661,-1.3854,-1.4142,-1.4586,-1.4968,-1.5547,-1.5689,-1.5588,-1.5588,-1.5825,-1.5825,-1.5825,-1.5825,-1.5825,-1.5825,-1.5832,-1.5832,-1.6028,-1.617,-1.6407,-1.669,-1.6972,-1.7254,-1.7527,-1.7861,-1.8195,-1.852,-1.8651,-1.8735,-1.8781,-1.8781,-1.8781,-1.8781,-1.8773,-1.8734,-1.8732,-1.8756,-1.8781,-1.8781,-1.8772,-0.4314,-0.4987,-0.5485,-0.5929,-0.6427,-0.7485,-0.8322,-0.8881,-0.8937,-0.8937,-0.8937,-0.8937,-0.8937,-0.8937,-0.8937,-0.8937,-0.8937,-0.8937,-0.8937,-0.8937,-0.8937,-0.8937,-0.8937,-0.8937,-0.8937,-0.8937,-0.8937,-0.8937,-0.8937,-0.8937,-0.8937,-0.8937,-0.8937,-0.8937,-0.8937,-0.8937,-0.8899,-0.8872,-0.8907,-0.8924,-0.8919,-0.9065,-0.909,-0.9128,-0.9239,-0.9381,-0.9509,-0.9744,-1.0,-1.0197,-1.0618,-1.0795,-1.0835,-1.1011,-1.1052,-1.1042,-1.1094,-1.1146,-1.1184,-1.1194,-1.1194,-1.1194,-1.1194,-1.1184,-1.1142,-1.1146,-1.1194,-1.1194,-1.1194,-1.1536,-1.1683,-1.1829,-1.2073,-1.2408,-1.2694,-1.284,-1.3082,-1.3468,-1.3956,-1.4586,-1.5159,-1.5404,-1.5302,-1.5635,-1.5825,-1.5825,-1.5825,-1.5825,-1.5825,-1.5825,-1.5825,-1.5832,-1.5879,-1.6028,-1.617,-1.6407,-1.669,-1.6972,-1.7254,-1.7574,-1.8001,-1.8326,-1.8558,-1.8697,-1.8781,-1.8781,-1.8781,-1.8781,-1.8781,-1.8781,-1.875,-1.8765,-1.8781,-1.8781,-1.8781,-0.3923,-0.4426,-0.4761,-0.5429,-0.6262,-0.6485,-0.721,-0.8266,-0.8716,-0.8937,-0.8937,-0.8937,-0.8937,-0.8937,-0.8937,-0.8937,-0.8937,-0.8937,-0.8937,-0.8937,-0.8937,-0.8937,-0.8937,-0.8937,-0.8937,-0.8937,-0.8937,-0.8937,-0.8937,-0.8937,-0.8937,-0.8937,-0.8937,-0.8937,-0.8937,-0.8937,-0.8937,-0.893,-0.893,-0.8937,-0.8951,-0.9002,-0.9005,-0.9026,-0.914,-0.9238,-0.9293,-0.9548,-0.9777,-0.9967,-1.0434,-1.0703,-1.0797,-1.1042,-1.1189,-1.1165,-1.117,-1.1175,-1.1194,-1.1194,-1.1194,-1.1194,-1.1194,-1.1189,-1.1189,-1.1184,-1.1194,-1.1194,-1.1194,-1.1243,-1.1243,-1.1243,-1.1536,-1.1829,-1.1975,-1.2116,-1.2457,-1.284,-1.3468,-1.4148,-1.458,-1.4921,-1.5207,-1.554,-1.5825,-1.5825,-1.5825,-1.5825,-1.5825,-1.5825,-1.5825,-1.5825,-1.5832,-1.5879,-1.6021,-1.6123,-1.6454,-1.6737,-1.7019,-1.7394,-1.7815,-1.8187,-1.8419,-1.8596,-1.8781,-1.8781,-1.8781,-1.8781,-1.8781,-1.8781,-1.8781,-1.8781,-1.8781,-1.8781,-1.8781,-0.3587,-0.3699,-0.4482,-0.515,-0.5873,-0.5318,-0.5984,-0.7537,-0.8377,-0.8823,-0.8881,-0.8937,-0.8937,-0.8937,-0.8937,-0.8937,-0.8937,-0.8937,-0.8937,-0.8937,-0.8937,-0.8937,-0.8937,-0.8937,-0.8937,-0.8937,-0.8937,-0.8937,-0.8937,-0.8937,-0.8937,-0.8937,-0.8937,-0.8937,-0.8937,-0.8937,-0.8937,-0.8937,-0.8937,-0.8937,-0.8937,-0.8913,-0.8821,-0.8818,-0.8928,-0.9087,-0.9095,-0.9275,-0.9603,-0.9835,-1.0158,-1.0511,-1.0806,-1.1051,-1.1145,-1.1194,-1.1194,-1.1194,-1.1194,-1.1194,-1.1194,-1.1194,-1.1194,-1.1194,-1.1194,-1.1194,-1.1194,-1.1194,-1.1194,-1.1194,-1.1194,-1.1194,-1.1389,-1.1487,-1.1585,-1.1629,-1.1775,-1.2214,-1.2748,-1.3426,-1.3908,-1.4196,-1.425,-1.458,-1.5356,-1.5594,-1.5778,-1.5778,-1.5825,-1.5825,-1.5825,-1.5825,-1.5825,-1.5832,-1.5879,-1.6021,-1.6218,-1.6501,-1.6784,-1.7153,-1.7574,-1.7947,-1.8319,-1.855,-1.8781,-1.8781,-1.8781,-1.8781,-1.8781,-1.8781,-1.8781,-1.8781,-1.8781,-1.8781,-1.8781,-0.3587,-0.3587,-0.3811,-0.4089,-0.4313,-0.4706,-0.5543,-0.6652,-0.7537,-0.8263,-0.8826,-0.8881,-0.8937,-0.8937,-0.8937,-0.8937,-0.8937,-0.8937,-0.8937,-0.8937,-0.8937,-0.8937,-0.8937,-0.8937,-0.8937,-0.8937,-0.8937,-0.8937,-0.8937,-0.8937,-0.8937,-0.8937,-0.8937,-0.8937,-0.8937,-0.8937,-0.8937,-0.8937,-0.8937,-0.8937,-0.8937,-0.8937,-0.8906,-0.8876,-0.8968,-0.9008,-0.9112,-0.9306,-0.9484,-0.9631,-1.0078,-1.0462,-1.077,-1.1056,-1.1198,-1.1194,-1.1194,-1.1194,-1.1194,-1.1194,-1.1194,-1.1194,-1.1194,-1.1194,-1.1194,-1.1194,-1.1194,-1.1194,-1.1194,-1.1194,-1.1194,-1.1194,-1.1194,-1.1194,-1.1194,-1.1194,-1.1194,-1.1634,-1.2122,-1.2603,-1.3178,-1.3377,-1.3431,-1.3962,-1.4688,-1.5213,-1.5642,-1.5784,-1.5778,-1.5825,-1.5825,-1.5825,-1.5825,-1.5825,-1.5832,-1.5879,-1.6116,-1.6305,-1.6595,-1.6965,-1.7333,-1.7854,-1.8326,-1.8596,-1.8781,-1.8781,-1.8781,-1.8781,-1.8781,-1.8781,-1.8781,-1.8781,-1.8781,-1.8781,-1.8781,-0.3587,-0.3587,-0.3587,-0.3587,-0.3699,-0.4147,-0.4815,-0.5764,-0.6649,-0.754,-0.8322,-0.8716,-0.8881,-0.8881,-0.8937,-0.8937,-0.8937,-0.8937,-0.8937,-0.8937,-0.8937,-0.8937,-0.8937,-0.8937,-0.8937,-0.8937,-0.8937,-0.8937,-0.8937,-0.8937,-0.8937,-0.8937,-0.8937,-0.8937,-0.8937,-0.8937,-0.8937,-0.8937,-0.8937,-0.8937,-0.8937,-0.8937,-0.8937,-0.8937,-0.8916,-0.8979,-0.9043,-0.9244,-0.936,-0.9636,-1.0151,-1.0501,-1.0807,-1.1047,-1.1194,-1.1194,-1.1194,-1.1194,-1.1194,-1.1194,-1.1194,-1.1194,-1.1194,-1.1194,-1.1194,-1.1194,-1.1194,-1.1194,-1.1194,-1.1194,-1.1194,-1.1194,-1.1194,-1.1194,-1.1194,-1.1194,-1.1194,-1.1438,-1.1634,-1.1775,-1.2311,-1.2851,-1.3141,-1.3968,-1.464,-1.4933,-1.5356,-1.5737,-1.5784,-1.5825,-1.5825,-1.5825,-1.5825,-1.5825,-1.5825,-1.5879,-1.5974,-1.6163,-1.64,-1.7005,-1.7567,-1.7994,-1.8373,-1.8604,-1.8781,-1.8781,-1.8781,-1.8781,-1.8781,-1.8781,-1.8781,-1.8781,-1.8781,-1.8781,-1.8781,-0.3587,-0.3587,-0.3587,-0.3587,-0.3587,-0.3587,-0.4145,-0.4985,-0.5761,-0.6705,-0.7651,-0.8377,-0.8712,-0.8881,-0.8937,-0.8937,-0.8937,-0.8937,-0.8937,-0.8937,-0.8937,-0.8937,-0.8937,-0.8937,-0.8937,-0.8937,-0.8937,-0.8937,-0.8937,-0.8937,-0.8937,-0.8937,-0.8937,-0.8937,-0.8937,-0.8937,-0.8937,-0.8937,-0.8937,-0.8937,-0.8937,-0.8937,-0.8937,-0.8937,-0.8937,-0.8937,-0.8944,-0.9108,-0.9284,-0.9697,-1.0178,-1.058,-1.0816,-1.1035,-1.1145,-1.1194,-1.1194,-1.1194,-1.1194,-1.1194,-1.1194,-1.1194,-1.1194,-1.1194,-1.1194,-1.1194,-1.1194,-1.1194,-1.1194,-1.1194,-1.1194,-1.1194,-1.1194,-1.1194,-1.1194,-1.1194,-1.1243,-1.1247,-1.1243,-1.1194,-1.1634,-1.2224,-1.2802,-1.3673,-1.4256,-1.4592,-1.507,-1.5452,-1.5784,-1.5778,-1.5825,-1.5825,-1.5825,-1.5825,-1.5825,-1.5825,-1.5879,-1.6069,-1.64,-1.7099,-1.7707,-1.7994,-1.8326,-1.8604,-1.8743,-1.8781,-1.8781,-1.8781,-1.8781,-1.8781,-1.8781,-1.8781,-1.8781,-1.8781,-1.8781,-0.3587,-0.3587,-0.3587,-0.3587,-0.3587,-0.3587,-0.4089,-0.4819,-0.5096,-0.604,-0.7315,-0.7703,-0.8152,-0.8937,-0.8937,-0.8937,-0.8937,-0.8937,-0.8937,-0.8937,-0.8937,-0.8937,-0.8937,-0.8937,-0.8937,-0.8937,-0.8937,-0.8937,-0.8937,-0.8937,-0.8937,-0.8937,-0.8937,-0.8937,-0.8937,-0.8937,-0.8937,-0.8937,-0.8937,-0.8937,-0.8937,-0.8937,-0.8937,-0.8937,-0.8937,-0.8937,-0.8978,-0.9185,-0.9363,-0.9728,-1.0231,-1.0607,-1.0811,-1.1005,-1.1192,-1.1194,-1.1194,-1.1194,-1.1194,-1.1194,-1.1194,-1.1194,-1.1194,-1.1194,-1.1194,-1.1194,-1.1194,-1.1194,-1.1194,-1.1194,-1.1194,-1.1194,-1.1194,-1.1194,-1.1194,-1.1194,-1.1194,-1.1194,-1.1194,-1.1194,-1.134,-1.1585,-1.1683,-1.2506,-1.3238,-1.3721,-1.4442,-1.4873,-1.5547,-1.5689,-1.573,-1.5825,-1.5825,-1.5825,-1.5825,-1.5825,-1.5872,-1.6015,-1.6298,-1.6958,-1.752,-1.79,-1.8226,-1.8558,-1.8697,-1.8789,-1.8781,-1.8781,-1.8781,-1.8781,-1.8781,-1.8781,-1.8781,-1.8781,-1.8781]}]]